<?xml version="1.0" encoding="UTF-8" standalone="no" ?><gpx xmlns="http://www.topografix.com/GPX/1/1" xmlns:gpxx="http://www.garmin.com/xmlschemas/GpxExtensions/v3" xmlns:gpxtrkx="http://www.garmin.com/xmlschemas/TrackStatsExtension/v1" xmlns:wptx1="http://www.garmin.com/xmlschemas/WaypointExtension/v1" xmlns:gpxtpx="http://www.garmin.com/xmlschemas/TrackPointExtension/v1" creator="GPSMAP 64" version="1.1" xmlns:xsi="http://www.w3.org/2001/XMLSchema-instance" xsi:schemaLocation="http://www.topografix.com/GPX/1/1 http://www.topografix.com/GPX/1/1/gpx.xsd http://www.garmin.com/xmlschemas/GpxExtensions/v3 http://www8.garmin.com/xmlschemas/GpxExtensionsv3.xsd http://www.garmin.com/xmlschemas/TrackStatsExtension/v1 http://www8.garmin.com/xmlschemas/TrackStatsExtension.xsd http://www.garmin.com/xmlschemas/WaypointExtension/v1 http://www8.garmin.com/xmlschemas/WaypointExtensionv1.xsd http://www.garmin.com/xmlschemas/TrackPointExtension/v1 http://www.garmin.com/xmlschemas/TrackPointExtensionv1.xsd"><metadata><link href="http://www.garmin.com"><text>Garmin International</text></link><time>2026-08-15T11:29:25Z</time></metadata><trk><name>20260815-ЛИСА14</name><extensions><gpxx:TrackExtension><gpxx:DisplayColor>Magenta</gpxx:DisplayColor></gpxx:TrackExtension><gpxtrkx:TrackStatsExtension><gpxtrkx:Distance>18264.000</gpxtrkx:Distance><gpxtrkx:TotalElapsedTime>47581</gpxtrkx:TotalElapsedTime><gpxtrkx:MovingTime>35876</gpxtrkx:MovingTime><gpxtrkx:StoppedTime>11511</gpxtrkx:StoppedTime><gpxtrkx:MovingSpeed>0.509</gpxtrkx:MovingSpeed><gpxtrkx:MaxSpeed>382.928</gpxtrkx:MaxSpeed><gpxtrkx:MaxElevation>4747.654</gpxtrkx:MaxElevation><gpxtrkx:MinElevation>-1251.412</gpxtrkx:MinElevation><gpxtrkx:Ascent>45837.000</gpxtrkx:Ascent><gpxtrkx:Descent>52432.301</gpxtrkx:Descent><gpxtrkx:AvgAscentRate>0.054</gpxtrkx:AvgAscentRate><gpxtrkx:MaxAscentRate>10.066</gpxtrkx:MaxAscentRate><gpxtrkx:AvgDescentRate>0.063</gpxtrkx:AvgDescentRate><gpxtrkx:MaxDescentRate>-9.814</gpxtrkx:MaxDescentRate></gpxtrkx:TrackStatsExtension></extensions><trkseg><trkpt lat="59.3505422585" lon="34.6994330082"><ele>152.01</ele><time>2026-08-14T22:16:24Z</time></trkpt><trkpt lat="59.3505590223" lon="34.6994613390"><ele>151.78</ele><time>2026-08-14T22:16:45Z</time></trkpt><trkpt lat="59.3505386543" lon="34.6995054279"><ele>152.54</ele><time>2026-08-14T22:17:04Z</time></trkpt><trkpt lat="59.3504933082" lon="34.6995062660"><ele>152.31</ele><time>2026-08-14T22:17:16Z</time></trkpt><trkpt lat="59.3504955713" lon="34.6995007340"><ele>150.01</ele><time>2026-08-14T22:17:46Z</time></trkpt><trkpt lat="59.3505049590" lon="34.6994633507"><ele>152.36</ele><time>2026-08-14T22:18:26Z</time></trkpt><trkpt lat="59.3505017739" lon="34.6994570643"><ele>152.29</ele><time>2026-08-14T22:19:39Z</time></trkpt><trkpt lat="59.3504927214" lon="34.6994711459"><ele>152.01</ele><time>2026-08-14T22:20:01Z</time></trkpt><trkpt lat="59.3504944816" lon="34.6994724032"><ele>151.71</ele><time>2026-08-14T22:21:12Z</time></trkpt><trkpt lat="59.3504813220" lon="34.6994857304"><ele>149.84</ele><time>2026-08-14T22:22:07Z</time></trkpt><trkpt lat="59.3504736107" lon="34.6994919330"><ele>150.65</ele><time>2026-08-14T22:22:35Z</time></trkpt><trkpt lat="59.3504684977" lon="34.6994777676"><ele>151.56</ele><time>2026-08-14T22:23:32Z</time></trkpt><trkpt lat="59.3504642230" lon="34.6994919330"><ele>152.63</ele><time>2026-08-14T22:24:40Z</time></trkpt><trkpt lat="59.3504721858" lon="34.6995060146"><ele>152.29</ele><time>2026-08-14T22:25:53Z</time></trkpt><trkpt lat="59.3504646420" lon="34.6995075233"><ele>152.10</ele><time>2026-08-14T22:27:04Z</time></trkpt><trkpt lat="59.3504688330" lon="34.6994765103"><ele>153.50</ele><time>2026-08-14T22:27:57Z</time></trkpt><trkpt lat="59.3504926376" lon="34.6994780190"><ele>154.87</ele><time>2026-08-14T22:28:21Z</time></trkpt><trkpt lat="59.3504842557" lon="34.6994674578"><ele>155.06</ele><time>2026-08-14T22:28:45Z</time></trkpt><trkpt lat="59.3505227286" lon="34.6994531248"><ele>154.40</ele><time>2026-08-14T22:29:03Z</time></trkpt><trkpt lat="59.3505633809" lon="34.6994171664"><ele>154.63</ele><time>2026-08-14T22:29:33Z</time></trkpt><trkpt lat="59.3505454436" lon="34.6994235367"><ele>155.52</ele><time>2026-08-14T22:30:00Z</time></trkpt><trkpt lat="59.3505467009" lon="34.6994170826"><ele>154.65</ele><time>2026-08-14T22:30:29Z</time></trkpt><trkpt lat="59.3505477905" lon="34.6994329244"><ele>154.28</ele><time>2026-08-14T22:31:00Z</time></trkpt><trkpt lat="59.3505340442" lon="34.6994216088"><ele>154.28</ele><time>2026-08-14T22:31:22Z</time></trkpt><trkpt lat="59.3504902069" lon="34.6994272247"><ele>156.17</ele><time>2026-08-14T22:31:40Z</time></trkpt><trkpt lat="59.3505447730" lon="34.6994556393"><ele>157.56</ele><time>2026-08-14T22:32:11Z</time></trkpt><trkpt lat="59.3505262490" lon="34.6994757559"><ele>157.80</ele><time>2026-08-14T22:32:36Z</time></trkpt><trkpt lat="59.3505420070" lon="34.6994546335"><ele>157.45</ele><time>2026-08-14T22:33:02Z</time></trkpt><trkpt lat="59.3505430967" lon="34.6994012408"><ele>157.56</ele><time>2026-08-14T22:33:21Z</time></trkpt><trkpt lat="59.3505253270" lon="34.6993583255"><ele>157.80</ele><time>2026-08-14T22:33:40Z</time></trkpt><trkpt lat="59.3505350500" lon="34.6993689705"><ele>158.35</ele><time>2026-08-14T22:34:00Z</time></trkpt><trkpt lat="59.3505613692" lon="34.6994004864"><ele>157.97</ele><time>2026-08-14T22:34:27Z</time></trkpt><trkpt lat="59.3505403306" lon="34.6993830521"><ele>158.52</ele><time>2026-08-14T22:34:52Z</time></trkpt><trkpt lat="59.3505135085" lon="34.6993694734"><ele>158.23</ele><time>2026-08-14T22:35:22Z</time></trkpt><trkpt lat="59.3505083956" lon="34.6993264742"><ele>158.11</ele><time>2026-08-14T22:35:51Z</time></trkpt><trkpt lat="59.3505542446" lon="34.6993672941"><ele>159.15</ele><time>2026-08-14T22:36:17Z</time></trkpt><trkpt lat="59.3505684100" lon="34.6994232014"><ele>159.44</ele><time>2026-08-14T22:36:39Z</time></trkpt><trkpt lat="59.3505562562" lon="34.6994339302"><ele>160.67</ele><time>2026-08-14T22:37:04Z</time></trkpt><trkpt lat="59.3505140115" lon="34.6994693857"><ele>160.30</ele><time>2026-08-14T22:37:22Z</time></trkpt><trkpt lat="59.3505748641" lon="34.6994426474"><ele>161.74</ele><time>2026-08-14T22:37:48Z</time></trkpt><trkpt lat="59.3505840842" lon="34.6994144842"><ele>161.39</ele><time>2026-08-14T22:38:07Z</time></trkpt><trkpt lat="59.3505721819" lon="34.6994148195"><ele>161.61</ele><time>2026-08-14T22:38:38Z</time></trkpt><trkpt lat="59.3505648058" lon="34.6994286496"><ele>162.18</ele><time>2026-08-14T22:39:01Z</time></trkpt><trkpt lat="59.3505285960" lon="34.6994321700"><ele>161.03</ele><time>2026-08-14T22:39:28Z</time></trkpt><trkpt lat="59.3505727686" lon="34.6992540546"><ele>159.63</ele><time>2026-08-14T22:39:51Z</time></trkpt><trkpt lat="59.3505703378" lon="34.6993683837"><ele>159.20</ele><time>2026-08-14T22:40:15Z</time></trkpt><trkpt lat="59.3505710922" lon="34.6994048450"><ele>158.40</ele><time>2026-08-14T22:40:42Z</time></trkpt><trkpt lat="59.3505705893" lon="34.6994335111"><ele>157.71</ele><time>2026-08-14T22:41:10Z</time></trkpt><trkpt lat="59.3505668174" lon="34.6994508617"><ele>158.23</ele><time>2026-08-14T22:41:37Z</time></trkpt><trkpt lat="59.3505523168" lon="34.6994621772"><ele>158.55</ele><time>2026-08-14T22:42:07Z</time></trkpt><trkpt lat="59.3505420908" lon="34.6994371153"><ele>159.16</ele><time>2026-08-14T22:42:31Z</time></trkpt><trkpt lat="59.3505612854" lon="34.6994061861"><ele>160.27</ele><time>2026-08-14T22:43:00Z</time></trkpt><trkpt lat="59.3504764605" lon="34.6993543021"><ele>158.67</ele><time>2026-08-14T22:43:25Z</time></trkpt><trkpt lat="59.3503501453" lon="34.6993462555"><ele>157.99</ele><time>2026-08-14T22:43:37Z</time></trkpt><trkpt lat="59.3501717784" lon="34.6993278153"><ele>157.30</ele><time>2026-08-14T22:44:03Z</time></trkpt><trkpt lat="59.3500911444" lon="34.6992626879"><ele>156.65</ele><time>2026-08-14T22:44:22Z</time></trkpt><trkpt lat="59.3500806671" lon="34.6992578264"><ele>156.01</ele><time>2026-08-14T22:44:50Z</time></trkpt><trkpt lat="59.3500784878" lon="34.6992552280"><ele>155.60</ele><time>2026-08-14T22:45:11Z</time></trkpt><trkpt lat="59.3500867859" lon="34.6992613468"><ele>155.80</ele><time>2026-08-14T22:45:18Z</time></trkpt><trkpt lat="59.3503164500" lon="34.6993548051"><ele>157.48</ele><time>2026-08-14T22:45:38Z</time></trkpt><trkpt lat="59.3505125027" lon="34.6994534601"><ele>157.58</ele><time>2026-08-14T22:45:55Z</time></trkpt><trkpt lat="59.3505718466" lon="34.6993659530"><ele>157.50</ele><time>2026-08-14T22:46:08Z</time></trkpt><trkpt lat="59.3505507242" lon="34.6991541423"><ele>157.39</ele><time>2026-08-14T22:46:36Z</time></trkpt><trkpt lat="59.3504804838" lon="34.6986968257"><ele>156.00</ele><time>2026-08-14T22:46:57Z</time></trkpt><trkpt lat="59.3503912166" lon="34.6981777344"><ele>155.80</ele><time>2026-08-14T22:47:21Z</time></trkpt><trkpt lat="59.3503643107" lon="34.6979932487"><ele>155.87</ele><time>2026-08-14T22:47:31Z</time></trkpt><trkpt lat="59.3503523245" lon="34.6978378482"><ele>155.71</ele><time>2026-08-14T22:47:41Z</time></trkpt><trkpt lat="59.3503456190" lon="34.6975863073"><ele>154.71</ele><time>2026-08-14T22:47:58Z</time></trkpt><trkpt lat="59.3502965011" lon="34.6973237023"><ele>153.56</ele><time>2026-08-14T22:48:11Z</time></trkpt><trkpt lat="59.3502124306" lon="34.6969031822"><ele>151.80</ele><time>2026-08-14T22:48:35Z</time></trkpt><trkpt lat="59.3501328025" lon="34.6966715902"><ele>150.01</ele><time>2026-08-14T22:48:49Z</time></trkpt><trkpt lat="59.3500390928" lon="34.6964427643"><ele>148.37</ele><time>2026-08-14T22:49:04Z</time></trkpt><trkpt lat="59.3499994464" lon="34.6960228309"><ele>145.72</ele><time>2026-08-14T22:49:22Z</time></trkpt><trkpt lat="59.3499769829" lon="34.6958467271"><ele>144.57</ele><time>2026-08-14T22:49:30Z</time></trkpt><trkpt lat="59.3499576207" lon="34.6955200005"><ele>142.62</ele><time>2026-08-14T22:49:47Z</time></trkpt><trkpt lat="59.3499428686" lon="34.6953297313"><ele>141.49</ele><time>2026-08-14T22:49:59Z</time></trkpt><trkpt lat="59.3499135319" lon="34.6950238757"><ele>139.37</ele><time>2026-08-14T22:50:19Z</time></trkpt><trkpt lat="59.3498914875" lon="34.6947610192"><ele>136.73</ele><time>2026-08-14T22:50:33Z</time></trkpt><trkpt lat="59.3498840276" lon="34.6944376454"><ele>134.29</ele><time>2026-08-14T22:50:47Z</time></trkpt><trkpt lat="59.3498663418" lon="34.6942120045"><ele>132.36</ele><time>2026-08-14T22:50:57Z</time></trkpt><trkpt lat="59.3498313054" lon="34.6938934084"><ele>129.89</ele><time>2026-08-14T22:51:12Z</time></trkpt><trkpt lat="59.3497875519" lon="34.6936056577"><ele>127.36</ele><time>2026-08-14T22:51:27Z</time></trkpt><trkpt lat="59.3497318123" lon="34.6932771709"><ele>126.50</ele><time>2026-08-14T22:51:42Z</time></trkpt><trkpt lat="59.3496959377" lon="34.6930741612"><ele>126.02</ele><time>2026-08-14T22:51:54Z</time></trkpt><trkpt lat="59.3496719655" lon="34.6928548906"><ele>124.11</ele><time>2026-08-14T22:52:07Z</time></trkpt><trkpt lat="59.3496550340" lon="34.6926822234"><ele>122.46</ele><time>2026-08-14T22:52:18Z</time></trkpt><trkpt lat="59.3496581353" lon="34.6924574208"><ele>121.96</ele><time>2026-08-14T22:52:29Z</time></trkpt><trkpt lat="59.3496550340" lon="34.6922192071"><ele>121.62</ele><time>2026-08-14T22:52:40Z</time></trkpt><trkpt lat="59.3496776652" lon="34.6919556800"><ele>121.73</ele><time>2026-08-14T22:52:56Z</time></trkpt><trkpt lat="59.3496822752" lon="34.6918175463"><ele>121.40</ele><time>2026-08-14T22:53:08Z</time></trkpt><trkpt lat="59.3496246915" lon="34.6913643368"><ele>121.16</ele><time>2026-08-14T22:53:31Z</time></trkpt><trkpt lat="59.3496082630" lon="34.6911402047"><ele>120.61</ele><time>2026-08-14T22:53:43Z</time></trkpt><trkpt lat="59.3495923374" lon="34.6909579821"><ele>119.10</ele><time>2026-08-14T22:53:56Z</time></trkpt><trkpt lat="59.3495485000" lon="34.6905833948"><ele>126.09</ele><time>2026-08-14T22:54:09Z</time></trkpt><trkpt lat="59.3494858034" lon="34.6902617812"><ele>134.90</ele><time>2026-08-14T22:54:28Z</time></trkpt><trkpt lat="59.3494225200" lon="34.6899955720"><ele>140.21</ele><time>2026-08-14T22:54:45Z</time></trkpt><trkpt lat="59.3493855558" lon="34.6898005251"><ele>141.87</ele><time>2026-08-14T22:55:04Z</time></trkpt><trkpt lat="59.3493551295" lon="34.6894442104"><ele>145.86</ele><time>2026-08-14T22:55:23Z</time></trkpt><trkpt lat="59.3493345939" lon="34.6892028954"><ele>147.92</ele><time>2026-08-14T22:55:37Z</time></trkpt><trkpt lat="59.3493025750" lon="34.6889526118"><ele>148.66</ele><time>2026-08-14T22:55:57Z</time></trkpt><trkpt lat="59.3492959533" lon="34.6889339201"><ele>148.54</ele><time>2026-08-14T22:56:21Z</time></trkpt><trkpt lat="59.3492562231" lon="34.6886669565"><ele>147.76</ele><time>2026-08-14T22:56:41Z</time></trkpt><trkpt lat="59.3492557202" lon="34.6883434989"><ele>145.82</ele><time>2026-08-14T22:56:59Z</time></trkpt><trkpt lat="59.3492355198" lon="34.6879176982"><ele>141.63</ele><time>2026-08-14T22:57:19Z</time></trkpt><trkpt lat="59.3492098711" lon="34.6875908878"><ele>139.26</ele><time>2026-08-14T22:57:34Z</time></trkpt><trkpt lat="59.3492005672" lon="34.6872875467"><ele>134.91</ele><time>2026-08-14T22:57:50Z</time></trkpt><trkpt lat="59.3491892517" lon="34.6868759952"><ele>130.39</ele><time>2026-08-14T22:58:11Z</time></trkpt><trkpt lat="59.3491629325" lon="34.6864662040"><ele>124.75</ele><time>2026-08-14T22:58:31Z</time></trkpt><trkpt lat="59.3491915986" lon="34.6860830672"><ele>121.69</ele><time>2026-08-14T22:58:48Z</time></trkpt><trkpt lat="59.3492138945" lon="34.6858242340"><ele>125.81</ele><time>2026-08-14T22:59:05Z</time></trkpt><trkpt lat="59.3492484279" lon="34.6855666582"><ele>127.83</ele><time>2026-08-14T22:59:19Z</time></trkpt><trkpt lat="59.3492795248" lon="34.6853060648"><ele>126.43</ele><time>2026-08-14T22:59:32Z</time></trkpt><trkpt lat="59.3492950313" lon="34.6848980337"><ele>123.58</ele><time>2026-08-14T22:59:52Z</time></trkpt><trkpt lat="59.3493076041" lon="34.6846134681"><ele>121.22</ele><time>2026-08-14T23:00:07Z</time></trkpt><trkpt lat="59.3493234459" lon="34.6842528787"><ele>119.27</ele><time>2026-08-14T23:00:26Z</time></trkpt><trkpt lat="59.3493901659" lon="34.6838545706"><ele>119.72</ele><time>2026-08-14T23:00:44Z</time></trkpt><trkpt lat="59.3493915070" lon="34.6837584302"><ele>120.67</ele><time>2026-08-14T23:00:50Z</time></trkpt><trkpt lat="59.3494215142" lon="34.6834135987"><ele>119.93</ele><time>2026-08-14T23:01:09Z</time></trkpt><trkpt lat="59.3494821992" lon="34.6830990259"><ele>116.99</ele><time>2026-08-14T23:01:29Z</time></trkpt><trkpt lat="59.3495472427" lon="34.6828226745"><ele>109.19</ele><time>2026-08-14T23:01:50Z</time></trkpt><trkpt lat="59.3495845422" lon="34.6825234406"><ele>103.03</ele><time>2026-08-14T23:02:07Z</time></trkpt><trkpt lat="59.3496080954" lon="34.6821340173"><ele>108.27</ele><time>2026-08-14T23:02:24Z</time></trkpt><trkpt lat="59.3496645894" lon="34.6818844881"><ele>112.15</ele><time>2026-08-14T23:02:42Z</time></trkpt><trkpt lat="59.3497812655" lon="34.6816067118"><ele>115.99</ele><time>2026-08-14T23:03:04Z</time></trkpt><trkpt lat="59.3498189840" lon="34.6813496388"><ele>121.05</ele><time>2026-08-14T23:03:22Z</time></trkpt><trkpt lat="59.3498410285" lon="34.6811002772"><ele>128.12</ele><time>2026-08-14T23:03:39Z</time></trkpt><trkpt lat="59.3498425372" lon="34.6808846947"><ele>127.27</ele><time>2026-08-14T23:04:03Z</time></trkpt><trkpt lat="59.3499042280" lon="34.6807541046"><ele>129.35</ele><time>2026-08-14T23:04:20Z</time></trkpt><trkpt lat="59.3498883024" lon="34.6805660985"><ele>130.41</ele><time>2026-08-14T23:04:41Z</time></trkpt><trkpt lat="59.3498779088" lon="34.6803119592"><ele>131.63</ele><time>2026-08-14T23:04:58Z</time></trkpt><trkpt lat="59.3499436229" lon="34.6800081152"><ele>135.97</ele><time>2026-08-14T23:05:19Z</time></trkpt><trkpt lat="59.3499660864" lon="34.6797650401"><ele>134.92</ele><time>2026-08-14T23:05:40Z</time></trkpt><trkpt lat="59.3499940820" lon="34.6797051094"><ele>134.71</ele><time>2026-08-14T23:05:43Z</time></trkpt><trkpt lat="59.3499930762" lon="34.6794648841"><ele>137.75</ele><time>2026-08-14T23:06:05Z</time></trkpt><trkpt lat="59.3499510828" lon="34.6791792288"><ele>139.58</ele><time>2026-08-14T23:06:27Z</time></trkpt><trkpt lat="59.3499340676" lon="34.6788954176"><ele>139.60</ele><time>2026-08-14T23:06:49Z</time></trkpt><trkpt lat="59.3499360792" lon="34.6785612311"><ele>143.27</ele><time>2026-08-14T23:07:11Z</time></trkpt><trkpt lat="59.3499325588" lon="34.6781735681"><ele>143.86</ele><time>2026-08-14T23:07:32Z</time></trkpt><trkpt lat="59.3500285316" lon="34.6778817941"><ele>144.24</ele><time>2026-08-14T23:07:53Z</time></trkpt><trkpt lat="59.3500719499" lon="34.6775356214"><ele>142.02</ele><time>2026-08-14T23:08:12Z</time></trkpt><trkpt lat="59.3500763085" lon="34.6773440111"><ele>139.60</ele><time>2026-08-14T23:08:29Z</time></trkpt><trkpt lat="59.3501565233" lon="34.6772174444"><ele>138.29</ele><time>2026-08-14T23:08:45Z</time></trkpt><trkpt lat="59.3502045516" lon="34.6771720983"><ele>137.69</ele><time>2026-08-14T23:08:51Z</time></trkpt><trkpt lat="59.3502913881" lon="34.6769375727"><ele>138.18</ele><time>2026-08-14T23:09:07Z</time></trkpt><trkpt lat="59.3503360637" lon="34.6766493190"><ele>136.64</ele><time>2026-08-14T23:09:21Z</time></trkpt><trkpt lat="59.3503553420" lon="34.6764436271"><ele>136.77</ele><time>2026-08-14T23:09:36Z</time></trkpt><trkpt lat="59.3503329623" lon="34.6761253662"><ele>137.50</ele><time>2026-08-14T23:09:48Z</time></trkpt><trkpt lat="59.3503812421" lon="34.6759200934"><ele>138.13</ele><time>2026-08-14T23:10:06Z</time></trkpt><trkpt lat="59.3504010234" lon="34.6755807940"><ele>135.66</ele><time>2026-08-14T23:10:30Z</time></trkpt><trkpt lat="59.3504747003" lon="34.6753447596"><ele>132.23</ele><time>2026-08-14T23:10:45Z</time></trkpt><trkpt lat="59.3506372254" lon="34.6750076395"><ele>135.81</ele><time>2026-08-14T23:11:07Z</time></trkpt><trkpt lat="59.3507253192" lon="34.6747581102"><ele>137.61</ele><time>2026-08-14T23:11:24Z</time></trkpt><trkpt lat="59.3507797178" lon="34.6746166237"><ele>141.34</ele><time>2026-08-14T23:11:41Z</time></trkpt><trkpt lat="59.3507746886" lon="34.6742994525"><ele>142.85</ele><time>2026-08-14T23:12:01Z</time></trkpt><trkpt lat="59.3507581763" lon="34.6739321575"><ele>145.10</ele><time>2026-08-14T23:12:22Z</time></trkpt><trkpt lat="59.3507445976" lon="34.6736510284"><ele>145.13</ele><time>2026-08-14T23:12:43Z</time></trkpt><trkpt lat="59.3507321086" lon="34.6734939516"><ele>146.48</ele><time>2026-08-14T23:13:02Z</time></trkpt><trkpt lat="59.3507200386" lon="34.6733906865"><ele>145.21</ele><time>2026-08-14T23:13:28Z</time></trkpt><trkpt lat="59.3506781291" lon="34.6731429175"><ele>145.98</ele><time>2026-08-14T23:13:47Z</time></trkpt><trkpt lat="59.3506471161" lon="34.6731179394"><ele>145.25</ele><time>2026-08-14T23:14:14Z</time></trkpt><trkpt lat="59.3507207092" lon="34.6732227132"><ele>145.62</ele><time>2026-08-14T23:15:08Z</time></trkpt><trkpt lat="59.3506300170" lon="34.6731588431"><ele>155.23</ele><time>2026-08-14T23:17:17Z</time></trkpt><trkpt lat="59.3506041169" lon="34.6730010957"><ele>150.16</ele><time>2026-08-14T23:17:39Z</time></trkpt><trkpt lat="59.3507212121" lon="34.6731626149"><ele>148.16</ele><time>2026-08-14T23:18:04Z</time></trkpt><trkpt lat="59.3507027719" lon="34.6731620282"><ele>152.38</ele><time>2026-08-14T23:18:34Z</time></trkpt><trkpt lat="59.3507218827" lon="34.6731670573"><ele>151.72</ele><time>2026-08-14T23:19:04Z</time></trkpt><trkpt lat="59.3507331982" lon="34.6731148381"><ele>148.24</ele><time>2026-08-14T23:19:31Z</time></trkpt><trkpt lat="59.3507480342" lon="34.6731605195"><ele>149.13</ele><time>2026-08-14T23:20:03Z</time></trkpt><trkpt lat="59.3507419154" lon="34.6731992438"><ele>147.79</ele><time>2026-08-14T23:20:30Z</time></trkpt><trkpt lat="59.3506616168" lon="34.6731242258"><ele>152.88</ele><time>2026-08-14T23:21:00Z</time></trkpt><trkpt lat="59.3506699149" lon="34.6731502097"><ele>156.45</ele><time>2026-08-14T23:21:32Z</time></trkpt><trkpt lat="59.3506918754" lon="34.6731443424"><ele>157.65</ele><time>2026-08-14T23:22:06Z</time></trkpt><trkpt lat="59.3507100642" lon="34.6731547359"><ele>160.54</ele><time>2026-08-14T23:22:41Z</time></trkpt><trkpt lat="59.3507159315" lon="34.6731130779"><ele>160.40</ele><time>2026-08-14T23:23:07Z</time></trkpt><trkpt lat="59.3507106509" lon="34.6730943862"><ele>159.16</ele><time>2026-08-14T23:23:32Z</time></trkpt><trkpt lat="59.3506886065" lon="34.6731313504"><ele>158.37</ele><time>2026-08-14T23:24:02Z</time></trkpt><trkpt lat="59.3507057056" lon="34.6731295902"><ele>157.04</ele><time>2026-08-14T23:24:27Z</time></trkpt><trkpt lat="59.3507116567" lon="34.6729761176"><ele>157.79</ele><time>2026-08-14T23:24:52Z</time></trkpt><trkpt lat="59.3506917916" lon="34.6729069669"><ele>160.87</ele><time>2026-08-14T23:25:14Z</time></trkpt><trkpt lat="59.3506991677" lon="34.6728969086"><ele>163.18</ele><time>2026-08-14T23:25:29Z</time></trkpt><trkpt lat="59.3507311027" lon="34.6729204617"><ele>162.95</ele><time>2026-08-14T23:25:57Z</time></trkpt><trkpt lat="59.3506884389" lon="34.6728745289"><ele>166.55</ele><time>2026-08-14T23:26:25Z</time></trkpt><trkpt lat="59.3506868463" lon="34.6726089064"><ele>166.85</ele><time>2026-08-14T23:26:46Z</time></trkpt><trkpt lat="59.3506763689" lon="34.6723433677"><ele>164.32</ele><time>2026-08-14T23:27:05Z</time></trkpt><trkpt lat="59.3506589346" lon="34.6723069903"><ele>165.63</ele><time>2026-08-14T23:27:31Z</time></trkpt><trkpt lat="59.3505898677" lon="34.6722782403"><ele>166.10</ele><time>2026-08-14T23:27:48Z</time></trkpt><trkpt lat="59.3505449407" lon="34.6722433716"><ele>166.40</ele><time>2026-08-14T23:28:07Z</time></trkpt><trkpt lat="59.3505269196" lon="34.6721170563"><ele>166.45</ele><time>2026-08-14T23:28:26Z</time></trkpt><trkpt lat="59.3505050428" lon="34.6721225884"><ele>165.03</ele><time>2026-08-14T23:28:51Z</time></trkpt><trkpt lat="59.3504956551" lon="34.6721759811"><ele>164.96</ele><time>2026-08-14T23:29:28Z</time></trkpt><trkpt lat="59.3504807353" lon="34.6721003763"><ele>164.85</ele><time>2026-08-14T23:29:58Z</time></trkpt><trkpt lat="59.3504624628" lon="34.6720727999"><ele>163.88</ele><time>2026-08-14T23:30:28Z</time></trkpt><trkpt lat="59.3504436873" lon="34.6720808465"><ele>163.48</ele><time>2026-08-14T23:30:58Z</time></trkpt><trkpt lat="59.3504664022" lon="34.6721326467"><ele>160.16</ele><time>2026-08-14T23:31:30Z</time></trkpt><trkpt lat="59.3505031150" lon="34.6721396875"><ele>162.61</ele><time>2026-08-14T23:31:59Z</time></trkpt><trkpt lat="59.3504922185" lon="34.6721096803"><ele>161.48</ele><time>2026-08-14T23:32:23Z</time></trkpt><trkpt lat="59.3504878599" lon="34.6719302237"><ele>163.62</ele><time>2026-08-14T23:32:43Z</time></trkpt><trkpt lat="59.3504572660" lon="34.6717810258"><ele>165.18</ele><time>2026-08-14T23:33:05Z</time></trkpt><trkpt lat="59.3504584394" lon="34.6716704685"><ele>166.71</ele><time>2026-08-14T23:33:25Z</time></trkpt><trkpt lat="59.3504172843" lon="34.6715744119"><ele>167.08</ele><time>2026-08-14T23:33:46Z</time></trkpt><trkpt lat="59.3504376523" lon="34.6714617591"><ele>167.19</ele><time>2026-08-14T23:34:04Z</time></trkpt><trkpt lat="59.3504488003" lon="34.6714037564"><ele>168.02</ele><time>2026-08-14T23:34:18Z</time></trkpt><trkpt lat="59.3504545838" lon="34.6713284869"><ele>167.87</ele><time>2026-08-14T23:34:30Z</time></trkpt><trkpt lat="59.3504675757" lon="34.6712051053"><ele>166.91</ele><time>2026-08-14T23:34:48Z</time></trkpt><trkpt lat="59.3504649773" lon="34.6711192746"><ele>168.07</ele><time>2026-08-14T23:35:10Z</time></trkpt><trkpt lat="59.3504728563" lon="34.6710819751"><ele>168.47</ele><time>2026-08-14T23:35:31Z</time></trkpt><trkpt lat="59.3505303562" lon="34.6710247267"><ele>167.36</ele><time>2026-08-14T23:36:02Z</time></trkpt><trkpt lat="59.3505620398" lon="34.6710411552"><ele>165.35</ele><time>2026-08-14T23:36:32Z</time></trkpt><trkpt lat="59.3505336251" lon="34.6710243914"><ele>165.34</ele><time>2026-08-14T23:37:03Z</time></trkpt><trkpt lat="59.3505057134" lon="34.6710720845"><ele>165.80</ele><time>2026-08-14T23:37:31Z</time></trkpt><trkpt lat="59.3504759576" lon="34.6710656304"><ele>165.17</ele><time>2026-08-14T23:38:06Z</time></trkpt><trkpt lat="59.3504505605" lon="34.6711130720"><ele>165.89</ele><time>2026-08-14T23:38:38Z</time></trkpt><trkpt lat="59.3504448608" lon="34.6710813884"><ele>166.00</ele><time>2026-08-14T23:39:05Z</time></trkpt><trkpt lat="59.3504797295" lon="34.6710726712"><ele>166.77</ele><time>2026-08-14T23:39:30Z</time></trkpt><trkpt lat="59.3504829984" lon="34.6710186917"><ele>166.69</ele><time>2026-08-14T23:39:36Z</time></trkpt><trkpt lat="59.3505099881" lon="34.6709264070"><ele>167.15</ele><time>2026-08-14T23:40:01Z</time></trkpt><trkpt lat="59.3504829984" lon="34.6708430909"><ele>166.99</ele><time>2026-08-14T23:40:30Z</time></trkpt><trkpt lat="59.3504767120" lon="34.6708281711"><ele>169.68</ele><time>2026-08-14T23:40:59Z</time></trkpt><trkpt lat="59.3505032826" lon="34.6707592718"><ele>169.95</ele><time>2026-08-14T23:41:31Z</time></trkpt><trkpt lat="59.3505958188" lon="34.6707214694"><ele>171.33</ele><time>2026-08-14T23:42:00Z</time></trkpt><trkpt lat="59.3506140076" lon="34.6707622055"><ele>172.21</ele><time>2026-08-14T23:42:33Z</time></trkpt><trkpt lat="59.3505798094" lon="34.6707508061"><ele>172.98</ele><time>2026-08-14T23:43:05Z</time></trkpt><trkpt lat="59.3505823240" lon="34.6708036121"><ele>171.65</ele><time>2026-08-14T23:43:35Z</time></trkpt><trkpt lat="59.3505433481" lon="34.6709303465"><ele>171.40</ele><time>2026-08-14T23:44:09Z</time></trkpt><trkpt lat="59.3505355529" lon="34.6709435061"><ele>174.08</ele><time>2026-08-14T23:44:38Z</time></trkpt><trkpt lat="59.3505389895" lon="34.6709222998"><ele>175.59</ele><time>2026-08-14T23:45:07Z</time></trkpt><trkpt lat="59.3505202141" lon="34.6708828211"><ele>174.32</ele><time>2026-08-14T23:45:36Z</time></trkpt><trkpt lat="59.3505128380" lon="34.6706443559"><ele>171.91</ele><time>2026-08-14T23:45:55Z</time></trkpt><trkpt lat="59.3505032826" lon="34.6703658253"><ele>167.65</ele><time>2026-08-14T23:46:17Z</time></trkpt><trkpt lat="59.3505368941" lon="34.6701259352"><ele>164.16</ele><time>2026-08-14T23:46:38Z</time></trkpt><trkpt lat="59.3505200464" lon="34.6699376777"><ele>161.94</ele><time>2026-08-14T23:46:59Z</time></trkpt><trkpt lat="59.3505572621" lon="34.6699758153"><ele>162.58</ele><time>2026-08-14T23:47:33Z</time></trkpt><trkpt lat="59.3505934719" lon="34.6699901484"><ele>164.77</ele><time>2026-08-14T23:48:05Z</time></trkpt><trkpt lat="59.3505691644" lon="34.6699828561"><ele>166.59</ele><time>2026-08-14T23:48:34Z</time></trkpt><trkpt lat="59.3505461980" lon="34.6699431259"><ele>168.16</ele><time>2026-08-14T23:49:08Z</time></trkpt><trkpt lat="59.3505356368" lon="34.6700256877"><ele>172.46</ele><time>2026-08-14T23:49:42Z</time></trkpt><trkpt lat="59.3505178671" lon="34.6700536832"><ele>174.80</ele><time>2026-08-14T23:50:11Z</time></trkpt><trkpt lat="59.3505393248" lon="34.6700271964"><ele>175.08</ele><time>2026-08-14T23:50:46Z</time></trkpt><trkpt lat="59.3505292665" lon="34.6699835267"><ele>173.29</ele><time>2026-08-14T23:51:15Z</time></trkpt><trkpt lat="59.3505331222" lon="34.6699969377"><ele>172.47</ele><time>2026-08-14T23:51:46Z</time></trkpt><trkpt lat="59.3504971638" lon="34.6700002067"><ele>170.60</ele><time>2026-08-14T23:52:13Z</time></trkpt><trkpt lat="59.3505507242" lon="34.6699664276"><ele>174.40</ele><time>2026-08-14T23:52:40Z</time></trkpt><trkpt lat="59.3505441025" lon="34.6698924992"><ele>176.74</ele><time>2026-08-14T23:53:12Z</time></trkpt><trkpt lat="59.3505508918" lon="34.6699026413"><ele>177.29</ele><time>2026-08-14T23:53:43Z</time></trkpt><trkpt lat="59.3505195435" lon="34.6699780785"><ele>177.64</ele><time>2026-08-14T23:54:09Z</time></trkpt><trkpt lat="59.3505108263" lon="34.6699256916"><ele>176.36</ele><time>2026-08-14T23:54:36Z</time></trkpt><trkpt lat="59.3505854253" lon="34.6696228534"><ele>175.08</ele><time>2026-08-14T23:54:57Z</time></trkpt><trkpt lat="59.3505864311" lon="34.6692988090"><ele>172.71</ele><time>2026-08-14T23:55:19Z</time></trkpt><trkpt lat="59.3505959027" lon="34.6689769439"><ele>169.77</ele><time>2026-08-14T23:55:41Z</time></trkpt><trkpt lat="59.3505706731" lon="34.6687019337"><ele>166.20</ele><time>2026-08-14T23:56:01Z</time></trkpt><trkpt lat="59.3505325355" lon="34.6684901230"><ele>162.70</ele><time>2026-08-14T23:56:20Z</time></trkpt><trkpt lat="59.3505129218" lon="34.6684355568"><ele>163.57</ele><time>2026-08-14T23:56:48Z</time></trkpt><trkpt lat="59.3504682463" lon="34.6684927214"><ele>164.33</ele><time>2026-08-14T23:57:19Z</time></trkpt><trkpt lat="59.3504534103" lon="34.6684047114"><ele>168.49</ele><time>2026-08-14T23:57:52Z</time></trkpt><trkpt lat="59.3504272588" lon="34.6683650650"><ele>173.22</ele><time>2026-08-14T23:58:24Z</time></trkpt><trkpt lat="59.3504280131" lon="34.6683403384"><ele>178.47</ele><time>2026-08-14T23:58:56Z</time></trkpt><trkpt lat="59.3504360598" lon="34.6683101635"><ele>176.37</ele><time>2026-08-14T23:59:25Z</time></trkpt><trkpt lat="59.3504675757" lon="34.6683391649"><ele>175.96</ele><time>2026-08-14T23:59:47Z</time></trkpt><trkpt lat="59.3504807353" lon="34.6683690045"><ele>175.86</ele><time>2026-08-15T00:00:11Z</time></trkpt><trkpt lat="59.3504839204" lon="34.6683793142"><ele>173.50</ele><time>2026-08-15T00:00:41Z</time></trkpt><trkpt lat="59.3505213037" lon="34.6683534980"><ele>171.45</ele><time>2026-08-15T00:01:12Z</time></trkpt><trkpt lat="59.3505467009" lon="34.6683979221"><ele>169.83</ele><time>2026-08-15T00:01:41Z</time></trkpt><trkpt lat="59.3505916279" lon="34.6684040409"><ele>169.58</ele><time>2026-08-15T00:02:08Z</time></trkpt><trkpt lat="59.3505495507" lon="34.6683206409"><ele>168.51</ele><time>2026-08-15T00:02:30Z</time></trkpt><trkpt lat="59.3505304400" lon="34.6683486365"><ele>168.39</ele><time>2026-08-15T00:02:58Z</time></trkpt><trkpt lat="59.3504691683" lon="34.6684007719"><ele>167.99</ele><time>2026-08-15T00:03:20Z</time></trkpt><trkpt lat="59.3504293542" lon="34.6684371494"><ele>164.99</ele><time>2026-08-15T00:03:53Z</time></trkpt><trkpt lat="59.3504268397" lon="34.6684219781"><ele>165.65</ele><time>2026-08-15T00:04:28Z</time></trkpt><trkpt lat="59.3504803162" lon="34.6683637239"><ele>167.13</ele><time>2026-08-15T00:05:01Z</time></trkpt><trkpt lat="59.3504265882" lon="34.6683633048"><ele>167.13</ele><time>2026-08-15T00:05:45Z</time></trkpt><trkpt lat="59.3504818249" lon="34.6683840919"><ele>165.70</ele><time>2026-08-15T00:06:43Z</time></trkpt><trkpt lat="59.3504405860" lon="34.6683704294"><ele>173.24</ele><time>2026-08-15T00:07:12Z</time></trkpt><trkpt lat="59.3503947370" lon="34.6684049629"><ele>175.32</ele><time>2026-08-15T00:07:39Z</time></trkpt><trkpt lat="59.3504089862" lon="34.6684154402"><ele>174.28</ele><time>2026-08-15T00:08:12Z</time></trkpt><trkpt lat="59.3503500614" lon="34.6682721935"><ele>173.29</ele><time>2026-08-15T00:08:40Z</time></trkpt><trkpt lat="59.3503519893" lon="34.6681580320"><ele>172.40</ele><time>2026-08-15T00:08:56Z</time></trkpt><trkpt lat="59.3503368180" lon="34.6681547631"><ele>171.14</ele><time>2026-08-15T00:09:19Z</time></trkpt><trkpt lat="59.3502995186" lon="34.6681389213"><ele>169.77</ele><time>2026-08-15T00:09:46Z</time></trkpt><trkpt lat="59.3502507359" lon="34.6681741253"><ele>168.88</ele><time>2026-08-15T00:10:05Z</time></trkpt><trkpt lat="59.3501782324" lon="34.6681383345"><ele>168.66</ele><time>2026-08-15T00:10:26Z</time></trkpt><trkpt lat="59.3501852732" lon="34.6682187170"><ele>167.70</ele><time>2026-08-15T00:10:54Z</time></trkpt><trkpt lat="59.3500847742" lon="34.6683083195"><ele>167.11</ele><time>2026-08-15T00:11:25Z</time></trkpt><trkpt lat="59.3500405177" lon="34.6682051383"><ele>167.23</ele><time>2026-08-15T00:11:52Z</time></trkpt><trkpt lat="59.3500722013" lon="34.6683385782"><ele>166.96</ele><time>2026-08-15T00:12:23Z</time></trkpt><trkpt lat="59.3500055652" lon="34.6683374885"><ele>166.99</ele><time>2026-08-15T00:12:55Z</time></trkpt><trkpt lat="59.3500125222" lon="34.6682887059"><ele>165.46</ele><time>2026-08-15T00:13:23Z</time></trkpt><trkpt lat="59.3500048947" lon="34.6683022846"><ele>165.81</ele><time>2026-08-15T00:13:33Z</time></trkpt><trkpt lat="59.3500188086" lon="34.6682611294"><ele>167.14</ele><time>2026-08-15T00:14:01Z</time></trkpt><trkpt lat="59.3500219937" lon="34.6683125943"><ele>166.91</ele><time>2026-08-15T00:14:36Z</time></trkpt><trkpt lat="59.3500170484" lon="34.6682782285"><ele>166.01</ele><time>2026-08-15T00:15:04Z</time></trkpt><trkpt lat="59.3500152044" lon="34.6682451200"><ele>165.81</ele><time>2026-08-15T00:15:34Z</time></trkpt><trkpt lat="59.3500022124" lon="34.6682538372"><ele>164.79</ele><time>2026-08-15T00:16:06Z</time></trkpt><trkpt lat="59.3500209041" lon="34.6683102474"><ele>165.61</ele><time>2026-08-15T00:16:34Z</time></trkpt><trkpt lat="59.3500361592" lon="34.6683733631"><ele>167.96</ele><time>2026-08-15T00:16:52Z</time></trkpt><trkpt lat="59.3499897234" lon="34.6684912965"><ele>168.64</ele><time>2026-08-15T00:17:14Z</time></trkpt><trkpt lat="59.3500380870" lon="34.6685718466"><ele>168.44</ele><time>2026-08-15T00:17:39Z</time></trkpt><trkpt lat="59.3500908930" lon="34.6685253270"><ele>167.17</ele><time>2026-08-15T00:17:57Z</time></trkpt><trkpt lat="59.3500841875" lon="34.6684119198"><ele>165.36</ele><time>2026-08-15T00:18:20Z</time></trkpt><trkpt lat="59.3501053099" lon="34.6683596168"><ele>166.19</ele><time>2026-08-15T00:18:53Z</time></trkpt><trkpt lat="59.3500861153" lon="34.6682918072"><ele>166.31</ele><time>2026-08-15T00:19:25Z</time></trkpt><trkpt lat="59.3500727043" lon="34.6682980936"><ele>166.80</ele><time>2026-08-15T00:19:57Z</time></trkpt><trkpt lat="59.3500966765" lon="34.6682800725"><ele>168.13</ele><time>2026-08-15T00:20:17Z</time></trkpt><trkpt lat="59.3501933198" lon="34.6683451999"><ele>167.56</ele><time>2026-08-15T00:20:35Z</time></trkpt><trkpt lat="59.3502099998" lon="34.6684208885"><ele>167.64</ele><time>2026-08-15T00:20:55Z</time></trkpt><trkpt lat="59.3502363190" lon="34.6684266720"><ele>168.88</ele><time>2026-08-15T00:21:25Z</time></trkpt><trkpt lat="59.3502624705" lon="34.6683890373"><ele>170.42</ele><time>2026-08-15T00:21:56Z</time></trkpt><trkpt lat="59.3502773065" lon="34.6683766320"><ele>170.62</ele><time>2026-08-15T00:22:28Z</time></trkpt><trkpt lat="59.3502963334" lon="34.6684153564"><ele>171.35</ele><time>2026-08-15T00:22:49Z</time></trkpt><trkpt lat="59.3504019454" lon="34.6685171127"><ele>170.99</ele><time>2026-08-15T00:23:11Z</time></trkpt><trkpt lat="59.3504696712" lon="34.6686454397"><ele>170.79</ele><time>2026-08-15T00:23:28Z</time></trkpt><trkpt lat="59.3505110778" lon="34.6688252315"><ele>170.39</ele><time>2026-08-15T00:23:47Z</time></trkpt><trkpt lat="59.3505374808" lon="34.6686167736"><ele>166.58</ele><time>2026-08-15T00:24:06Z</time></trkpt><trkpt lat="59.3504826631" lon="34.6683182940"><ele>164.23</ele><time>2026-08-15T00:24:30Z</time></trkpt><trkpt lat="59.3504795618" lon="34.6682398394"><ele>166.14</ele><time>2026-08-15T00:25:03Z</time></trkpt><trkpt lat="59.3505254947" lon="34.6680637356"><ele>165.60</ele><time>2026-08-15T00:25:20Z</time></trkpt><trkpt lat="59.3505355529" lon="34.6680414397"><ele>165.52</ele><time>2026-08-15T00:25:22Z</time></trkpt><trkpt lat="59.3506474514" lon="34.6675618272"><ele>164.53</ele><time>2026-08-15T00:25:45Z</time></trkpt><trkpt lat="59.3507033587" lon="34.6673160698"><ele>163.64</ele><time>2026-08-15T00:26:08Z</time></trkpt><trkpt lat="59.3506869301" lon="34.6672185883"><ele>162.86</ele><time>2026-08-15T00:26:33Z</time></trkpt><trkpt lat="59.3506901991" lon="34.6671419777"><ele>162.86</ele><time>2026-08-15T00:27:01Z</time></trkpt><trkpt lat="59.3507213797" lon="34.6672318317"><ele>164.88</ele><time>2026-08-15T00:27:31Z</time></trkpt><trkpt lat="59.3507777061" lon="34.6672615875"><ele>163.37</ele><time>2026-08-15T00:28:02Z</time></trkpt><trkpt lat="59.3507516384" lon="34.6672009863"><ele>165.73</ele><time>2026-08-15T00:28:31Z</time></trkpt><trkpt lat="59.3507018499" lon="34.6672600787"><ele>167.53</ele><time>2026-08-15T00:29:02Z</time></trkpt><trkpt lat="59.3506723456" lon="34.6673312411"><ele>169.21</ele><time>2026-08-15T00:29:35Z</time></trkpt><trkpt lat="59.3507059570" lon="34.6672973782"><ele>168.33</ele><time>2026-08-15T00:30:06Z</time></trkpt><trkpt lat="59.3507359643" lon="34.6672080271"><ele>167.42</ele><time>2026-08-15T00:30:33Z</time></trkpt><trkpt lat="59.3507698271" lon="34.6671914309"><ele>167.10</ele><time>2026-08-15T00:30:57Z</time></trkpt><trkpt lat="59.3507679831" lon="34.6671477612"><ele>166.18</ele><time>2026-08-15T00:31:32Z</time></trkpt><trkpt lat="59.3507756945" lon="34.6671507787"><ele>165.14</ele><time>2026-08-15T00:32:00Z</time></trkpt><trkpt lat="59.3507673126" lon="34.6670154110"><ele>166.33</ele><time>2026-08-15T00:32:17Z</time></trkpt><trkpt lat="59.3508154247" lon="34.6669399738"><ele>166.90</ele><time>2026-08-15T00:32:39Z</time></trkpt><trkpt lat="59.3508385587" lon="34.6669318434"><ele>165.74</ele><time>2026-08-15T00:32:55Z</time></trkpt><trkpt lat="59.3508537300" lon="34.6669109724"><ele>165.58</ele><time>2026-08-15T00:33:23Z</time></trkpt><trkpt lat="59.3508303445" lon="34.6668887604"><ele>165.13</ele><time>2026-08-15T00:33:53Z</time></trkpt><trkpt lat="59.3508453481" lon="34.6668762714"><ele>164.97</ele><time>2026-08-15T00:34:13Z</time></trkpt><trkpt lat="59.3508150894" lon="34.6667274088"><ele>165.43</ele><time>2026-08-15T00:34:33Z</time></trkpt><trkpt lat="59.3508185260" lon="34.6665956452"><ele>164.63</ele><time>2026-08-15T00:34:56Z</time></trkpt><trkpt lat="59.3508132454" lon="34.6665054560"><ele>164.46</ele><time>2026-08-15T00:35:17Z</time></trkpt><trkpt lat="59.3507977389" lon="34.6664224751"><ele>166.75</ele><time>2026-08-15T00:35:35Z</time></trkpt><trkpt lat="59.3507765327" lon="34.6663264185"><ele>168.03</ele><time>2026-08-15T00:35:58Z</time></trkpt><trkpt lat="59.3507345393" lon="34.6663360577"><ele>167.86</ele><time>2026-08-15T00:36:35Z</time></trkpt><trkpt lat="59.3507261574" lon="34.6663548332"><ele>166.75</ele><time>2026-08-15T00:37:06Z</time></trkpt><trkpt lat="59.3507781252" lon="34.6663130913"><ele>167.29</ele><time>2026-08-15T00:37:33Z</time></trkpt><trkpt lat="59.3507773709" lon="34.6662921365"><ele>168.64</ele><time>2026-08-15T00:37:50Z</time></trkpt><trkpt lat="59.3506819848" lon="34.6663262509"><ele>169.11</ele><time>2026-08-15T00:38:24Z</time></trkpt><trkpt lat="59.3506614491" lon="34.6663036197"><ele>169.16</ele><time>2026-08-15T00:38:54Z</time></trkpt><trkpt lat="59.3507184461" lon="34.6663166955"><ele>169.36</ele><time>2026-08-15T00:39:26Z</time></trkpt><trkpt lat="59.3507040292" lon="34.6662326250"><ele>172.22</ele><time>2026-08-15T00:40:05Z</time></trkpt><trkpt lat="59.3507259898" lon="34.6663629636"><ele>170.64</ele><time>2026-08-15T00:40:38Z</time></trkpt><trkpt lat="59.3507342879" lon="34.6663302742"><ele>170.96</ele><time>2026-08-15T00:41:14Z</time></trkpt><trkpt lat="59.3506903667" lon="34.6662482154"><ele>171.51</ele><time>2026-08-15T00:41:49Z</time></trkpt><trkpt lat="59.3507033587" lon="34.6662417613"><ele>175.83</ele><time>2026-08-15T00:42:20Z</time></trkpt><trkpt lat="59.3507394008" lon="34.6662805695"><ele>176.53</ele><time>2026-08-15T00:42:51Z</time></trkpt><trkpt lat="59.3507364672" lon="34.6663161926"><ele>175.92</ele><time>2026-08-15T00:43:32Z</time></trkpt><trkpt lat="59.3507142551" lon="34.6663262509"><ele>174.90</ele><time>2026-08-15T00:44:06Z</time></trkpt><trkpt lat="59.3506824039" lon="34.6662765462"><ele>175.17</ele><time>2026-08-15T00:44:38Z</time></trkpt><trkpt lat="59.3506781291" lon="34.6662494726"><ele>176.41</ele><time>2026-08-15T00:45:07Z</time></trkpt><trkpt lat="59.3507806398" lon="34.6661636420"><ele>174.89</ele><time>2026-08-15T00:45:29Z</time></trkpt><trkpt lat="59.3508416601" lon="34.6662306134"><ele>173.60</ele><time>2026-08-15T00:45:54Z</time></trkpt><trkpt lat="59.3508490361" lon="34.6664438490"><ele>173.05</ele><time>2026-08-15T00:46:53Z</time></trkpt><trkpt lat="59.3508256506" lon="34.6662767977"><ele>172.20</ele><time>2026-08-15T00:47:22Z</time></trkpt><trkpt lat="59.3508129101" lon="34.6660485584"><ele>170.73</ele><time>2026-08-15T00:47:46Z</time></trkpt><trkpt lat="59.3508577533" lon="34.6658196487"><ele>169.80</ele><time>2026-08-15T00:48:06Z</time></trkpt><trkpt lat="59.3508960586" lon="34.6657293756"><ele>169.40</ele><time>2026-08-15T00:48:24Z</time></trkpt><trkpt lat="59.3509164266" lon="34.6654760744"><ele>168.79</ele><time>2026-08-15T00:48:44Z</time></trkpt><trkpt lat="59.3509045243" lon="34.6654516831"><ele>167.93</ele><time>2026-08-15T00:49:10Z</time></trkpt><trkpt lat="59.3508863356" lon="34.6655518468"><ele>167.47</ele><time>2026-08-15T00:49:43Z</time></trkpt><trkpt lat="59.3507351261" lon="34.6656284574"><ele>167.25</ele><time>2026-08-15T00:50:15Z</time></trkpt><trkpt lat="59.3509554025" lon="34.6654939279"><ele>170.89</ele><time>2026-08-15T00:50:46Z</time></trkpt><trkpt lat="59.3509173486" lon="34.6653858852"><ele>170.55</ele><time>2026-08-15T00:51:19Z</time></trkpt><trkpt lat="59.3509022612" lon="34.6653674450"><ele>170.11</ele><time>2026-08-15T00:51:57Z</time></trkpt><trkpt lat="59.3508635368" lon="34.6654277109"><ele>169.17</ele><time>2026-08-15T00:52:33Z</time></trkpt><trkpt lat="59.3509189412" lon="34.6654667705"><ele>167.96</ele><time>2026-08-15T00:53:06Z</time></trkpt><trkpt lat="59.3509257305" lon="34.6653950214"><ele>168.68</ele><time>2026-08-15T00:53:26Z</time></trkpt><trkpt lat="59.3509268202" lon="34.6652449016"><ele>169.13</ele><time>2026-08-15T00:53:48Z</time></trkpt><trkpt lat="59.3508986570" lon="34.6649586596"><ele>166.86</ele><time>2026-08-15T00:54:12Z</time></trkpt><trkpt lat="59.3509276584" lon="34.6646986529"><ele>165.22</ele><time>2026-08-15T00:54:32Z</time></trkpt><trkpt lat="59.3509848230" lon="34.6645234711"><ele>164.58</ele><time>2026-08-15T00:54:51Z</time></trkpt><trkpt lat="59.3510056101" lon="34.6644890215"><ele>163.46</ele><time>2026-08-15T00:55:12Z</time></trkpt><trkpt lat="59.3509781174" lon="34.6644798014"><ele>163.42</ele><time>2026-08-15T00:55:36Z</time></trkpt><trkpt lat="59.3509500381" lon="34.6644114051"><ele>163.35</ele><time>2026-08-15T00:56:07Z</time></trkpt><trkpt lat="59.3509800453" lon="34.6644410770"><ele>161.00</ele><time>2026-08-15T00:56:37Z</time></trkpt><trkpt lat="59.3509949651" lon="34.6644696593"><ele>160.29</ele><time>2026-08-15T00:57:08Z</time></trkpt><trkpt lat="59.3509740103" lon="34.6644172724"><ele>160.62</ele><time>2026-08-15T00:57:39Z</time></trkpt><trkpt lat="59.3509614374" lon="34.6643555816"><ele>158.24</ele><time>2026-08-15T00:58:20Z</time></trkpt><trkpt lat="59.3509739265" lon="34.6644171048"><ele>156.96</ele><time>2026-08-15T00:58:46Z</time></trkpt><trkpt lat="59.3509709090" lon="34.6644694079"><ele>155.70</ele><time>2026-08-15T00:59:21Z</time></trkpt><trkpt lat="59.3509710766" lon="34.6644769516"><ele>154.89</ele><time>2026-08-15T00:59:55Z</time></trkpt><trkpt lat="59.3509960547" lon="34.6645071264"><ele>154.28</ele><time>2026-08-15T01:00:25Z</time></trkpt><trkpt lat="59.3510173447" lon="34.6643423382"><ele>154.02</ele><time>2026-08-15T01:00:50Z</time></trkpt><trkpt lat="59.3510405626" lon="34.6642424259"><ele>153.74</ele><time>2026-08-15T01:01:21Z</time></trkpt><trkpt lat="59.3510315940" lon="34.6642181184"><ele>154.27</ele><time>2026-08-15T01:01:47Z</time></trkpt><trkpt lat="59.3510617688" lon="34.6641644742"><ele>153.58</ele><time>2026-08-15T01:02:10Z</time></trkpt><trkpt lat="59.3511098810" lon="34.6640077326"><ele>151.92</ele><time>2026-08-15T01:02:30Z</time></trkpt><trkpt lat="59.3510989845" lon="34.6639742889"><ele>153.23</ele><time>2026-08-15T01:03:00Z</time></trkpt><trkpt lat="59.3510833103" lon="34.6638408490"><ele>153.07</ele><time>2026-08-15T01:03:34Z</time></trkpt><trkpt lat="59.3510767724" lon="34.6638282761"><ele>153.38</ele><time>2026-08-15T01:04:03Z</time></trkpt><trkpt lat="59.3510695640" lon="34.6637970116"><ele>153.28</ele><time>2026-08-15T01:04:33Z</time></trkpt><trkpt lat="59.3511059415" lon="34.6639166214"><ele>152.81</ele><time>2026-08-15T01:05:11Z</time></trkpt><trkpt lat="59.3510866631" lon="34.6639718581"><ele>152.99</ele><time>2026-08-15T01:05:44Z</time></trkpt><trkpt lat="59.3511067796" lon="34.6639256738"><ele>154.39</ele><time>2026-08-15T01:06:13Z</time></trkpt><trkpt lat="59.3511134852" lon="34.6639061440"><ele>154.28</ele><time>2026-08-15T01:06:40Z</time></trkpt><trkpt lat="59.3510874175" lon="34.6638915595"><ele>155.51</ele><time>2026-08-15T01:07:02Z</time></trkpt><trkpt lat="59.3510328513" lon="34.6638117637"><ele>156.65</ele><time>2026-08-15T01:07:20Z</time></trkpt><trkpt lat="59.3509980664" lon="34.6637592092"><ele>157.24</ele><time>2026-08-15T01:07:38Z</time></trkpt><trkpt lat="59.3509227969" lon="34.6636647452"><ele>158.37</ele><time>2026-08-15T01:08:00Z</time></trkpt><trkpt lat="59.3508419953" lon="34.6635298803"><ele>159.39</ele><time>2026-08-15T01:08:19Z</time></trkpt><trkpt lat="59.3507539015" lon="34.6635097638"><ele>159.72</ele><time>2026-08-15T01:08:37Z</time></trkpt><trkpt lat="59.3506996706" lon="34.6634196583"><ele>159.63</ele><time>2026-08-15T01:08:56Z</time></trkpt><trkpt lat="59.3505732715" lon="34.6634632442"><ele>159.94</ele><time>2026-08-15T01:09:29Z</time></trkpt><trkpt lat="59.3505305238" lon="34.6635644976"><ele>160.40</ele><time>2026-08-15T01:09:45Z</time></trkpt><trkpt lat="59.3504390772" lon="34.6636272781"><ele>160.17</ele><time>2026-08-15T01:10:18Z</time></trkpt><trkpt lat="59.3504559249" lon="34.6635605581"><ele>160.95</ele><time>2026-08-15T01:10:47Z</time></trkpt><trkpt lat="59.3505413365" lon="34.6635082550"><ele>166.07</ele><time>2026-08-15T01:11:18Z</time></trkpt><trkpt lat="59.3505443539" lon="34.6635447163"><ele>167.27</ele><time>2026-08-15T01:11:50Z</time></trkpt><trkpt lat="59.3505534902" lon="34.6635663416"><ele>168.61</ele><time>2026-08-15T01:12:19Z</time></trkpt><trkpt lat="59.3505656440" lon="34.6635169722"><ele>167.46</ele><time>2026-08-15T01:12:47Z</time></trkpt><trkpt lat="59.3506265804" lon="34.6635195706"><ele>164.80</ele><time>2026-08-15T01:13:15Z</time></trkpt><trkpt lat="59.3506438471" lon="34.6634995379"><ele>162.53</ele><time>2026-08-15T01:13:45Z</time></trkpt><trkpt lat="59.3506486248" lon="34.6635598037"><ele>162.09</ele><time>2026-08-15T01:14:13Z</time></trkpt><trkpt lat="59.3506583478" lon="34.6635631565"><ele>160.50</ele><time>2026-08-15T01:14:56Z</time></trkpt><trkpt lat="59.3506632093" lon="34.6635001246"><ele>159.68</ele><time>2026-08-15T01:15:22Z</time></trkpt><trkpt lat="59.3506468646" lon="34.6635357477"><ele>158.57</ele><time>2026-08-15T01:15:52Z</time></trkpt><trkpt lat="59.3506354652" lon="34.6636478975"><ele>158.30</ele><time>2026-08-15T01:16:10Z</time></trkpt><trkpt lat="59.3506974075" lon="34.6638459619"><ele>158.34</ele><time>2026-08-15T01:16:30Z</time></trkpt><trkpt lat="59.3507385626" lon="34.6640265919"><ele>157.77</ele><time>2026-08-15T01:16:57Z</time></trkpt><trkpt lat="59.3507425021" lon="34.6641221456"><ele>158.06</ele><time>2026-08-15T01:17:18Z</time></trkpt><trkpt lat="59.3507072143" lon="34.6642821562"><ele>158.92</ele><time>2026-08-15T01:17:41Z</time></trkpt><trkpt lat="59.3506662268" lon="34.6643830743"><ele>159.88</ele><time>2026-08-15T01:17:57Z</time></trkpt><trkpt lat="59.3506579287" lon="34.6644525602"><ele>160.26</ele><time>2026-08-15T01:18:19Z</time></trkpt><trkpt lat="59.3506284244" lon="34.6644632891"><ele>160.73</ele><time>2026-08-15T01:18:43Z</time></trkpt><trkpt lat="59.3506099842" lon="34.6644768678"><ele>160.70</ele><time>2026-08-15T01:18:46Z</time></trkpt><trkpt lat="59.3507311027" lon="34.6644522250"><ele>160.76</ele><time>2026-08-15T01:19:21Z</time></trkpt><trkpt lat="59.3507274147" lon="34.6644719224"><ele>163.57</ele><time>2026-08-15T01:19:51Z</time></trkpt><trkpt lat="59.3507209606" lon="34.6644963976"><ele>164.40</ele><time>2026-08-15T01:20:27Z</time></trkpt><trkpt lat="59.3506186176" lon="34.6645459346"><ele>164.37</ele><time>2026-08-15T01:21:02Z</time></trkpt><trkpt lat="59.3506319448" lon="34.6645513829"><ele>165.12</ele><time>2026-08-15T01:21:30Z</time></trkpt><trkpt lat="59.3506412487" lon="34.6646298375"><ele>165.54</ele><time>2026-08-15T01:21:48Z</time></trkpt><trkpt lat="59.3506483734" lon="34.6646253951"><ele>165.59</ele><time>2026-08-15T01:21:49Z</time></trkpt><trkpt lat="59.3508216273" lon="34.6646398958"><ele>166.35</ele><time>2026-08-15T01:22:22Z</time></trkpt><trkpt lat="59.3508018460" lon="34.6646670531"><ele>165.98</ele><time>2026-08-15T01:22:54Z</time></trkpt><trkpt lat="59.3507043645" lon="34.6646041889"><ele>169.41</ele><time>2026-08-15T01:23:22Z</time></trkpt><trkpt lat="59.3507291749" lon="34.6645327751"><ele>167.18</ele><time>2026-08-15T01:23:50Z</time></trkpt><trkpt lat="59.3507797178" lon="34.6645569988"><ele>166.62</ele><time>2026-08-15T01:24:24Z</time></trkpt><trkpt lat="59.3507290073" lon="34.6647609305"><ele>166.30</ele><time>2026-08-15T01:24:47Z</time></trkpt><trkpt lat="59.3506466132" lon="34.6648507845"><ele>167.12</ele><time>2026-08-15T01:25:10Z</time></trkpt><trkpt lat="59.3506332859" lon="34.6650407184"><ele>168.43</ele><time>2026-08-15T01:25:28Z</time></trkpt><trkpt lat="59.3506531511" lon="34.6651291475"><ele>169.44</ele><time>2026-08-15T01:25:47Z</time></trkpt><trkpt lat="59.3506336212" lon="34.6652399562"><ele>169.89</ele><time>2026-08-15T01:26:06Z</time></trkpt><trkpt lat="59.3506479543" lon="34.6653112024"><ele>173.01</ele><time>2026-08-15T01:26:35Z</time></trkpt><trkpt lat="59.3506619520" lon="34.6652887389"><ele>174.69</ele><time>2026-08-15T01:27:07Z</time></trkpt><trkpt lat="59.3506885227" lon="34.6653157286"><ele>173.67</ele><time>2026-08-15T01:27:38Z</time></trkpt><trkpt lat="59.3505938072" lon="34.6653134655"><ele>173.63</ele><time>2026-08-15T01:28:10Z</time></trkpt><trkpt lat="59.3506669812" lon="34.6653297264"><ele>176.98</ele><time>2026-08-15T01:28:35Z</time></trkpt><trkpt lat="59.3507264089" lon="34.6652648505"><ele>177.38</ele><time>2026-08-15T01:28:59Z</time></trkpt><trkpt lat="59.3507114891" lon="34.6652269643"><ele>177.31</ele><time>2026-08-15T01:29:30Z</time></trkpt><trkpt lat="59.3507106509" lon="34.6652827878"><ele>176.82</ele><time>2026-08-15T01:29:58Z</time></trkpt><trkpt lat="59.3506466970" lon="34.6653610747"><ele>175.44</ele><time>2026-08-15T01:30:30Z</time></trkpt><trkpt lat="59.3506684899" lon="34.6653796826"><ele>176.32</ele><time>2026-08-15T01:30:53Z</time></trkpt><trkpt lat="59.3505077250" lon="34.6655498352"><ele>175.74</ele><time>2026-08-15T01:31:14Z</time></trkpt><trkpt lat="59.3504874408" lon="34.6655747294"><ele>175.85</ele><time>2026-08-15T01:31:18Z</time></trkpt><trkpt lat="59.3504276779" lon="34.6658448782"><ele>175.70</ele><time>2026-08-15T01:31:41Z</time></trkpt><trkpt lat="59.3503837567" lon="34.6660408471"><ele>175.32</ele><time>2026-08-15T01:32:01Z</time></trkpt><trkpt lat="59.3503524084" lon="34.6661935654"><ele>174.57</ele><time>2026-08-15T01:32:20Z</time></trkpt><trkpt lat="59.3504092377" lon="34.6661354788"><ele>175.79</ele><time>2026-08-15T01:32:51Z</time></trkpt><trkpt lat="59.3504771311" lon="34.6661048848"><ele>175.27</ele><time>2026-08-15T01:33:20Z</time></trkpt><trkpt lat="59.3504707608" lon="34.6661336347"><ele>174.48</ele><time>2026-08-15T01:33:51Z</time></trkpt><trkpt lat="59.3504510634" lon="34.6661017835"><ele>174.25</ele><time>2026-08-15T01:34:20Z</time></trkpt><trkpt lat="59.3503792305" lon="34.6661706828"><ele>173.79</ele><time>2026-08-15T01:34:48Z</time></trkpt><trkpt lat="59.3504795618" lon="34.6661704313"><ele>173.33</ele><time>2026-08-15T01:35:15Z</time></trkpt><trkpt lat="59.3505104072" lon="34.6661597863"><ele>175.16</ele><time>2026-08-15T01:35:44Z</time></trkpt><trkpt lat="59.3504388258" lon="34.6661956608"><ele>177.12</ele><time>2026-08-15T01:36:12Z</time></trkpt><trkpt lat="59.3503836729" lon="34.6662545018"><ele>173.71</ele><time>2026-08-15T01:36:37Z</time></trkpt><trkpt lat="59.3503613770" lon="34.6664491296"><ele>173.27</ele><time>2026-08-15T01:36:58Z</time></trkpt><trkpt lat="59.3503935635" lon="34.6666362137"><ele>173.95</ele><time>2026-08-15T01:37:16Z</time></trkpt><trkpt lat="59.3504402507" lon="34.6667979006"><ele>175.11</ele><time>2026-08-15T01:37:36Z</time></trkpt><trkpt lat="59.3504318688" lon="34.6669232938"><ele>175.86</ele><time>2026-08-15T01:37:54Z</time></trkpt><trkpt lat="59.3504346348" lon="34.6670403890"><ele>176.41</ele><time>2026-08-15T01:38:08Z</time></trkpt><trkpt lat="59.3504674081" lon="34.6671449952"><ele>176.58</ele><time>2026-08-15T01:38:26Z</time></trkpt><trkpt lat="59.3504790589" lon="34.6672281437"><ele>176.89</ele><time>2026-08-15T01:38:44Z</time></trkpt><trkpt lat="59.3505390733" lon="34.6671853121"><ele>177.87</ele><time>2026-08-15T01:39:12Z</time></trkpt><trkpt lat="59.3505586870" lon="34.6671894193"><ele>177.86</ele><time>2026-08-15T01:39:49Z</time></trkpt><trkpt lat="59.3505323678" lon="34.6672053449"><ele>177.29</ele><time>2026-08-15T01:40:19Z</time></trkpt><trkpt lat="59.3505378999" lon="34.6672607493"><ele>175.31</ele><time>2026-08-15T01:40:48Z</time></trkpt><trkpt lat="59.3504783046" lon="34.6672151517"><ele>176.36</ele><time>2026-08-15T01:41:20Z</time></trkpt><trkpt lat="59.3504423462" lon="34.6672635153"><ele>176.10</ele><time>2026-08-15T01:41:59Z</time></trkpt><trkpt lat="59.3504346348" lon="34.6672998928"><ele>176.63</ele><time>2026-08-15T01:42:27Z</time></trkpt><trkpt lat="59.3504683301" lon="34.6672933549"><ele>175.99</ele><time>2026-08-15T01:42:52Z</time></trkpt><trkpt lat="59.3504570145" lon="34.6672897507"><ele>173.89</ele><time>2026-08-15T01:43:19Z</time></trkpt><trkpt lat="59.3504995108" lon="34.6672578994"><ele>174.67</ele><time>2026-08-15T01:43:46Z</time></trkpt><trkpt lat="59.3504708447" lon="34.6673039161"><ele>175.06</ele><time>2026-08-15T01:44:08Z</time></trkpt><trkpt lat="59.3504720181" lon="34.6673360188"><ele>174.42</ele><time>2026-08-15T01:44:31Z</time></trkpt><trkpt lat="59.3504125066" lon="34.6674281359"><ele>173.81</ele><time>2026-08-15T01:44:57Z</time></trkpt><trkpt lat="59.3504397478" lon="34.6675009746"><ele>173.20</ele><time>2026-08-15T01:45:23Z</time></trkpt><trkpt lat="59.3504496384" lon="34.6675529424"><ele>173.12</ele><time>2026-08-15T01:45:30Z</time></trkpt><trkpt lat="59.3504265882" lon="34.6676918305"><ele>173.48</ele><time>2026-08-15T01:45:48Z</time></trkpt><trkpt lat="59.3503317889" lon="34.6678199060"><ele>173.03</ele><time>2026-08-15T01:46:07Z</time></trkpt><trkpt lat="59.3502544239" lon="34.6678883862"><ele>172.10</ele><time>2026-08-15T01:46:28Z</time></trkpt><trkpt lat="59.3501869496" lon="34.6679764800"><ele>170.83</ele><time>2026-08-15T01:46:46Z</time></trkpt><trkpt lat="59.3501354847" lon="34.6680038050"><ele>170.42</ele><time>2026-08-15T01:47:06Z</time></trkpt><trkpt lat="59.3501738738" lon="34.6680562757"><ele>170.28</ele><time>2026-08-15T01:47:26Z</time></trkpt><trkpt lat="59.3501245044" lon="34.6680691838"><ele>168.90</ele><time>2026-08-15T01:47:55Z</time></trkpt><trkpt lat="59.3501598760" lon="34.6681871172"><ele>166.82</ele><time>2026-08-15T01:48:28Z</time></trkpt><trkpt lat="59.3501711916" lon="34.6680301242"><ele>164.99</ele><time>2026-08-15T01:48:58Z</time></trkpt><trkpt lat="59.3501509074" lon="34.6681157872"><ele>163.02</ele><time>2026-08-15T01:49:28Z</time></trkpt><trkpt lat="59.3501499854" lon="34.6680634841"><ele>160.40</ele><time>2026-08-15T01:49:57Z</time></trkpt><trkpt lat="59.3501442019" lon="34.6681783162"><ele>162.75</ele><time>2026-08-15T01:50:15Z</time></trkpt><trkpt lat="59.3501149490" lon="34.6683120914"><ele>165.18</ele><time>2026-08-15T01:50:36Z</time></trkpt><trkpt lat="59.3501172960" lon="34.6683102474"><ele>166.76</ele><time>2026-08-15T01:50:51Z</time></trkpt><trkpt lat="59.3501609657" lon="34.6683315374"><ele>167.95</ele><time>2026-08-15T01:51:10Z</time></trkpt><trkpt lat="59.3501489796" lon="34.6683773026"><ele>169.12</ele><time>2026-08-15T01:51:34Z</time></trkpt><trkpt lat="59.3501923140" lon="34.6683042124"><ele>172.28</ele><time>2026-08-15T01:52:04Z</time></trkpt><trkpt lat="59.3502528314" lon="34.6683641430"><ele>171.97</ele><time>2026-08-15T01:52:22Z</time></trkpt><trkpt lat="59.3503234908" lon="34.6684057172"><ele>170.48</ele><time>2026-08-15T01:52:36Z</time></trkpt><trkpt lat="59.3503784761" lon="34.6685006004"><ele>170.86</ele><time>2026-08-15T01:52:59Z</time></trkpt><trkpt lat="59.3504195474" lon="34.6684332099"><ele>175.58</ele><time>2026-08-15T01:53:27Z</time></trkpt><trkpt lat="59.3504245766" lon="34.6684792265"><ele>177.19</ele><time>2026-08-15T01:53:57Z</time></trkpt><trkpt lat="59.3504596129" lon="34.6683278494"><ele>177.36</ele><time>2026-08-15T01:54:22Z</time></trkpt><trkpt lat="59.3505287636" lon="34.6681659110"><ele>177.59</ele><time>2026-08-15T01:54:57Z</time></trkpt><trkpt lat="59.3504565116" lon="34.6683129296"><ele>177.99</ele><time>2026-08-15T01:55:30Z</time></trkpt><trkpt lat="59.3504464533" lon="34.6684606187"><ele>176.84</ele><time>2026-08-15T01:56:02Z</time></trkpt><trkpt lat="59.3504444417" lon="34.6685617045"><ele>176.52</ele><time>2026-08-15T01:56:26Z</time></trkpt><trkpt lat="59.3505016901" lon="34.6685627941"><ele>176.07</ele><time>2026-08-15T01:56:49Z</time></trkpt><trkpt lat="59.3504989240" lon="34.6685502212"><ele>175.82</ele><time>2026-08-15T01:56:56Z</time></trkpt><trkpt lat="59.3504082318" lon="34.6687107347"><ele>175.02</ele><time>2026-08-15T01:57:18Z</time></trkpt><trkpt lat="59.3503534142" lon="34.6687881835"><ele>174.14</ele><time>2026-08-15T01:57:41Z</time></trkpt><trkpt lat="59.3503129296" lon="34.6688288357"><ele>175.35</ele><time>2026-08-15T01:58:09Z</time></trkpt><trkpt lat="59.3503181264" lon="34.6689182706"><ele>175.39</ele><time>2026-08-15T01:58:27Z</time></trkpt><trkpt lat="59.3502105866" lon="34.6689068712"><ele>174.73</ele><time>2026-08-15T01:58:47Z</time></trkpt><trkpt lat="59.3501288630" lon="34.6689046081"><ele>173.16</ele><time>2026-08-15T01:59:05Z</time></trkpt><trkpt lat="59.3500898033" lon="34.6688922029"><ele>173.15</ele><time>2026-08-15T01:59:27Z</time></trkpt><trkpt lat="59.3500800803" lon="34.6688804682"><ele>174.81</ele><time>2026-08-15T01:59:53Z</time></trkpt><trkpt lat="59.3501716945" lon="34.6689995751"><ele>174.73</ele><time>2026-08-15T02:00:18Z</time></trkpt><trkpt lat="59.3501825910" lon="34.6691094618"><ele>174.93</ele><time>2026-08-15T02:00:40Z</time></trkpt><trkpt lat="59.3501607142" lon="34.6690095495"><ele>174.47</ele><time>2026-08-15T02:01:17Z</time></trkpt><trkpt lat="59.3501872849" lon="34.6689878404"><ele>174.69</ele><time>2026-08-15T02:01:59Z</time></trkpt><trkpt lat="59.3501690123" lon="34.6688838210"><ele>173.15</ele><time>2026-08-15T02:02:33Z</time></trkpt><trkpt lat="59.3501784001" lon="34.6688355412"><ele>173.67</ele><time>2026-08-15T02:03:03Z</time></trkpt><trkpt lat="59.3502358161" lon="34.6688312665"><ele>172.31</ele><time>2026-08-15T02:03:35Z</time></trkpt><trkpt lat="59.3501976784" lon="34.6688945498"><ele>173.48</ele><time>2026-08-15T02:04:11Z</time></trkpt><trkpt lat="59.3501729518" lon="34.6688186098"><ele>176.88</ele><time>2026-08-15T02:04:44Z</time></trkpt><trkpt lat="59.3501721136" lon="34.6689138282"><ele>176.81</ele><time>2026-08-15T02:05:22Z</time></trkpt><trkpt lat="59.3501240015" lon="34.6689685620"><ele>179.54</ele><time>2026-08-15T02:05:50Z</time></trkpt><trkpt lat="59.3501032144" lon="34.6689763572"><ele>174.86</ele><time>2026-08-15T02:06:30Z</time></trkpt><trkpt lat="59.3501176313" lon="34.6690552309"><ele>175.37</ele><time>2026-08-15T02:06:57Z</time></trkpt><trkpt lat="59.3501490634" lon="34.6691324282"><ele>175.74</ele><time>2026-08-15T02:07:17Z</time></trkpt><trkpt lat="59.3501745444" lon="34.6692560613"><ele>175.92</ele><time>2026-08-15T02:07:37Z</time></trkpt><trkpt lat="59.3502400909" lon="34.6693237871"><ele>176.12</ele><time>2026-08-15T02:07:55Z</time></trkpt><trkpt lat="59.3502954114" lon="34.6695058420"><ele>175.29</ele><time>2026-08-15T02:08:14Z</time></trkpt><trkpt lat="59.3503527436" lon="34.6697179042"><ele>173.86</ele><time>2026-08-15T02:08:35Z</time></trkpt><trkpt lat="59.3503951561" lon="34.6698493324"><ele>171.64</ele><time>2026-08-15T02:08:56Z</time></trkpt><trkpt lat="59.3503436912" lon="34.6699829400"><ele>171.31</ele><time>2026-08-15T02:09:14Z</time></trkpt><trkpt lat="59.3503603712" lon="34.6699593868"><ele>172.47</ele><time>2026-08-15T02:09:47Z</time></trkpt><trkpt lat="59.3503538333" lon="34.6699499153"><ele>174.28</ele><time>2026-08-15T02:10:18Z</time></trkpt><trkpt lat="59.3503611255" lon="34.6699528489"><ele>174.42</ele><time>2026-08-15T02:10:28Z</time></trkpt><trkpt lat="59.3504377361" lon="34.6699624881"><ele>177.83</ele><time>2026-08-15T02:11:04Z</time></trkpt><trkpt lat="59.3503977545" lon="34.6700489894"><ele>179.02</ele><time>2026-08-15T02:11:33Z</time></trkpt><trkpt lat="59.3503565155" lon="34.6701641567"><ele>177.90</ele><time>2026-08-15T02:11:58Z</time></trkpt><trkpt lat="59.3503012788" lon="34.6703070682"><ele>177.23</ele><time>2026-08-15T02:12:21Z</time></trkpt><trkpt lat="59.3503219821" lon="34.6705120057"><ele>177.14</ele><time>2026-08-15T02:12:43Z</time></trkpt><trkpt lat="59.3503324594" lon="34.6706503071"><ele>176.43</ele><time>2026-08-15T02:13:03Z</time></trkpt><trkpt lat="59.3503053859" lon="34.6708318591"><ele>174.39</ele><time>2026-08-15T02:13:21Z</time></trkpt><trkpt lat="59.3503109179" lon="34.6709000040"><ele>174.21</ele><time>2026-08-15T02:13:39Z</time></trkpt><trkpt lat="59.3503297772" lon="34.6708620340"><ele>174.21</ele><time>2026-08-15T02:14:11Z</time></trkpt><trkpt lat="59.3503591139" lon="34.6707694139"><ele>174.95</ele><time>2026-08-15T02:14:42Z</time></trkpt><trkpt lat="59.3503947370" lon="34.6707001794"><ele>173.66</ele><time>2026-08-15T02:15:14Z</time></trkpt><trkpt lat="59.3503833376" lon="34.6707158536"><ele>174.08</ele><time>2026-08-15T02:15:26Z</time></trkpt><trkpt lat="59.3503101636" lon="34.6708673984"><ele>172.70</ele><time>2026-08-15T02:15:53Z</time></trkpt><trkpt lat="59.3503734469" lon="34.6708689909"><ele>173.38</ele><time>2026-08-15T02:16:23Z</time></trkpt><trkpt lat="59.3503446970" lon="34.6709832363"><ele>173.42</ele><time>2026-08-15T02:16:55Z</time></trkpt><trkpt lat="59.3503395841" lon="34.6710211225"><ele>170.46</ele><time>2026-08-15T02:17:20Z</time></trkpt><trkpt lat="59.3503277656" lon="34.6709383093"><ele>170.68</ele><time>2026-08-15T02:17:54Z</time></trkpt><trkpt lat="59.3503103312" lon="34.6708609443"><ele>170.86</ele><time>2026-08-15T02:18:28Z</time></trkpt><trkpt lat="59.3503008597" lon="34.6710222960"><ele>171.62</ele><time>2026-08-15T02:18:54Z</time></trkpt><trkpt lat="59.3502774742" lon="34.6711821388"><ele>171.05</ele><time>2026-08-15T02:19:13Z</time></trkpt><trkpt lat="59.3502338044" lon="34.6714025829"><ele>170.41</ele><time>2026-08-15T02:19:34Z</time></trkpt><trkpt lat="59.3502535019" lon="34.6714969631"><ele>170.27</ele><time>2026-08-15T02:19:53Z</time></trkpt><trkpt lat="59.3502436951" lon="34.6716225240"><ele>171.19</ele><time>2026-08-15T02:20:10Z</time></trkpt><trkpt lat="59.3502562679" lon="34.6717487555"><ele>170.45</ele><time>2026-08-15T02:20:26Z</time></trkpt><trkpt lat="59.3502593692" lon="34.6717267111"><ele>170.98</ele><time>2026-08-15T02:20:53Z</time></trkpt><trkpt lat="59.3502723612" lon="34.6717876475"><ele>171.71</ele><time>2026-08-15T02:21:22Z</time></trkpt><trkpt lat="59.3502926454" lon="34.6717362665"><ele>172.67</ele><time>2026-08-15T02:21:45Z</time></trkpt><trkpt lat="59.3502970878" lon="34.6717537846"><ele>174.15</ele><time>2026-08-15T02:22:08Z</time></trkpt><trkpt lat="59.3503312021" lon="34.6717403736"><ele>175.78</ele><time>2026-08-15T02:22:41Z</time></trkpt><trkpt lat="59.3502997700" lon="34.6717032418"><ele>177.98</ele><time>2026-08-15T02:23:15Z</time></trkpt><trkpt lat="59.3502472155" lon="34.6716977097"><ele>176.93</ele><time>2026-08-15T02:23:47Z</time></trkpt><trkpt lat="59.3503033742" lon="34.6717518568"><ele>180.68</ele><time>2026-08-15T02:24:18Z</time></trkpt><trkpt lat="59.3502660748" lon="34.6718000527"><ele>181.52</ele><time>2026-08-15T02:24:49Z</time></trkpt><trkpt lat="59.3502716068" lon="34.6718637552"><ele>179.84</ele><time>2026-08-15T02:25:07Z</time></trkpt><trkpt lat="59.3502914719" lon="34.6720196586"><ele>178.60</ele><time>2026-08-15T02:25:27Z</time></trkpt><trkpt lat="59.3502816651" lon="34.6721862908"><ele>176.78</ele><time>2026-08-15T02:25:44Z</time></trkpt><trkpt lat="59.3502840120" lon="34.6724173799"><ele>174.42</ele><time>2026-08-15T02:26:04Z</time></trkpt><trkpt lat="59.3503313698" lon="34.6725570224"><ele>173.17</ele><time>2026-08-15T02:26:23Z</time></trkpt><trkpt lat="59.3503245804" lon="34.6727393288"><ele>172.44</ele><time>2026-08-15T02:26:43Z</time></trkpt><trkpt lat="59.3503451161" lon="34.6726436913"><ele>171.88</ele><time>2026-08-15T02:27:04Z</time></trkpt><trkpt lat="59.3503638078" lon="34.6726402547"><ele>171.81</ele><time>2026-08-15T02:27:36Z</time></trkpt><trkpt lat="59.3504030351" lon="34.6726349741"><ele>173.08</ele><time>2026-08-15T02:28:12Z</time></trkpt><trkpt lat="59.3503897917" lon="34.6725672483"><ele>172.89</ele><time>2026-08-15T02:28:44Z</time></trkpt><trkpt lat="59.3503277656" lon="34.6726032067"><ele>175.73</ele><time>2026-08-15T02:29:15Z</time></trkpt><trkpt lat="59.3502998538" lon="34.6726023685"><ele>174.22</ele><time>2026-08-15T02:29:47Z</time></trkpt><trkpt lat="59.3503062241" lon="34.6726574376"><ele>172.54</ele><time>2026-08-15T02:30:18Z</time></trkpt><trkpt lat="59.3503565993" lon="34.6726625506"><ele>172.79</ele><time>2026-08-15T02:30:53Z</time></trkpt><trkpt lat="59.3503760453" lon="34.6726264246"><ele>177.24</ele><time>2026-08-15T02:31:43Z</time></trkpt><trkpt lat="59.3504254986" lon="34.6726461221"><ele>176.93</ele><time>2026-08-15T02:32:18Z</time></trkpt><trkpt lat="59.3504212238" lon="34.6726752073"><ele>177.96</ele><time>2026-08-15T02:32:57Z</time></trkpt><trkpt lat="59.3503845111" lon="34.6727130096"><ele>178.73</ele><time>2026-08-15T02:33:35Z</time></trkpt><trkpt lat="59.3503734469" lon="34.6726714354"><ele>178.54</ele><time>2026-08-15T02:34:10Z</time></trkpt><trkpt lat="59.3503528275" lon="34.6727180388"><ele>177.84</ele><time>2026-08-15T02:34:38Z</time></trkpt><trkpt lat="59.3503861874" lon="34.6726608742"><ele>175.41</ele><time>2026-08-15T02:35:43Z</time></trkpt><trkpt lat="59.3503766321" lon="34.6726156119"><ele>173.94</ele><time>2026-08-15T02:36:32Z</time></trkpt><trkpt lat="59.3503610417" lon="34.6725798212"><ele>174.45</ele><time>2026-08-15T02:37:01Z</time></trkpt><trkpt lat="59.3503325433" lon="34.6725240815"><ele>177.98</ele><time>2026-08-15T02:38:00Z</time></trkpt><trkpt lat="59.3503208086" lon="34.6725302003"><ele>179.24</ele><time>2026-08-15T02:38:44Z</time></trkpt><trkpt lat="59.3503215630" lon="34.6725491434"><ele>179.53</ele><time>2026-08-15T02:39:06Z</time></trkpt><trkpt lat="59.3503358960" lon="34.6725666616"><ele>180.91</ele><time>2026-08-15T02:39:43Z</time></trkpt><trkpt lat="59.3503229041" lon="34.6725458745"><ele>180.74</ele><time>2026-08-15T02:40:36Z</time></trkpt><trkpt lat="59.3503119238" lon="34.6725643985"><ele>180.97</ele><time>2026-08-15T02:41:09Z</time></trkpt><trkpt lat="59.3503286038" lon="34.6725423541"><ele>180.78</ele><time>2026-08-15T02:41:40Z</time></trkpt><trkpt lat="59.3503222335" lon="34.6725140233"><ele>181.84</ele><time>2026-08-15T02:42:04Z</time></trkpt><trkpt lat="59.3503224850" lon="34.6725357324"><ele>181.66</ele><time>2026-08-15T02:43:05Z</time></trkpt><trkpt lat="59.3503305316" lon="34.6725172922"><ele>182.61</ele><time>2026-08-15T02:43:50Z</time></trkpt><trkpt lat="59.3503239937" lon="34.6725225728"><ele>182.45</ele><time>2026-08-15T02:44:40Z</time></trkpt><trkpt lat="59.3503230717" lon="34.6725182142"><ele>182.71</ele><time>2026-08-15T02:45:13Z</time></trkpt><trkpt lat="59.3502980098" lon="34.6725305356"><ele>182.12</ele><time>2026-08-15T02:45:42Z</time></trkpt><trkpt lat="59.3503130134" lon="34.6725587826"><ele>183.22</ele><time>2026-08-15T02:46:12Z</time></trkpt><trkpt lat="59.3503318727" lon="34.6725478861"><ele>181.86</ele><time>2026-08-15T02:46:43Z</time></trkpt><trkpt lat="59.3503208086" lon="34.6725013666"><ele>181.95</ele><time>2026-08-15T02:47:22Z</time></trkpt><trkpt lat="59.3503319565" lon="34.6725672483"><ele>182.06</ele><time>2026-08-15T02:47:56Z</time></trkpt><trkpt lat="59.3503436074" lon="34.6726573538"><ele>181.66</ele><time>2026-08-15T02:48:25Z</time></trkpt><trkpt lat="59.3503316212" lon="34.6726778056"><ele>180.74</ele><time>2026-08-15T02:48:53Z</time></trkpt><trkpt lat="59.3503235746" lon="34.6726268437"><ele>180.35</ele><time>2026-08-15T02:49:17Z</time></trkpt><trkpt lat="59.3503105827" lon="34.6725281049"><ele>180.28</ele><time>2026-08-15T02:49:48Z</time></trkpt><trkpt lat="59.3502337206" lon="34.6723970957"><ele>179.96</ele><time>2026-08-15T02:50:10Z</time></trkpt><trkpt lat="59.3501844350" lon="34.6722656675"><ele>178.63</ele><time>2026-08-15T02:50:28Z</time></trkpt><trkpt lat="59.3501122668" lon="34.6720982809"><ele>177.58</ele><time>2026-08-15T02:50:49Z</time></trkpt><trkpt lat="59.3500535097" lon="34.6720051579"><ele>177.04</ele><time>2026-08-15T02:51:09Z</time></trkpt><trkpt lat="59.3500029668" lon="34.6719164774"><ele>177.02</ele><time>2026-08-15T02:51:30Z</time></trkpt><trkpt lat="59.3499564473" lon="34.6717958618"><ele>176.90</ele><time>2026-08-15T02:51:46Z</time></trkpt><trkpt lat="59.3498569541" lon="34.6716424730"><ele>176.32</ele><time>2026-08-15T02:52:07Z</time></trkpt><trkpt lat="59.3498035613" lon="34.6715790220"><ele>178.80</ele><time>2026-08-15T02:52:32Z</time></trkpt><trkpt lat="59.3498121947" lon="34.6715638507"><ele>180.97</ele><time>2026-08-15T02:53:09Z</time></trkpt><trkpt lat="59.3498054892" lon="34.6715694666"><ele>183.00</ele><time>2026-08-15T02:53:39Z</time></trkpt><trkpt lat="59.3497861270" lon="34.6715413872"><ele>180.33</ele><time>2026-08-15T02:54:10Z</time></trkpt><trkpt lat="59.3498028070" lon="34.6715329215"><ele>180.72</ele><time>2026-08-15T02:54:40Z</time></trkpt><trkpt lat="59.3498624861" lon="34.6713933628"><ele>180.69</ele><time>2026-08-15T02:55:11Z</time></trkpt><trkpt lat="59.3499196507" lon="34.6713372879"><ele>178.96</ele><time>2026-08-15T02:55:39Z</time></trkpt><trkpt lat="59.3499269430" lon="34.6715033334"><ele>178.20</ele><time>2026-08-15T02:56:11Z</time></trkpt><trkpt lat="59.3498584628" lon="34.6714810375"><ele>180.90</ele><time>2026-08-15T02:56:39Z</time></trkpt><trkpt lat="59.3498634081" lon="34.6714517009"><ele>185.59</ele><time>2026-08-15T02:57:08Z</time></trkpt><trkpt lat="59.3498106860" lon="34.6714796964"><ele>186.67</ele><time>2026-08-15T02:57:34Z</time></trkpt><trkpt lat="59.3498540204" lon="34.6713652834"><ele>185.63</ele><time>2026-08-15T02:57:53Z</time></trkpt><trkpt lat="59.3498416990" lon="34.6711506229"><ele>182.90</ele><time>2026-08-15T02:58:12Z</time></trkpt><trkpt lat="59.3498556968" lon="34.6710497048"><ele>181.22</ele><time>2026-08-15T02:58:30Z</time></trkpt><trkpt lat="59.3498672638" lon="34.6710160933"><ele>180.86</ele><time>2026-08-15T02:58:53Z</time></trkpt><trkpt lat="59.3498550262" lon="34.6709502116"><ele>178.07</ele><time>2026-08-15T02:59:21Z</time></trkpt><trkpt lat="59.3498489913" lon="34.6709891874"><ele>180.22</ele><time>2026-08-15T02:59:49Z</time></trkpt><trkpt lat="59.3498607259" lon="34.6709478647"><ele>176.98</ele><time>2026-08-15T03:00:24Z</time></trkpt><trkpt lat="59.3498710357" lon="34.6708829049"><ele>175.84</ele><time>2026-08-15T03:00:57Z</time></trkpt><trkpt lat="59.3498550262" lon="34.6708888561"><ele>176.25</ele><time>2026-08-15T03:01:19Z</time></trkpt><trkpt lat="59.3498634920" lon="34.6707425080"><ele>176.03</ele><time>2026-08-15T03:01:38Z</time></trkpt><trkpt lat="59.3498728797" lon="34.6705777198"><ele>175.27</ele><time>2026-08-15T03:01:58Z</time></trkpt><trkpt lat="59.3498938344" lon="34.6703211498"><ele>174.73</ele><time>2026-08-15T03:02:19Z</time></trkpt><trkpt lat="59.3499479815" lon="34.6701489855"><ele>174.15</ele><time>2026-08-15T03:02:38Z</time></trkpt><trkpt lat="59.3499324750" lon="34.6700488217"><ele>173.74</ele><time>2026-08-15T03:02:59Z</time></trkpt><trkpt lat="59.3499016296" lon="34.6699478198"><ele>173.51</ele><time>2026-08-15T03:03:18Z</time></trkpt><trkpt lat="59.3499116879" lon="34.6698963549"><ele>172.84</ele><time>2026-08-15T03:03:58Z</time></trkpt><trkpt lat="59.3499361631" lon="34.6697842050"><ele>174.07</ele><time>2026-08-15T03:04:33Z</time></trkpt><trkpt lat="59.3499020487" lon="34.6698384359"><ele>173.75</ele><time>2026-08-15T03:05:11Z</time></trkpt><trkpt lat="59.3498812616" lon="34.6698885597"><ele>175.90</ele><time>2026-08-15T03:05:43Z</time></trkpt><trkpt lat="59.3498741370" lon="34.6699225064"><ele>176.88</ele><time>2026-08-15T03:06:10Z</time></trkpt><trkpt lat="59.3498806749" lon="34.6698924992"><ele>176.77</ele><time>2026-08-15T03:06:29Z</time></trkpt><trkpt lat="59.3498027232" lon="34.6697703749"><ele>181.43</ele><time>2026-08-15T03:06:59Z</time></trkpt><trkpt lat="59.3498346582" lon="34.6698557865"><ele>183.63</ele><time>2026-08-15T03:07:30Z</time></trkpt><trkpt lat="59.3499100115" lon="34.6696632542"><ele>181.81</ele><time>2026-08-15T03:07:52Z</time></trkpt><trkpt lat="59.3499572854" lon="34.6695274673"><ele>180.27</ele><time>2026-08-15T03:08:14Z</time></trkpt><trkpt lat="59.3499624822" lon="34.6693849750"><ele>179.37</ele><time>2026-08-15T03:08:36Z</time></trkpt><trkpt lat="59.3499553576" lon="34.6692074463"><ele>177.78</ele><time>2026-08-15T03:08:57Z</time></trkpt><trkpt lat="59.3499586266" lon="34.6691475995"><ele>176.34</ele><time>2026-08-15T03:09:25Z</time></trkpt><trkpt lat="59.3499588780" lon="34.6690468490"><ele>176.18</ele><time>2026-08-15T03:09:46Z</time></trkpt><trkpt lat="59.3498689402" lon="34.6690024249"><ele>175.67</ele><time>2026-08-15T03:10:06Z</time></trkpt><trkpt lat="59.3498327304" lon="34.6690252237"><ele>176.52</ele><time>2026-08-15T03:10:33Z</time></trkpt><trkpt lat="59.3498266116" lon="34.6690772753"><ele>178.24</ele><time>2026-08-15T03:11:07Z</time></trkpt><trkpt lat="59.3498443812" lon="34.6690279897"><ele>178.33</ele><time>2026-08-15T03:11:38Z</time></trkpt><trkpt lat="59.3498391006" lon="34.6689782850"><ele>177.67</ele><time>2026-08-15T03:12:09Z</time></trkpt><trkpt lat="59.3498478178" lon="34.6688619442"><ele>177.62</ele><time>2026-08-15T03:12:31Z</time></trkpt><trkpt lat="59.3498581275" lon="34.6686955635"><ele>177.26</ele><time>2026-08-15T03:12:47Z</time></trkpt><trkpt lat="59.3499192316" lon="34.6685306076"><ele>174.85</ele><time>2026-08-15T03:13:06Z</time></trkpt><trkpt lat="59.3499570340" lon="34.6684371494"><ele>174.17</ele><time>2026-08-15T03:13:25Z</time></trkpt><trkpt lat="59.3499732949" lon="34.6683943179"><ele>173.67</ele><time>2026-08-15T03:13:46Z</time></trkpt><trkpt lat="59.3499478139" lon="34.6683436912"><ele>173.11</ele><time>2026-08-15T03:14:04Z</time></trkpt><trkpt lat="59.3499479815" lon="34.6683282685"><ele>174.61</ele><time>2026-08-15T03:14:22Z</time></trkpt><trkpt lat="59.3499443773" lon="34.6682535857"><ele>175.35</ele><time>2026-08-15T03:15:15Z</time></trkpt><trkpt lat="59.3499397673" lon="34.6681819204"><ele>175.25</ele><time>2026-08-15T03:15:34Z</time></trkpt><trkpt lat="59.3499401025" lon="34.6681946609"><ele>173.67</ele><time>2026-08-15T03:16:13Z</time></trkpt><trkpt lat="59.3499920703" lon="34.6682532504"><ele>171.66</ele><time>2026-08-15T03:16:44Z</time></trkpt><trkpt lat="59.3499876279" lon="34.6682356484"><ele>170.36</ele><time>2026-08-15T03:17:14Z</time></trkpt><trkpt lat="59.3499490712" lon="34.6682524122"><ele>170.99</ele><time>2026-08-15T03:17:43Z</time></trkpt><trkpt lat="59.3499525916" lon="34.6682597045"><ele>170.50</ele><time>2026-08-15T03:18:20Z</time></trkpt><trkpt lat="59.3499791622" lon="34.6680435352"><ele>169.97</ele><time>2026-08-15T03:18:49Z</time></trkpt><trkpt lat="59.3499670923" lon="34.6680310462"><ele>169.26</ele><time>2026-08-15T03:19:03Z</time></trkpt><trkpt lat="59.3499159627" lon="34.6680014580"><ele>168.77</ele><time>2026-08-15T03:19:16Z</time></trkpt><trkpt lat="59.3499074131" lon="34.6678971872"><ele>168.71</ele><time>2026-08-15T03:19:31Z</time></trkpt><trkpt lat="59.3499184772" lon="34.6678294614"><ele>168.81</ele><time>2026-08-15T03:19:46Z</time></trkpt><trkpt lat="59.3499375880" lon="34.6677401941"><ele>168.95</ele><time>2026-08-15T03:20:03Z</time></trkpt><trkpt lat="59.3499419466" lon="34.6677158028"><ele>168.80</ele><time>2026-08-15T03:20:05Z</time></trkpt><trkpt lat="59.3499541841" lon="34.6675307304"><ele>167.81</ele><time>2026-08-15T03:20:25Z</time></trkpt><trkpt lat="59.3499673437" lon="34.6673641820"><ele>168.45</ele><time>2026-08-15T03:20:44Z</time></trkpt><trkpt lat="59.3499477301" lon="34.6673617512"><ele>169.00</ele><time>2026-08-15T03:21:10Z</time></trkpt><trkpt lat="59.3499239255" lon="34.6672065184"><ele>172.82</ele><time>2026-08-15T03:21:54Z</time></trkpt><trkpt lat="59.3499559443" lon="34.6672563907"><ele>172.95</ele><time>2026-08-15T03:22:30Z</time></trkpt><trkpt lat="59.3500061519" lon="34.6671966277"><ele>173.14</ele><time>2026-08-15T03:22:55Z</time></trkpt><trkpt lat="59.3500418589" lon="34.6671390440"><ele>172.72</ele><time>2026-08-15T03:23:24Z</time></trkpt><trkpt lat="59.3500106782" lon="34.6670815442"><ele>171.32</ele><time>2026-08-15T03:23:54Z</time></trkpt><trkpt lat="59.3500251789" lon="34.6670902614"><ele>170.85</ele><time>2026-08-15T03:24:17Z</time></trkpt><trkpt lat="59.3500321358" lon="34.6671589930"><ele>169.76</ele><time>2026-08-15T03:24:48Z</time></trkpt><trkpt lat="59.3500614725" lon="34.6668699011"><ele>169.57</ele><time>2026-08-15T03:25:07Z</time></trkpt><trkpt lat="59.3500818405" lon="34.6666054521"><ele>168.81</ele><time>2026-08-15T03:25:26Z</time></trkpt><trkpt lat="59.3501234148" lon="34.6664029453"><ele>168.19</ele><time>2026-08-15T03:25:47Z</time></trkpt><trkpt lat="59.3501197267" lon="34.6663683280"><ele>168.03</ele><time>2026-08-15T03:26:08Z</time></trkpt><trkpt lat="59.3501183856" lon="34.6663375665"><ele>168.57</ele><time>2026-08-15T03:26:19Z</time></trkpt><trkpt lat="59.3501203135" lon="34.6662548371"><ele>169.08</ele><time>2026-08-15T03:26:49Z</time></trkpt><trkpt lat="59.3501224928" lon="34.6663648076"><ele>167.71</ele><time>2026-08-15T03:27:21Z</time></trkpt><trkpt lat="59.3501073215" lon="34.6664261632"><ele>168.68</ele><time>2026-08-15T03:27:54Z</time></trkpt><trkpt lat="59.3501299527" lon="34.6662710141"><ele>168.80</ele><time>2026-08-15T03:28:25Z</time></trkpt><trkpt lat="59.3501652405" lon="34.6661779750"><ele>171.13</ele><time>2026-08-15T03:28:42Z</time></trkpt><trkpt lat="59.3502245843" lon="34.6659511607"><ele>171.28</ele><time>2026-08-15T03:29:02Z</time></trkpt><trkpt lat="59.3502750434" lon="34.6657834388"><ele>170.38</ele><time>2026-08-15T03:29:22Z</time></trkpt><trkpt lat="59.3503061403" lon="34.6656759828"><ele>169.54</ele><time>2026-08-15T03:29:43Z</time></trkpt><trkpt lat="59.3503168691" lon="34.6655963548"><ele>169.76</ele><time>2026-08-15T03:30:16Z</time></trkpt><trkpt lat="59.3503141031" lon="34.6655732207"><ele>170.37</ele><time>2026-08-15T03:31:02Z</time></trkpt><trkpt lat="59.3503477983" lon="34.6656495798"><ele>170.14</ele><time>2026-08-15T03:31:24Z</time></trkpt><trkpt lat="59.3503778894" lon="34.6656479035"><ele>170.50</ele><time>2026-08-15T03:31:58Z</time></trkpt><trkpt lat="59.3503866065" lon="34.6656231768"><ele>170.18</ele><time>2026-08-15T03:32:29Z</time></trkpt><trkpt lat="59.3503493909" lon="34.6656814311"><ele>169.86</ele><time>2026-08-15T03:33:00Z</time></trkpt><trkpt lat="59.3503466249" lon="34.6657044813"><ele>170.00</ele><time>2026-08-15T03:33:29Z</time></trkpt><trkpt lat="59.3503756262" lon="34.6655735560"><ele>170.48</ele><time>2026-08-15T03:34:00Z</time></trkpt><trkpt lat="59.3503581081" lon="34.6656266972"><ele>171.20</ele><time>2026-08-15T03:34:31Z</time></trkpt><trkpt lat="59.3503647298" lon="34.6654639207"><ele>171.09</ele><time>2026-08-15T03:34:52Z</time></trkpt><trkpt lat="59.3503528275" lon="34.6653241105"><ele>170.23</ele><time>2026-08-15T03:35:14Z</time></trkpt><trkpt lat="59.3503828347" lon="34.6652569715"><ele>171.17</ele><time>2026-08-15T03:35:43Z</time></trkpt><trkpt lat="59.3503804039" lon="34.6651440673"><ele>170.67</ele><time>2026-08-15T03:36:07Z</time></trkpt><trkpt lat="59.3504089862" lon="34.6651379485"><ele>171.06</ele><time>2026-08-15T03:36:30Z</time></trkpt><trkpt lat="59.3504228164" lon="34.6651374456"><ele>170.13</ele><time>2026-08-15T03:36:57Z</time></trkpt><trkpt lat="59.3503984250" lon="34.6648566518"><ele>167.51</ele><time>2026-08-15T03:37:17Z</time></trkpt><trkpt lat="59.3503929768" lon="34.6647228766"><ele>167.44</ele><time>2026-08-15T03:37:35Z</time></trkpt><trkpt lat="59.3504023645" lon="34.6646018419"><ele>168.56</ele><time>2026-08-15T03:37:55Z</time></trkpt><trkpt lat="59.3504049629" lon="34.6645556577"><ele>168.27</ele><time>2026-08-15T03:38:18Z</time></trkpt><trkpt lat="59.3504127581" lon="34.6645575855"><ele>167.34</ele><time>2026-08-15T03:38:44Z</time></trkpt><trkpt lat="59.3504083157" lon="34.6644878481"><ele>167.48</ele><time>2026-08-15T03:39:16Z</time></trkpt><trkpt lat="59.3504063878" lon="34.6644920390"><ele>168.71</ele><time>2026-08-15T03:39:48Z</time></trkpt><trkpt lat="59.3504182901" lon="34.6645127423"><ele>168.95</ele><time>2026-08-15T03:39:57Z</time></trkpt><trkpt lat="59.3504224811" lon="34.6644369699"><ele>169.77</ele><time>2026-08-15T03:40:15Z</time></trkpt><trkpt lat="59.3504172843" lon="34.6642317809"><ele>171.35</ele><time>2026-08-15T03:40:35Z</time></trkpt><trkpt lat="59.3504446931" lon="34.6640949044"><ele>170.86</ele><time>2026-08-15T03:40:57Z</time></trkpt><trkpt lat="59.3504306115" lon="34.6639776416"><ele>170.11</ele><time>2026-08-15T03:41:16Z</time></trkpt><trkpt lat="59.3504505605" lon="34.6638592053"><ele>169.57</ele><time>2026-08-15T03:41:31Z</time></trkpt><trkpt lat="59.3504840042" lon="34.6637076605"><ele>170.10</ele><time>2026-08-15T03:41:51Z</time></trkpt><trkpt lat="59.3505073059" lon="34.6636569500"><ele>169.69</ele><time>2026-08-15T03:42:25Z</time></trkpt><trkpt lat="59.3504857644" lon="34.6635921579"><ele>168.60</ele><time>2026-08-15T03:42:57Z</time></trkpt><trkpt lat="59.3504471239" lon="34.6635725442"><ele>168.49</ele><time>2026-08-15T03:43:46Z</time></trkpt><trkpt lat="59.3504365627" lon="34.6636064071"><ele>168.36</ele><time>2026-08-15T03:44:15Z</time></trkpt><trkpt lat="59.3504590262" lon="34.6635966841"><ele>168.80</ele><time>2026-08-15T03:44:45Z</time></trkpt><trkpt lat="59.3504364789" lon="34.6636993624"><ele>168.04</ele><time>2026-08-15T03:45:13Z</time></trkpt><trkpt lat="59.3504642230" lon="34.6636416111"><ele>169.27</ele><time>2026-08-15T03:45:43Z</time></trkpt><trkpt lat="59.3504593614" lon="34.6635315567"><ele>169.44</ele><time>2026-08-15T03:46:15Z</time></trkpt><trkpt lat="59.3504425976" lon="34.6635881346"><ele>167.87</ele><time>2026-08-15T03:46:47Z</time></trkpt><trkpt lat="59.3504766282" lon="34.6636292059"><ele>167.93</ele><time>2026-08-15T03:47:17Z</time></trkpt><trkpt lat="59.3505075574" lon="34.6636566985"><ele>167.33</ele><time>2026-08-15T03:47:45Z</time></trkpt><trkpt lat="59.3505483773" lon="34.6636318881"><ele>170.45</ele><time>2026-08-15T03:48:16Z</time></trkpt><trkpt lat="59.3505406659" lon="34.6636927407"><ele>170.96</ele><time>2026-08-15T03:48:44Z</time></trkpt><trkpt lat="59.3504703417" lon="34.6635831892"><ele>170.74</ele><time>2026-08-15T03:49:14Z</time></trkpt><trkpt lat="59.3504436035" lon="34.6634851210"><ele>170.80</ele><time>2026-08-15T03:49:46Z</time></trkpt><trkpt lat="59.3504440226" lon="34.6634580474"><ele>170.21</ele><time>2026-08-15T03:50:20Z</time></trkpt><trkpt lat="59.3504231516" lon="34.6635321435"><ele>171.08</ele><time>2026-08-15T03:50:54Z</time></trkpt><trkpt lat="59.3504456989" lon="34.6635178942"><ele>170.97</ele><time>2026-08-15T03:51:22Z</time></trkpt><trkpt lat="59.3504221458" lon="34.6634856239"><ele>171.08</ele><time>2026-08-15T03:51:45Z</time></trkpt><trkpt lat="59.3504513148" lon="34.6634074207"><ele>171.53</ele><time>2026-08-15T03:52:07Z</time></trkpt><trkpt lat="59.3504594453" lon="34.6632990427"><ele>171.36</ele><time>2026-08-15T03:52:26Z</time></trkpt><trkpt lat="59.3504484650" lon="34.6631583106"><ele>170.65</ele><time>2026-08-15T03:52:46Z</time></trkpt><trkpt lat="59.3504493032" lon="34.6630221047"><ele>170.63</ele><time>2026-08-15T03:53:06Z</time></trkpt><trkpt lat="59.3504236545" lon="34.6628306620"><ele>170.48</ele><time>2026-08-15T03:53:26Z</time></trkpt><trkpt lat="59.3504437711" lon="34.6627477650"><ele>170.96</ele><time>2026-08-15T03:53:45Z</time></trkpt><trkpt lat="59.3504503928" lon="34.6627428196"><ele>170.11</ele><time>2026-08-15T03:54:09Z</time></trkpt><trkpt lat="59.3504731078" lon="34.6627675463"><ele>168.41</ele><time>2026-08-15T03:54:39Z</time></trkpt><trkpt lat="59.3504552543" lon="34.6627339348"><ele>168.70</ele><time>2026-08-15T03:55:12Z</time></trkpt><trkpt lat="59.3503991794" lon="34.6628454980"><ele>167.05</ele><time>2026-08-15T03:55:47Z</time></trkpt><trkpt lat="59.3503809907" lon="34.6628334280"><ele>167.19</ele><time>2026-08-15T03:56:50Z</time></trkpt><trkpt lat="59.3504068069" lon="34.6628270578"><ele>165.78</ele><time>2026-08-15T03:57:30Z</time></trkpt><trkpt lat="59.3504374847" lon="34.6628221124"><ele>165.64</ele><time>2026-08-15T03:58:22Z</time></trkpt><trkpt lat="59.3503913842" lon="34.6628657822"><ele>166.86</ele><time>2026-08-15T03:58:56Z</time></trkpt><trkpt lat="59.3504052144" lon="34.6628730744"><ele>167.98</ele><time>2026-08-15T03:59:29Z</time></trkpt><trkpt lat="59.3504404183" lon="34.6628735773"><ele>169.43</ele><time>2026-08-15T04:00:13Z</time></trkpt><trkpt lat="59.3504593614" lon="34.6628895868"><ele>171.06</ele><time>2026-08-15T04:01:02Z</time></trkpt><trkpt lat="59.3504513148" lon="34.6628584061"><ele>170.70</ele><time>2026-08-15T04:01:32Z</time></trkpt><trkpt lat="59.3504722696" lon="34.6628294885"><ele>170.73</ele><time>2026-08-15T04:02:05Z</time></trkpt><trkpt lat="59.3504367303" lon="34.6628351044"><ele>170.82</ele><time>2026-08-15T04:02:38Z</time></trkpt><trkpt lat="59.3504520692" lon="34.6628097072"><ele>170.62</ele><time>2026-08-15T04:03:08Z</time></trkpt><trkpt lat="59.3503884505" lon="34.6627872437"><ele>170.99</ele><time>2026-08-15T04:03:40Z</time></trkpt><trkpt lat="59.3503793981" lon="34.6628310811"><ele>170.54</ele><time>2026-08-15T04:04:11Z</time></trkpt><trkpt lat="59.3504145183" lon="34.6628092043"><ele>167.16</ele><time>2026-08-15T04:04:40Z</time></trkpt><trkpt lat="59.3504180387" lon="34.6627667919"><ele>165.77</ele><time>2026-08-15T04:05:11Z</time></trkpt><trkpt lat="59.3504312821" lon="34.6627168357"><ele>164.68</ele><time>2026-08-15T04:05:33Z</time></trkpt><trkpt lat="59.3504004367" lon="34.6627016645"><ele>165.88</ele><time>2026-08-15T04:05:57Z</time></trkpt><trkpt lat="59.3503856007" lon="34.6626832243"><ele>166.84</ele><time>2026-08-15T04:06:26Z</time></trkpt><trkpt lat="59.3502460420" lon="34.6625488624"><ele>165.61</ele><time>2026-08-15T04:06:49Z</time></trkpt><trkpt lat="59.3502135202" lon="34.6623719204"><ele>164.64</ele><time>2026-08-15T04:07:15Z</time></trkpt><trkpt lat="59.3501176313" lon="34.6621404961"><ele>162.98</ele><time>2026-08-15T04:07:37Z</time></trkpt><trkpt lat="59.3500761408" lon="34.6620546654"><ele>161.89</ele><time>2026-08-15T04:07:58Z</time></trkpt><trkpt lat="59.3500845227" lon="34.6620642208"><ele>161.76</ele><time>2026-08-15T04:08:03Z</time></trkpt><trkpt lat="59.3500217423" lon="34.6620513964"><ele>165.10</ele><time>2026-08-15T04:08:36Z</time></trkpt><trkpt lat="59.3500413559" lon="34.6620577667"><ele>164.51</ele><time>2026-08-15T04:09:36Z</time></trkpt><trkpt lat="59.3500468880" lon="34.6619483829"><ele>162.67</ele><time>2026-08-15T04:10:06Z</time></trkpt><trkpt lat="59.3500136118" lon="34.6619647276"><ele>163.23</ele><time>2026-08-15T04:10:33Z</time></trkpt><trkpt lat="59.3500407692" lon="34.6620511450"><ele>167.54</ele><time>2026-08-15T04:11:07Z</time></trkpt><trkpt lat="59.3500509951" lon="34.6619737800"><ele>165.19</ele><time>2026-08-15T04:12:01Z</time></trkpt><trkpt lat="59.3500228319" lon="34.6620581020"><ele>164.53</ele><time>2026-08-15T04:12:33Z</time></trkpt><trkpt lat="59.3500714470" lon="34.6622818988"><ele>164.87</ele><time>2026-08-15T04:13:01Z</time></trkpt><trkpt lat="59.3500563595" lon="34.6625064500"><ele>164.38</ele><time>2026-08-15T04:13:19Z</time></trkpt><trkpt lat="59.3500261009" lon="34.6626485232"><ele>165.43</ele><time>2026-08-15T04:13:34Z</time></trkpt><trkpt lat="59.3500195630" lon="34.6628268063"><ele>164.54</ele><time>2026-08-15T04:13:52Z</time></trkpt><trkpt lat="59.3499990273" lon="34.6629775129"><ele>165.62</ele><time>2026-08-15T04:14:11Z</time></trkpt><trkpt lat="59.3500110973" lon="34.6630948596"><ele>166.76</ele><time>2026-08-15T04:14:27Z</time></trkpt><trkpt lat="59.3499841075" lon="34.6631065942"><ele>166.65</ele><time>2026-08-15T04:14:49Z</time></trkpt><trkpt lat="59.3499274459" lon="34.6631720569"><ele>167.18</ele><time>2026-08-15T04:14:56Z</time></trkpt><trkpt lat="59.3500031345" lon="34.6632886492"><ele>166.76</ele><time>2026-08-15T04:15:29Z</time></trkpt><trkpt lat="59.3500830140" lon="34.6632280480"><ele>166.92</ele><time>2026-08-15T04:15:52Z</time></trkpt><trkpt lat="59.3501216546" lon="34.6631718054"><ele>168.48</ele><time>2026-08-15T04:16:22Z</time></trkpt><trkpt lat="59.3501230795" lon="34.6630894113"><ele>171.81</ele><time>2026-08-15T04:16:51Z</time></trkpt><trkpt lat="59.3500852771" lon="34.6631324105"><ele>177.37</ele><time>2026-08-15T04:17:22Z</time></trkpt><trkpt lat="59.3499886338" lon="34.6631909162"><ele>173.47</ele><time>2026-08-15T04:17:52Z</time></trkpt><trkpt lat="59.3499774020" lon="34.6630848013"><ele>170.61</ele><time>2026-08-15T04:18:23Z</time></trkpt><trkpt lat="59.3499729596" lon="34.6630941052"><ele>168.71</ele><time>2026-08-15T04:18:55Z</time></trkpt><trkpt lat="59.3499766476" lon="34.6631035767"><ele>168.08</ele><time>2026-08-15T04:19:25Z</time></trkpt><trkpt lat="59.3499129452" lon="34.6631287225"><ele>168.41</ele><time>2026-08-15T04:19:55Z</time></trkpt><trkpt lat="59.3499233387" lon="34.6633004677"><ele>167.50</ele><time>2026-08-15T04:20:15Z</time></trkpt><trkpt lat="59.3499997817" lon="34.6632559597"><ele>168.84</ele><time>2026-08-15T04:20:44Z</time></trkpt><trkpt lat="59.3499027193" lon="34.6633144654"><ele>168.43</ele><time>2026-08-15T04:21:16Z</time></trkpt><trkpt lat="59.3499584589" lon="34.6635294612"><ele>168.83</ele><time>2026-08-15T04:21:33Z</time></trkpt><trkpt lat="59.3499468081" lon="34.6637095883"><ele>169.65</ele><time>2026-08-15T04:21:53Z</time></trkpt><trkpt lat="59.3499520048" lon="34.6638137754"><ele>170.69</ele><time>2026-08-15T04:22:14Z</time></trkpt><trkpt lat="59.3499863707" lon="34.6637727041"><ele>172.12</ele><time>2026-08-15T04:22:40Z</time></trkpt><trkpt lat="59.3500291184" lon="34.6638361551"><ele>173.25</ele><time>2026-08-15T04:23:11Z</time></trkpt><trkpt lat="59.3500294536" lon="34.6638135239"><ele>173.28</ele><time>2026-08-15T04:23:21Z</time></trkpt><trkpt lat="59.3499305472" lon="34.6638411004"><ele>173.98</ele><time>2026-08-15T04:23:50Z</time></trkpt><trkpt lat="59.3499370851" lon="34.6638384182"><ele>173.14</ele><time>2026-08-15T04:24:21Z</time></trkpt><trkpt lat="59.3499451317" lon="34.6637558565"><ele>172.07</ele><time>2026-08-15T04:24:54Z</time></trkpt><trkpt lat="59.3499048147" lon="34.6637972631"><ele>169.51</ele><time>2026-08-15T04:25:24Z</time></trkpt><trkpt lat="59.3499672599" lon="34.6636715345"><ele>167.52</ele><time>2026-08-15T04:25:52Z</time></trkpt><trkpt lat="59.3499647453" lon="34.6638017893"><ele>167.46</ele><time>2026-08-15T04:26:23Z</time></trkpt><trkpt lat="59.3500265200" lon="34.6637621429"><ele>168.71</ele><time>2026-08-15T04:26:49Z</time></trkpt><trkpt lat="59.3499882985" lon="34.6638028789"><ele>168.88</ele><time>2026-08-15T04:27:15Z</time></trkpt><trkpt lat="59.3499868736" lon="34.6638095006"><ele>168.82</ele><time>2026-08-15T04:27:16Z</time></trkpt><trkpt lat="59.3499462213" lon="34.6639669128"><ele>168.58</ele><time>2026-08-15T04:27:40Z</time></trkpt><trkpt lat="59.3499565311" lon="34.6640098281"><ele>168.61</ele><time>2026-08-15T04:27:49Z</time></trkpt><trkpt lat="59.3498772383" lon="34.6641127579"><ele>168.99</ele><time>2026-08-15T04:28:05Z</time></trkpt><trkpt lat="59.3498542719" lon="34.6641906258"><ele>169.35</ele><time>2026-08-15T04:28:27Z</time></trkpt><trkpt lat="59.3498500809" lon="34.6643182822"><ele>169.22</ele><time>2026-08-15T04:28:45Z</time></trkpt><trkpt lat="59.3498079199" lon="34.6644034423"><ele>168.94</ele><time>2026-08-15T04:29:07Z</time></trkpt><trkpt lat="59.3497961015" lon="34.6645632014"><ele>169.20</ele><time>2026-08-15T04:29:27Z</time></trkpt><trkpt lat="59.3498437107" lon="34.6646231320"><ele>169.36</ele><time>2026-08-15T04:29:44Z</time></trkpt><trkpt lat="59.3498899788" lon="34.6646010038"><ele>168.22</ele><time>2026-08-15T04:30:06Z</time></trkpt><trkpt lat="59.3498554453" lon="34.6645491198"><ele>167.69</ele><time>2026-08-15T04:30:35Z</time></trkpt><trkpt lat="59.3498826027" lon="34.6646422427"><ele>169.80</ele><time>2026-08-15T04:31:22Z</time></trkpt><trkpt lat="59.3498567026" lon="34.6646008361"><ele>168.30</ele><time>2026-08-15T04:31:56Z</time></trkpt><trkpt lat="59.3499265239" lon="34.6645797137"><ele>169.95</ele><time>2026-08-15T04:32:47Z</time></trkpt><trkpt lat="59.3497421220" lon="34.6646803804"><ele>169.58</ele><time>2026-08-15T04:33:17Z</time></trkpt><trkpt lat="59.3497505877" lon="34.6647302527"><ele>172.80</ele><time>2026-08-15T04:33:52Z</time></trkpt><trkpt lat="59.3498030584" lon="34.6647207811"><ele>173.67</ele><time>2026-08-15T04:34:17Z</time></trkpt><trkpt lat="59.3498643301" lon="34.6646321006"><ele>173.39</ele><time>2026-08-15T04:34:46Z</time></trkpt><trkpt lat="59.3498703651" lon="34.6647341084"><ele>172.28</ele><time>2026-08-15T04:35:15Z</time></trkpt><trkpt lat="59.3498640787" lon="34.6648382954"><ele>172.37</ele><time>2026-08-15T04:35:37Z</time></trkpt><trkpt lat="59.3498764839" lon="34.6649518702"><ele>172.34</ele><time>2026-08-15T04:35:55Z</time></trkpt><trkpt lat="59.3498676829" lon="34.6650987212"><ele>171.45</ele><time>2026-08-15T04:36:15Z</time></trkpt><trkpt lat="59.3498411961" lon="34.6651185025"><ele>171.59</ele><time>2026-08-15T04:36:33Z</time></trkpt><trkpt lat="59.3498174753" lon="34.6651727334"><ele>170.98</ele><time>2026-08-15T04:36:52Z</time></trkpt><trkpt lat="59.3497763202" lon="34.6651921794"><ele>176.86</ele><time>2026-08-15T04:37:23Z</time></trkpt><trkpt lat="59.3498767354" lon="34.6651665308"><ele>173.46</ele><time>2026-08-15T04:37:55Z</time></trkpt><trkpt lat="59.3498653360" lon="34.6653287206"><ele>173.16</ele><time>2026-08-15T04:38:15Z</time></trkpt><trkpt lat="59.3498540204" lon="34.6653700434"><ele>173.39</ele><time>2026-08-15T04:38:36Z</time></trkpt><trkpt lat="59.3499162141" lon="34.6653122082"><ele>171.29</ele><time>2026-08-15T04:39:02Z</time></trkpt><trkpt lat="59.3499675114" lon="34.6653291397"><ele>175.03</ele><time>2026-08-15T04:39:37Z</time></trkpt><trkpt lat="59.3499612249" lon="34.6653429698"><ele>171.34</ele><time>2026-08-15T04:40:12Z</time></trkpt><trkpt lat="59.3499509990" lon="34.6653558780"><ele>166.30</ele><time>2026-08-15T04:41:01Z</time></trkpt><trkpt lat="59.3498453032" lon="34.6652989648"><ele>167.96</ele><time>2026-08-15T04:41:29Z</time></trkpt><trkpt lat="59.3498584628" lon="34.6652086079"><ele>169.10</ele><time>2026-08-15T04:42:03Z</time></trkpt><trkpt lat="59.3499124423" lon="34.6652209293"><ele>168.65</ele><time>2026-08-15T04:42:32Z</time></trkpt><trkpt lat="59.3498548586" lon="34.6651701350"><ele>168.47</ele><time>2026-08-15T04:43:02Z</time></trkpt><trkpt lat="59.3497611489" lon="34.6650132257"><ele>168.86</ele><time>2026-08-15T04:43:31Z</time></trkpt><trkpt lat="59.3498757295" lon="34.6652640961"><ele>171.12</ele><time>2026-08-15T04:44:03Z</time></trkpt><trkpt lat="59.3498655036" lon="34.6653785091"><ele>171.28</ele><time>2026-08-15T04:44:35Z</time></trkpt><trkpt lat="59.3498477340" lon="34.6654746495"><ele>171.09</ele><time>2026-08-15T04:44:57Z</time></trkpt><trkpt lat="59.3498681020" lon="34.6656041499"><ele>170.05</ele><time>2026-08-15T04:45:16Z</time></trkpt><trkpt lat="59.3498528469" lon="34.6656658407"><ele>171.06</ele><time>2026-08-15T04:45:47Z</time></trkpt><trkpt lat="59.3498282880" lon="34.6658234205"><ele>170.88</ele><time>2026-08-15T04:46:09Z</time></trkpt><trkpt lat="59.3498318922" lon="34.6660170425"><ele>170.12</ele><time>2026-08-15T04:46:35Z</time></trkpt><trkpt lat="59.3498755619" lon="34.6661187988"><ele>172.87</ele><time>2026-08-15T04:46:58Z</time></trkpt><trkpt lat="59.3498877157" lon="34.6662377380"><ele>172.71</ele><time>2026-08-15T04:47:18Z</time></trkpt><trkpt lat="59.3497842830" lon="34.6664241515"><ele>173.24</ele><time>2026-08-15T04:47:40Z</time></trkpt><trkpt lat="59.3498356640" lon="34.6665145084"><ele>171.80</ele><time>2026-08-15T04:48:03Z</time></trkpt><trkpt lat="59.3498511706" lon="34.6665633749"><ele>171.48</ele><time>2026-08-15T04:48:36Z</time></trkpt><trkpt lat="59.3498756457" lon="34.6664815675"><ele>171.88</ele><time>2026-08-15T04:49:15Z</time></trkpt><trkpt lat="59.3497380987" lon="34.6666238923"><ele>170.30</ele><time>2026-08-15T04:49:46Z</time></trkpt><trkpt lat="59.3497961853" lon="34.6666244790"><ele>169.67</ele><time>2026-08-15T04:50:14Z</time></trkpt><trkpt lat="59.3498468120" lon="34.6666357107"><ele>166.90</ele><time>2026-08-15T04:50:42Z</time></trkpt><trkpt lat="59.3498136196" lon="34.6667347010"><ele>166.79</ele><time>2026-08-15T04:51:02Z</time></trkpt><trkpt lat="59.3497562036" lon="34.6668352839"><ele>167.23</ele><time>2026-08-15T04:51:25Z</time></trkpt><trkpt lat="59.3496943451" lon="34.6669992339"><ele>167.61</ele><time>2026-08-15T04:51:48Z</time></trkpt><trkpt lat="59.3495901581" lon="34.6670561470"><ele>167.41</ele><time>2026-08-15T04:52:06Z</time></trkpt><trkpt lat="59.3495495059" lon="34.6671160776"><ele>167.66</ele><time>2026-08-15T04:52:30Z</time></trkpt><trkpt lat="59.3495587260" lon="34.6671910118"><ele>168.10</ele><time>2026-08-15T04:52:54Z</time></trkpt><trkpt lat="59.3495498411" lon="34.6673194226"><ele>168.23</ele><time>2026-08-15T04:53:15Z</time></trkpt><trkpt lat="59.3495739810" lon="34.6673469152"><ele>168.14</ele><time>2026-08-15T04:53:47Z</time></trkpt><trkpt lat="59.3495645933" lon="34.6672535408"><ele>167.59</ele><time>2026-08-15T04:54:19Z</time></trkpt><trkpt lat="59.3495433033" lon="34.6672639344"><ele>165.76</ele><time>2026-08-15T04:54:51Z</time></trkpt><trkpt lat="59.3495706283" lon="34.6673308220"><ele>165.01</ele><time>2026-08-15T04:55:19Z</time></trkpt><trkpt lat="59.3496094365" lon="34.6673402097"><ele>164.67</ele><time>2026-08-15T04:55:50Z</time></trkpt><trkpt lat="59.3496121187" lon="34.6673809458"><ele>164.91</ele><time>2026-08-15T04:56:04Z</time></trkpt><trkpt lat="59.3495605700" lon="34.6674267948"><ele>164.97</ele><time>2026-08-15T04:56:25Z</time></trkpt><trkpt lat="59.3495609052" lon="34.6674572211"><ele>165.07</ele><time>2026-08-15T04:56:42Z</time></trkpt><trkpt lat="59.3495676946" lon="34.6674591489"><ele>165.83</ele><time>2026-08-15T04:57:10Z</time></trkpt><trkpt lat="59.3496167287" lon="34.6673563030"><ele>165.60</ele><time>2026-08-15T04:57:29Z</time></trkpt><trkpt lat="59.3496084306" lon="34.6673524473"><ele>165.75</ele><time>2026-08-15T04:57:46Z</time></trkpt><trkpt lat="59.3495682813" lon="34.6674221009"><ele>165.13</ele><time>2026-08-15T04:58:09Z</time></trkpt><trkpt lat="59.3495459855" lon="34.6675046626"><ele>165.43</ele><time>2026-08-15T04:58:37Z</time></trkpt><trkpt lat="59.3495354243" lon="34.6676230989"><ele>166.57</ele><time>2026-08-15T04:59:01Z</time></trkpt><trkpt lat="59.3495570496" lon="34.6676961891"><ele>167.36</ele><time>2026-08-15T04:59:20Z</time></trkpt><trkpt lat="59.3495473266" lon="34.6677940898"><ele>166.57</ele><time>2026-08-15T04:59:46Z</time></trkpt><trkpt lat="59.3495428003" lon="34.6678349096"><ele>166.34</ele><time>2026-08-15T05:00:07Z</time></trkpt><trkpt lat="59.3495707121" lon="34.6678909846"><ele>165.94</ele><time>2026-08-15T05:00:28Z</time></trkpt><trkpt lat="59.3495287187" lon="34.6680266876"><ele>165.62</ele><time>2026-08-15T05:00:54Z</time></trkpt><trkpt lat="59.3494777568" lon="34.6681239177"><ele>166.12</ele><time>2026-08-15T05:01:16Z</time></trkpt><trkpt lat="59.3494836241" lon="34.6682202257"><ele>165.68</ele><time>2026-08-15T05:01:43Z</time></trkpt><trkpt lat="59.3494925927" lon="34.6681128535"><ele>164.70</ele><time>2026-08-15T05:02:13Z</time></trkpt><trkpt lat="59.3494675308" lon="34.6681053098"><ele>164.47</ele><time>2026-08-15T05:02:42Z</time></trkpt><trkpt lat="59.3494533654" lon="34.6680906415"><ele>164.47</ele><time>2026-08-15T05:03:12Z</time></trkpt><trkpt lat="59.3494661897" lon="34.6681610495"><ele>164.93</ele><time>2026-08-15T05:03:20Z</time></trkpt><trkpt lat="59.3494729791" lon="34.6682325471"><ele>166.46</ele><time>2026-08-15T05:03:51Z</time></trkpt><trkpt lat="59.3494676985" lon="34.6681157872"><ele>164.35</ele><time>2026-08-15T05:04:26Z</time></trkpt><trkpt lat="59.3495055009" lon="34.6682851017"><ele>164.06</ele><time>2026-08-15T05:04:53Z</time></trkpt><trkpt lat="59.3494713865" lon="34.6681529190"><ele>165.22</ele><time>2026-08-15T05:05:28Z</time></trkpt><trkpt lat="59.3494833726" lon="34.6682099160"><ele>164.94</ele><time>2026-08-15T05:06:00Z</time></trkpt><trkpt lat="59.3494561315" lon="34.6682871133"><ele>166.01</ele><time>2026-08-15T05:06:28Z</time></trkpt><trkpt lat="59.3495384417" lon="34.6682866104"><ele>165.87</ele><time>2026-08-15T05:07:00Z</time></trkpt><trkpt lat="59.3495428003" lon="34.6682030428"><ele>164.40</ele><time>2026-08-15T05:07:31Z</time></trkpt><trkpt lat="59.3495587260" lon="34.6682415158"><ele>164.27</ele><time>2026-08-15T05:07:59Z</time></trkpt><trkpt lat="59.3495292217" lon="34.6682991832"><ele>168.06</ele><time>2026-08-15T05:08:31Z</time></trkpt><trkpt lat="59.3494853005" lon="34.6682226565"><ele>168.26</ele><time>2026-08-15T05:09:00Z</time></trkpt><trkpt lat="59.3494763318" lon="34.6681677550"><ele>166.71</ele><time>2026-08-15T05:09:21Z</time></trkpt><trkpt lat="59.3495032378" lon="34.6681234147"><ele>165.01</ele><time>2026-08-15T05:09:50Z</time></trkpt><trkpt lat="59.3495485000" lon="34.6681381669"><ele>164.71</ele><time>2026-08-15T05:10:39Z</time></trkpt><trkpt lat="59.3494504318" lon="34.6682452876"><ele>162.52</ele><time>2026-08-15T05:11:22Z</time></trkpt><trkpt lat="59.3494931795" lon="34.6681267675"><ele>163.45</ele><time>2026-08-15T05:11:55Z</time></trkpt><trkpt lat="59.3494809419" lon="34.6681869496"><ele>163.40</ele><time>2026-08-15T05:12:32Z</time></trkpt><trkpt lat="59.3494516052" lon="34.6681186371"><ele>161.15</ele><time>2026-08-15T05:13:06Z</time></trkpt><trkpt lat="59.3494518567" lon="34.6681852732"><ele>160.05</ele><time>2026-08-15T05:13:48Z</time></trkpt><trkpt lat="59.3494646810" lon="34.6683142707"><ele>159.36</ele><time>2026-08-15T05:14:09Z</time></trkpt><trkpt lat="59.3494785950" lon="34.6683469601"><ele>159.08</ele><time>2026-08-15T05:14:14Z</time></trkpt><trkpt lat="59.3494981248" lon="34.6683840919"><ele>160.37</ele><time>2026-08-15T05:14:48Z</time></trkpt><trkpt lat="59.3495012261" lon="34.6684392449"><ele>159.25</ele><time>2026-08-15T05:15:07Z</time></trkpt><trkpt lat="59.3495372683" lon="34.6685092337"><ele>159.32</ele><time>2026-08-15T05:15:24Z</time></trkpt><trkpt lat="59.3495529424" lon="34.6686941385"><ele>160.09</ele><time>2026-08-15T05:15:43Z</time></trkpt><trkpt lat="59.3495484162" lon="34.6689709090"><ele>161.16</ele><time>2026-08-15T05:16:02Z</time></trkpt><trkpt lat="59.3495915830" lon="34.6692433208"><ele>160.76</ele><time>2026-08-15T05:16:24Z</time></trkpt><trkpt lat="59.3495869730" lon="34.6693881601"><ele>161.85</ele><time>2026-08-15T05:16:37Z</time></trkpt><trkpt lat="59.3495927565" lon="34.6694863122"><ele>162.87</ele><time>2026-08-15T05:17:00Z</time></trkpt><trkpt lat="59.3496006355" lon="34.6695614140"><ele>162.43</ele><time>2026-08-15T05:17:28Z</time></trkpt><trkpt lat="59.3495204207" lon="34.6695884876"><ele>160.46</ele><time>2026-08-15T05:18:09Z</time></trkpt><trkpt lat="59.3496368453" lon="34.6694445703"><ele>160.14</ele><time>2026-08-15T05:18:40Z</time></trkpt><trkpt lat="59.3495822791" lon="34.6695495117"><ele>162.88</ele><time>2026-08-15T05:19:09Z</time></trkpt><trkpt lat="59.3496142980" lon="34.6694611665"><ele>167.12</ele><time>2026-08-15T05:19:34Z</time></trkpt><trkpt lat="59.3496196624" lon="34.6695822850"><ele>166.85</ele><time>2026-08-15T05:19:53Z</time></trkpt><trkpt lat="59.3496629130" lon="34.6697567962"><ele>165.61</ele><time>2026-08-15T05:20:14Z</time></trkpt><trkpt lat="59.3496309780" lon="34.6698714606"><ele>165.02</ele><time>2026-08-15T05:20:29Z</time></trkpt><trkpt lat="59.3495873921" lon="34.6699563693"><ele>164.07</ele><time>2026-08-15T05:20:46Z</time></trkpt><trkpt lat="59.3495634198" lon="34.6701159608"><ele>163.02</ele><time>2026-08-15T05:21:04Z</time></trkpt><trkpt lat="59.3495790940" lon="34.6702479757"><ele>162.04</ele><time>2026-08-15T05:21:23Z</time></trkpt><trkpt lat="59.3495357595" lon="34.6703268494"><ele>161.62</ele><time>2026-08-15T05:21:43Z</time></trkpt><trkpt lat="59.3495162297" lon="34.6704711858"><ele>161.33</ele><time>2026-08-15T05:21:59Z</time></trkpt><trkpt lat="59.3495163135" lon="34.6705343854"><ele>161.05</ele><time>2026-08-15T05:22:20Z</time></trkpt><trkpt lat="59.3495002203" lon="34.6705311164"><ele>160.94</ele><time>2026-08-15T05:22:54Z</time></trkpt><trkpt lat="59.3494093604" lon="34.6706711780"><ele>159.44</ele><time>2026-08-15T05:23:29Z</time></trkpt><trkpt lat="59.3494197540" lon="34.6707453579"><ele>159.33</ele><time>2026-08-15T05:23:51Z</time></trkpt><trkpt lat="59.3494562153" lon="34.6706823260"><ele>158.76</ele><time>2026-08-15T05:24:22Z</time></trkpt><trkpt lat="59.3494759127" lon="34.6707129199"><ele>159.41</ele><time>2026-08-15T05:24:42Z</time></trkpt><trkpt lat="59.3494249508" lon="34.6708802227"><ele>159.70</ele><time>2026-08-15T05:25:02Z</time></trkpt><trkpt lat="59.3493919261" lon="34.6710002515"><ele>160.08</ele><time>2026-08-15T05:25:21Z</time></trkpt><trkpt lat="59.3493703846" lon="34.6711404808"><ele>160.95</ele><time>2026-08-15T05:25:43Z</time></trkpt><trkpt lat="59.3493262120" lon="34.6711832285"><ele>161.10</ele><time>2026-08-15T05:26:07Z</time></trkpt><trkpt lat="59.3492825422" lon="34.6712528821"><ele>161.63</ele><time>2026-08-15T05:26:39Z</time></trkpt><trkpt lat="59.3493111245" lon="34.6712884214"><ele>162.01</ele><time>2026-08-15T05:27:17Z</time></trkpt><trkpt lat="59.3493599072" lon="34.6712726634"><ele>161.83</ele><time>2026-08-15T05:27:51Z</time></trkpt><trkpt lat="59.3493696302" lon="34.6711986512"><ele>165.01</ele><time>2026-08-15T05:28:20Z</time></trkpt><trkpt lat="59.3493693788" lon="34.6711905207"><ele>164.74</ele><time>2026-08-15T05:28:48Z</time></trkpt><trkpt lat="59.3494130485" lon="34.6711601783"><ele>164.04</ele><time>2026-08-15T05:29:14Z</time></trkpt><trkpt lat="59.3494182453" lon="34.6710387245"><ele>162.71</ele><time>2026-08-15T05:29:47Z</time></trkpt><trkpt lat="59.3494118750" lon="34.6710361261"><ele>160.96</ele><time>2026-08-15T05:30:19Z</time></trkpt><trkpt lat="59.3494200055" lon="34.6710999124"><ele>161.58</ele><time>2026-08-15T05:30:50Z</time></trkpt><trkpt lat="59.3494583108" lon="34.6711082943"><ele>163.07</ele><time>2026-08-15T05:31:22Z</time></trkpt><trkpt lat="59.3494567182" lon="34.6711417381"><ele>166.97</ele><time>2026-08-15T05:31:50Z</time></trkpt><trkpt lat="59.3495223485" lon="34.6711013373"><ele>167.85</ele><time>2026-08-15T05:32:20Z</time></trkpt><trkpt lat="59.3495510146" lon="34.6711116470"><ele>169.44</ele><time>2026-08-15T05:32:51Z</time></trkpt><trkpt lat="59.3495540321" lon="34.6711434145"><ele>167.38</ele><time>2026-08-15T05:33:24Z</time></trkpt><trkpt lat="59.3495195825" lon="34.6711170953"><ele>163.91</ele><time>2026-08-15T05:33:52Z</time></trkpt><trkpt lat="59.3495002203" lon="34.6711013373"><ele>165.00</ele><time>2026-08-15T05:34:24Z</time></trkpt><trkpt lat="59.3494745716" lon="34.6711242199"><ele>164.02</ele><time>2026-08-15T05:35:02Z</time></trkpt><trkpt lat="59.3494451512" lon="34.6711345296"><ele>167.27</ele><time>2026-08-15T05:35:34Z</time></trkpt><trkpt lat="59.3493907526" lon="34.6710657980"><ele>169.09</ele><time>2026-08-15T05:36:07Z</time></trkpt><trkpt lat="59.3494465761" lon="34.6710274927"><ele>168.60</ele><time>2026-08-15T05:36:40Z</time></trkpt><trkpt lat="59.3494315725" lon="34.6710115671"><ele>167.94</ele><time>2026-08-15T05:37:14Z</time></trkpt><trkpt lat="59.3494363502" lon="34.6710989065"><ele>167.18</ele><time>2026-08-15T05:37:38Z</time></trkpt><trkpt lat="59.3494249508" lon="34.6711777803"><ele>168.27</ele><time>2026-08-15T05:38:04Z</time></trkpt><trkpt lat="59.3494343385" lon="34.6710984875"><ele>168.82</ele><time>2026-08-15T05:38:35Z</time></trkpt><trkpt lat="59.3494435586" lon="34.6710781194"><ele>170.59</ele><time>2026-08-15T05:39:00Z</time></trkpt><trkpt lat="59.3494023196" lon="34.6711178496"><ele>170.41</ele><time>2026-08-15T05:39:30Z</time></trkpt><trkpt lat="59.3493360188" lon="34.6710622776"><ele>169.93</ele><time>2026-08-15T05:39:52Z</time></trkpt><trkpt lat="59.3493432272" lon="34.6709647961"><ele>170.25</ele><time>2026-08-15T05:40:17Z</time></trkpt><trkpt lat="59.3493454903" lon="34.6709601022"><ele>170.29</ele><time>2026-08-15T05:40:19Z</time></trkpt><trkpt lat="59.3492867332" lon="34.6709065419"><ele>170.13</ele><time>2026-08-15T05:40:34Z</time></trkpt><trkpt lat="59.3492741603" lon="34.6708146762"><ele>168.53</ele><time>2026-08-15T05:40:58Z</time></trkpt><trkpt lat="59.3492307421" lon="34.6707161888"><ele>167.25</ele><time>2026-08-15T05:41:19Z</time></trkpt><trkpt lat="59.3491873238" lon="34.6707061306"><ele>166.68</ele><time>2026-08-15T05:41:38Z</time></trkpt><trkpt lat="59.3491151556" lon="34.6706596110"><ele>167.06</ele><time>2026-08-15T05:41:59Z</time></trkpt><trkpt lat="59.3490592483" lon="34.6705726068"><ele>166.97</ele><time>2026-08-15T05:42:19Z</time></trkpt><trkpt lat="59.3490009941" lon="34.6705208905"><ele>166.01</ele><time>2026-08-15T05:42:35Z</time></trkpt><trkpt lat="59.3489553966" lon="34.6704253368"><ele>165.17</ele><time>2026-08-15T05:42:55Z</time></trkpt><trkpt lat="59.3489680532" lon="34.6704133507"><ele>162.10</ele><time>2026-08-15T05:43:30Z</time></trkpt><trkpt lat="59.3489495292" lon="34.6703676693"><ele>161.01</ele><time>2026-08-15T05:43:57Z</time></trkpt><trkpt lat="59.3489910197" lon="34.6704094112"><ele>163.62</ele><time>2026-08-15T05:44:20Z</time></trkpt><trkpt lat="59.3489858229" lon="34.6704569366"><ele>166.05</ele><time>2026-08-15T05:45:01Z</time></trkpt><trkpt lat="59.3490063585" lon="34.6703660768"><ele>167.97</ele><time>2026-08-15T05:45:23Z</time></trkpt><trkpt lat="59.3490144890" lon="34.6702377498"><ele>168.33</ele><time>2026-08-15T05:45:58Z</time></trkpt><trkpt lat="59.3490171712" lon="34.6700597182"><ele>168.36</ele><time>2026-08-15T05:46:16Z</time></trkpt><trkpt lat="59.3490465079" lon="34.6699256916"><ele>167.88</ele><time>2026-08-15T05:46:33Z</time></trkpt><trkpt lat="59.3490455020" lon="34.6698544454"><ele>167.27</ele><time>2026-08-15T05:46:54Z</time></trkpt><trkpt lat="59.3490536325" lon="34.6697728056"><ele>166.71</ele><time>2026-08-15T05:47:12Z</time></trkpt><trkpt lat="59.3490620982" lon="34.6696960274"><ele>166.61</ele><time>2026-08-15T05:47:35Z</time></trkpt><trkpt lat="59.3490341865" lon="34.6695858892"><ele>166.44</ele><time>2026-08-15T05:47:58Z</time></trkpt><trkpt lat="59.3490411434" lon="34.6694976278"><ele>166.63</ele><time>2026-08-15T05:48:19Z</time></trkpt><trkpt lat="59.3490829691" lon="34.6694791038"><ele>167.01</ele><time>2026-08-15T05:48:40Z</time></trkpt><trkpt lat="59.3490892556" lon="34.6694051754"><ele>165.82</ele><time>2026-08-15T05:48:59Z</time></trkpt><trkpt lat="59.3490100466" lon="34.6694932692"><ele>164.00</ele><time>2026-08-15T05:49:32Z</time></trkpt><trkpt lat="59.3490075320" lon="34.6695496794"><ele>163.86</ele><time>2026-08-15T05:50:03Z</time></trkpt><trkpt lat="59.3490271457" lon="34.6694355179"><ele>163.66</ele><time>2026-08-15T05:50:31Z</time></trkpt><trkpt lat="59.3490490224" lon="34.6693683788"><ele>163.48</ele><time>2026-08-15T05:51:04Z</time></trkpt><trkpt lat="59.3490487710" lon="34.6693809517"><ele>166.00</ele><time>2026-08-15T05:51:35Z</time></trkpt><trkpt lat="59.3490783591" lon="34.6693330910"><ele>166.08</ele><time>2026-08-15T05:51:54Z</time></trkpt><trkpt lat="59.3490961287" lon="34.6693150699"><ele>165.94</ele><time>2026-08-15T05:52:01Z</time></trkpt><trkpt lat="59.3490838911" lon="34.6691751759"><ele>166.24</ele><time>2026-08-15T05:52:27Z</time></trkpt><trkpt lat="59.3491113000" lon="34.6690590028"><ele>166.96</ele><time>2026-08-15T05:52:46Z</time></trkpt><trkpt lat="59.3491206877" lon="34.6688497066"><ele>167.68</ele><time>2026-08-15T05:53:10Z</time></trkpt><trkpt lat="59.3491402175" lon="34.6686445177"><ele>168.21</ele><time>2026-08-15T05:53:29Z</time></trkpt><trkpt lat="59.3491812889" lon="34.6685631294"><ele>169.42</ele><time>2026-08-15T05:53:43Z</time></trkpt><trkpt lat="59.3492144812" lon="34.6684352215"><ele>170.25</ele><time>2026-08-15T05:54:03Z</time></trkpt><trkpt lat="59.3492315803" lon="34.6684052981"><ele>170.82</ele><time>2026-08-15T05:54:28Z</time></trkpt><trkpt lat="59.3492448237" lon="34.6682993509"><ele>170.81</ele><time>2026-08-15T05:54:53Z</time></trkpt><trkpt lat="59.3492682092" lon="34.6683358122"><ele>171.85</ele><time>2026-08-15T05:55:16Z</time></trkpt><trkpt lat="59.3492978811" lon="34.6682776418"><ele>175.81</ele><time>2026-08-15T05:55:49Z</time></trkpt><trkpt lat="59.3493076041" lon="34.6682856884"><ele>174.70</ele><time>2026-08-15T05:56:21Z</time></trkpt><trkpt lat="59.3493394554" lon="34.6683249995"><ele>172.46</ele><time>2026-08-15T05:56:56Z</time></trkpt><trkpt lat="59.3493161537" lon="34.6682999376"><ele>170.37</ele><time>2026-08-15T05:57:22Z</time></trkpt><trkpt lat="59.3493512738" lon="34.6683503967"><ele>171.74</ele><time>2026-08-15T05:57:54Z</time></trkpt><trkpt lat="59.3493340909" lon="34.6683512349"><ele>171.67</ele><time>2026-08-15T05:58:27Z</time></trkpt><trkpt lat="59.3492906727" lon="34.6681751311"><ele>170.79</ele><time>2026-08-15T05:58:45Z</time></trkpt><trkpt lat="59.3492800277" lon="34.6680195630"><ele>171.21</ele><time>2026-08-15T05:59:02Z</time></trkpt><trkpt lat="59.3493103702" lon="34.6679383423"><ele>171.55</ele><time>2026-08-15T05:59:21Z</time></trkpt><trkpt lat="59.3492508586" lon="34.6677399427"><ele>170.90</ele><time>2026-08-15T05:59:39Z</time></trkpt><trkpt lat="59.3492402975" lon="34.6676511783"><ele>171.14</ele><time>2026-08-15T05:59:52Z</time></trkpt><trkpt lat="59.3492528703" lon="34.6675416268"><ele>171.61</ele><time>2026-08-15T06:00:08Z</time></trkpt><trkpt lat="59.3492832966" lon="34.6674623340"><ele>171.04</ele><time>2026-08-15T06:00:26Z</time></trkpt><trkpt lat="59.3493231107" lon="34.6675080154"><ele>170.02</ele><time>2026-08-15T06:00:56Z</time></trkpt><trkpt lat="59.3493185844" lon="34.6674407087"><ele>171.55</ele><time>2026-08-15T06:01:27Z</time></trkpt><trkpt lat="59.3493673671" lon="34.6675220132"><ele>171.83</ele><time>2026-08-15T06:01:58Z</time></trkpt><trkpt lat="59.3494265433" lon="34.6675505955"><ele>171.65</ele><time>2026-08-15T06:02:32Z</time></trkpt><trkpt lat="59.3493319117" lon="34.6675880626"><ele>171.67</ele><time>2026-08-15T06:03:00Z</time></trkpt><trkpt lat="59.3493291456" lon="34.6674342547"><ele>170.73</ele><time>2026-08-15T06:03:31Z</time></trkpt><trkpt lat="59.3493480049" lon="34.6672910079"><ele>170.49</ele><time>2026-08-15T06:03:54Z</time></trkpt><trkpt lat="59.3493491784" lon="34.6671758406"><ele>170.12</ele><time>2026-08-15T06:04:13Z</time></trkpt><trkpt lat="59.3493832927" lon="34.6670460049"><ele>169.87</ele><time>2026-08-15T06:04:31Z</time></trkpt><trkpt lat="59.3494099472" lon="34.6668972261"><ele>169.15</ele><time>2026-08-15T06:04:47Z</time></trkpt><trkpt lat="59.3494118750" lon="34.6667701565"><ele>168.36</ele><time>2026-08-15T06:05:04Z</time></trkpt><trkpt lat="59.3494072650" lon="34.6666901931"><ele>168.22</ele><time>2026-08-15T06:05:25Z</time></trkpt><trkpt lat="59.3493558839" lon="34.6665893588"><ele>167.90</ele><time>2026-08-15T06:05:44Z</time></trkpt><trkpt lat="59.3493371084" lon="34.6665585972"><ele>167.49</ele><time>2026-08-15T06:06:05Z</time></trkpt><trkpt lat="59.3493510224" lon="34.6665469464"><ele>168.28</ele><time>2026-08-15T06:06:32Z</time></trkpt><trkpt lat="59.3493623380" lon="34.6666001715"><ele>168.44</ele><time>2026-08-15T06:07:00Z</time></trkpt><trkpt lat="59.3493930995" lon="34.6665283386"><ele>167.68</ele><time>2026-08-15T06:07:30Z</time></trkpt><trkpt lat="59.3493952788" lon="34.6665203758"><ele>167.17</ele><time>2026-08-15T06:07:59Z</time></trkpt><trkpt lat="59.3494078517" lon="34.6664389037"><ele>166.83</ele><time>2026-08-15T06:08:21Z</time></trkpt><trkpt lat="59.3494400382" lon="34.6663394105"><ele>168.15</ele><time>2026-08-15T06:08:41Z</time></trkpt><trkpt lat="59.3494329136" lon="34.6661857702"><ele>170.57</ele><time>2026-08-15T06:09:01Z</time></trkpt><trkpt lat="59.3494030740" lon="34.6660438646"><ele>171.46</ele><time>2026-08-15T06:09:19Z</time></trkpt><trkpt lat="59.3493689597" lon="34.6658496559"><ele>171.40</ele><time>2026-08-15T06:09:36Z</time></trkpt><trkpt lat="59.3493506871" lon="34.6657067444"><ele>170.47</ele><time>2026-08-15T06:09:49Z</time></trkpt><trkpt lat="59.3493270501" lon="34.6655514278"><ele>170.79</ele><time>2026-08-15T06:10:09Z</time></trkpt><trkpt lat="59.3493438140" lon="34.6655244380"><ele>171.01</ele><time>2026-08-15T06:10:39Z</time></trkpt><trkpt lat="59.3493940216" lon="34.6656147111"><ele>170.67</ele><time>2026-08-15T06:11:06Z</time></trkpt><trkpt lat="59.3493822869" lon="34.6654796787"><ele>169.29</ele><time>2026-08-15T06:11:39Z</time></trkpt><trkpt lat="59.3493644334" lon="34.6654820256"><ele>167.96</ele><time>2026-08-15T06:12:09Z</time></trkpt><trkpt lat="59.3494154792" lon="34.6655605640"><ele>171.24</ele><time>2026-08-15T06:12:38Z</time></trkpt><trkpt lat="59.3493793532" lon="34.6655581333"><ele>171.72</ele><time>2026-08-15T06:13:12Z</time></trkpt><trkpt lat="59.3493400421" lon="34.6655665990"><ele>170.25</ele><time>2026-08-15T06:13:40Z</time></trkpt><trkpt lat="59.3493011501" lon="34.6655471530"><ele>169.31</ele><time>2026-08-15T06:13:59Z</time></trkpt><trkpt lat="59.3492721487" lon="34.6656401083"><ele>168.31</ele><time>2026-08-15T06:14:28Z</time></trkpt><trkpt lat="59.3492635991" lon="34.6657503303"><ele>167.54</ele><time>2026-08-15T06:15:04Z</time></trkpt><trkpt lat="59.3492746633" lon="34.6656002104"><ele>171.33</ele><time>2026-08-15T06:15:31Z</time></trkpt><trkpt lat="59.3492983840" lon="34.6656277869"><ele>170.04</ele><time>2026-08-15T06:16:05Z</time></trkpt><trkpt lat="59.3492917623" lon="34.6657287050"><ele>168.72</ele><time>2026-08-15T06:16:30Z</time></trkpt><trkpt lat="59.3493202608" lon="34.6655101888"><ele>172.60</ele><time>2026-08-15T06:16:57Z</time></trkpt><trkpt lat="59.3493226077" lon="34.6652619168"><ele>173.08</ele><time>2026-08-15T06:17:18Z</time></trkpt><trkpt lat="59.3493995536" lon="34.6649916843"><ele>173.90</ele><time>2026-08-15T06:17:37Z</time></trkpt><trkpt lat="59.3493898306" lon="34.6648213640"><ele>171.99</ele><time>2026-08-15T06:17:52Z</time></trkpt><trkpt lat="59.3493989669" lon="34.6647659596"><ele>172.77</ele><time>2026-08-15T06:18:08Z</time></trkpt><trkpt lat="59.3493511062" lon="34.6647141594"><ele>172.32</ele><time>2026-08-15T06:18:29Z</time></trkpt><trkpt lat="59.3493428919" lon="34.6647237148"><ele>172.42</ele><time>2026-08-15T06:18:53Z</time></trkpt><trkpt lat="59.3493560515" lon="34.6646867506"><ele>172.59</ele><time>2026-08-15T06:19:16Z</time></trkpt><trkpt lat="59.3494100310" lon="34.6646573301"><ele>175.05</ele><time>2026-08-15T06:19:47Z</time></trkpt><trkpt lat="59.3494138867" lon="34.6646893490"><ele>176.84</ele><time>2026-08-15T06:20:22Z</time></trkpt><trkpt lat="59.3494123779" lon="34.6646566596"><ele>179.49</ele><time>2026-08-15T06:20:52Z</time></trkpt><trkpt lat="59.3494563829" lon="34.6647248883"><ele>179.71</ele><time>2026-08-15T06:21:26Z</time></trkpt><trkpt lat="59.3494394515" lon="34.6645870898"><ele>178.60</ele><time>2026-08-15T06:21:45Z</time></trkpt><trkpt lat="59.3494060077" lon="34.6643803082"><ele>178.08</ele><time>2026-08-15T06:22:04Z</time></trkpt><trkpt lat="59.3493813649" lon="34.6642329544"><ele>176.42</ele><time>2026-08-15T06:22:26Z</time></trkpt><trkpt lat="59.3493985478" lon="34.6640535817"><ele>176.40</ele><time>2026-08-15T06:22:43Z</time></trkpt><trkpt lat="59.3494169880" lon="34.6640026197"><ele>176.08</ele><time>2026-08-15T06:22:59Z</time></trkpt><trkpt lat="59.3494428881" lon="34.6638418548"><ele>175.60</ele><time>2026-08-15T06:23:20Z</time></trkpt><trkpt lat="59.3494148925" lon="34.6636903938"><ele>175.20</ele><time>2026-08-15T06:23:38Z</time></trkpt><trkpt lat="59.3494303990" lon="34.6636368334"><ele>175.36</ele><time>2026-08-15T06:24:06Z</time></trkpt><trkpt lat="59.3494728953" lon="34.6636735462"><ele>175.89</ele><time>2026-08-15T06:24:39Z</time></trkpt><trkpt lat="59.3494431395" lon="34.6636171360"><ele>175.96</ele><time>2026-08-15T06:25:11Z</time></trkpt><trkpt lat="59.3494943529" lon="34.6636439580"><ele>175.93</ele><time>2026-08-15T06:25:39Z</time></trkpt><trkpt lat="59.3495013937" lon="34.6636164654"><ele>178.07</ele><time>2026-08-15T06:26:04Z</time></trkpt><trkpt lat="59.3495209236" lon="34.6636185609"><ele>181.83</ele><time>2026-08-15T06:26:36Z</time></trkpt><trkpt lat="59.3495231029" lon="34.6635120269"><ele>181.41</ele><time>2026-08-15T06:27:02Z</time></trkpt><trkpt lat="59.3495035730" lon="34.6634533536"><ele>180.91</ele><time>2026-08-15T06:27:07Z</time></trkpt><trkpt lat="59.3494371884" lon="34.6633143816"><ele>180.10</ele><time>2026-08-15T06:27:30Z</time></trkpt><trkpt lat="59.3494475819" lon="34.6631408762"><ele>179.61</ele><time>2026-08-15T06:27:49Z</time></trkpt><trkpt lat="59.3494508509" lon="34.6629651077"><ele>179.50</ele><time>2026-08-15T06:28:10Z</time></trkpt><trkpt lat="59.3494839594" lon="34.6629259642"><ele>178.25</ele><time>2026-08-15T06:28:36Z</time></trkpt><trkpt lat="59.3495141342" lon="34.6628638543"><ele>176.70</ele><time>2026-08-15T06:29:02Z</time></trkpt><trkpt lat="59.3495469913" lon="34.6626247186"><ele>176.24</ele><time>2026-08-15T06:29:25Z</time></trkpt><trkpt lat="59.3496535253" lon="34.6626489423"><ele>175.07</ele><time>2026-08-15T06:29:56Z</time></trkpt><trkpt lat="59.3496907409" lon="34.6626543906"><ele>174.26</ele><time>2026-08-15T06:30:07Z</time></trkpt><trkpt lat="59.3496220931" lon="34.6625841502"><ele>177.01</ele><time>2026-08-15T06:30:35Z</time></trkpt><trkpt lat="59.3496317323" lon="34.6625367925"><ele>176.98</ele><time>2026-08-15T06:31:09Z</time></trkpt><trkpt lat="59.3495543674" lon="34.6625559870"><ele>177.55</ele><time>2026-08-15T06:31:42Z</time></trkpt><trkpt lat="59.3495827820" lon="34.6625766065"><ele>177.43</ele><time>2026-08-15T06:31:53Z</time></trkpt><trkpt lat="59.3496020604" lon="34.6623399016"><ele>178.68</ele><time>2026-08-15T06:32:12Z</time></trkpt><trkpt lat="59.3495968636" lon="34.6621869318"><ele>178.67</ele><time>2026-08-15T06:32:27Z</time></trkpt><trkpt lat="59.3496436346" lon="34.6620390750"><ele>178.31</ele><time>2026-08-15T06:32:48Z</time></trkpt><trkpt lat="59.3496801797" lon="34.6618895419"><ele>178.30</ele><time>2026-08-15T06:33:09Z</time></trkpt><trkpt lat="59.3497121148" lon="34.6618891228"><ele>179.59</ele><time>2026-08-15T06:33:37Z</time></trkpt><trkpt lat="59.3497130368" lon="34.6618710179"><ele>181.63</ele><time>2026-08-15T06:34:03Z</time></trkpt><trkpt lat="59.3496967759" lon="34.6617125161"><ele>181.52</ele><time>2026-08-15T06:34:29Z</time></trkpt><trkpt lat="59.3496800959" lon="34.6615663357"><ele>181.06</ele><time>2026-08-15T06:34:50Z</time></trkpt><trkpt lat="59.3496435508" lon="34.6613927465"><ele>180.24</ele><time>2026-08-15T06:35:10Z</time></trkpt><trkpt lat="59.3496338278" lon="34.6612184029"><ele>179.61</ele><time>2026-08-15T06:35:30Z</time></trkpt><trkpt lat="59.3496953510" lon="34.6611256152"><ele>179.10</ele><time>2026-08-15T06:35:48Z</time></trkpt><trkpt lat="59.3497104384" lon="34.6609267965"><ele>179.50</ele><time>2026-08-15T06:36:09Z</time></trkpt><trkpt lat="59.3497322313" lon="34.6608760860"><ele>178.99</ele><time>2026-08-15T06:36:30Z</time></trkpt><trkpt lat="59.3497730512" lon="34.6609650180"><ele>176.31</ele><time>2026-08-15T06:37:02Z</time></trkpt><trkpt lat="59.3497688603" lon="34.6608915925"><ele>176.67</ele><time>2026-08-15T06:37:33Z</time></trkpt><trkpt lat="59.3497801758" lon="34.6609412972"><ele>176.95</ele><time>2026-08-15T06:38:03Z</time></trkpt><trkpt lat="59.3497861270" lon="34.6609402075"><ele>178.11</ele><time>2026-08-15T06:38:34Z</time></trkpt><trkpt lat="59.3497880548" lon="34.6608911734"><ele>177.96</ele><time>2026-08-15T06:39:03Z</time></trkpt><trkpt lat="59.3496930879" lon="34.6607827954"><ele>177.12</ele><time>2026-08-15T06:39:33Z</time></trkpt><trkpt lat="59.3496454787" lon="34.6608122997"><ele>176.91</ele><time>2026-08-15T06:40:02Z</time></trkpt><trkpt lat="59.3496246915" lon="34.6607956197"><ele>176.39</ele><time>2026-08-15T06:40:27Z</time></trkpt><trkpt lat="59.3495234381" lon="34.6607076097"><ele>176.62</ele><time>2026-08-15T06:40:46Z</time></trkpt><trkpt lat="59.3494673632" lon="34.6606219467"><ele>175.44</ele><time>2026-08-15T06:41:10Z</time></trkpt><trkpt lat="59.3493591528" lon="34.6604802925"><ele>175.97</ele><time>2026-08-15T06:41:33Z</time></trkpt><trkpt lat="59.3492878228" lon="34.6603419073"><ele>176.01</ele><time>2026-08-15T06:41:54Z</time></trkpt><trkpt lat="59.3493342586" lon="34.6604447532"><ele>175.44</ele><time>2026-08-15T06:42:26Z</time></trkpt><trkpt lat="59.3492902536" lon="34.6604404785"><ele>173.76</ele><time>2026-08-15T06:43:05Z</time></trkpt><trkpt lat="59.3492616713" lon="34.6603954677"><ele>173.97</ele><time>2026-08-15T06:43:39Z</time></trkpt><trkpt lat="59.3492932711" lon="34.6603323519"><ele>172.52</ele><time>2026-08-15T06:44:08Z</time></trkpt><trkpt lat="59.3493436463" lon="34.6602326911"><ele>172.37</ele><time>2026-08-15T06:44:40Z</time></trkpt><trkpt lat="59.3493042514" lon="34.6602087189"><ele>170.33</ele><time>2026-08-15T06:45:06Z</time></trkpt><trkpt lat="59.3493829574" lon="34.6603756864"><ele>170.30</ele><time>2026-08-15T06:45:38Z</time></trkpt><trkpt lat="59.3493362702" lon="34.6603832301"><ele>171.12</ele><time>2026-08-15T06:46:05Z</time></trkpt><trkpt lat="59.3492938578" lon="34.6604139078"><ele>170.22</ele><time>2026-08-15T06:46:40Z</time></trkpt><trkpt lat="59.3492209353" lon="34.6603071224"><ele>171.69</ele><time>2026-08-15T06:47:10Z</time></trkpt><trkpt lat="59.3491982203" lon="34.6602321882"><ele>176.55</ele><time>2026-08-15T06:47:46Z</time></trkpt><trkpt lat="59.3492304906" lon="34.6600506362"><ele>176.51</ele><time>2026-08-15T06:48:03Z</time></trkpt><trkpt lat="59.3492858112" lon="34.6599264164"><ele>176.34</ele><time>2026-08-15T06:48:22Z</time></trkpt><trkpt lat="59.3492496014" lon="34.6598761249"><ele>177.59</ele><time>2026-08-15T06:48:46Z</time></trkpt><trkpt lat="59.3492426444" lon="34.6598710958"><ele>176.88</ele><time>2026-08-15T06:49:16Z</time></trkpt><trkpt lat="59.3492328376" lon="34.6599330381"><ele>178.60</ele><time>2026-08-15T06:49:46Z</time></trkpt><trkpt lat="59.3492262997" lon="34.6601642109"><ele>177.81</ele><time>2026-08-15T06:50:09Z</time></trkpt><trkpt lat="59.3492327537" lon="34.6602134127"><ele>177.94</ele><time>2026-08-15T06:50:36Z</time></trkpt><trkpt lat="59.3492725678" lon="34.6601761971"><ele>176.67</ele><time>2026-08-15T06:50:54Z</time></trkpt><trkpt lat="59.3491946161" lon="34.6603763569"><ele>177.48</ele><time>2026-08-15T06:51:27Z</time></trkpt><trkpt lat="59.3491766788" lon="34.6603852417"><ele>179.47</ele><time>2026-08-15T06:52:03Z</time></trkpt><trkpt lat="59.3492278084" lon="34.6604098845"><ele>180.01</ele><time>2026-08-15T06:52:22Z</time></trkpt><trkpt lat="59.3493321631" lon="34.6604478545"><ele>179.81</ele><time>2026-08-15T06:52:45Z</time></trkpt><trkpt lat="59.3493770901" lon="34.6604106389"><ele>180.62</ele><time>2026-08-15T06:53:01Z</time></trkpt><trkpt lat="59.3493803591" lon="34.6602327749"><ele>180.45</ele><time>2026-08-15T06:53:30Z</time></trkpt><trkpt lat="59.3493440654" lon="34.6603522170"><ele>181.95</ele><time>2026-08-15T06:53:59Z</time></trkpt><trkpt lat="59.3493185844" lon="34.6603098884"><ele>182.39</ele><time>2026-08-15T06:54:29Z</time></trkpt><trkpt lat="59.3492914271" lon="34.6603286639"><ele>182.41</ele><time>2026-08-15T06:55:05Z</time></trkpt><trkpt lat="59.3493234459" lon="34.6604592539"><ele>181.21</ele><time>2026-08-15T06:55:24Z</time></trkpt><trkpt lat="59.3493278883" lon="34.6605742536"><ele>181.09</ele><time>2026-08-15T06:55:42Z</time></trkpt><trkpt lat="59.3493761681" lon="34.6607827954"><ele>180.05</ele><time>2026-08-15T06:56:03Z</time></trkpt><trkpt lat="59.3492823746" lon="34.6609718911"><ele>179.59</ele><time>2026-08-15T06:56:29Z</time></trkpt><trkpt lat="59.3492796086" lon="34.6609523613"><ele>180.00</ele><time>2026-08-15T06:56:56Z</time></trkpt><trkpt lat="59.3493222725" lon="34.6609313227"><ele>181.11</ele><time>2026-08-15T06:57:25Z</time></trkpt><trkpt lat="59.3492914271" lon="34.6609801054"><ele>180.67</ele><time>2026-08-15T06:57:57Z</time></trkpt><trkpt lat="59.3492781837" lon="34.6609568875"><ele>181.72</ele><time>2026-08-15T06:58:27Z</time></trkpt><trkpt lat="59.3492595758" lon="34.6610445622"><ele>182.18</ele><time>2026-08-15T06:58:48Z</time></trkpt><trkpt lat="59.3492390402" lon="34.6611911617"><ele>181.74</ele><time>2026-08-15T06:59:07Z</time></trkpt><trkpt lat="59.3492569774" lon="34.6613302175"><ele>180.43</ele><time>2026-08-15T06:59:29Z</time></trkpt><trkpt lat="59.3492926843" lon="34.6613126993"><ele>180.54</ele><time>2026-08-15T06:59:53Z</time></trkpt><trkpt lat="59.3492103741" lon="34.6613518428"><ele>182.13</ele><time>2026-08-15T07:00:27Z</time></trkpt><trkpt lat="59.3490834720" lon="34.6614341531"><ele>182.30</ele><time>2026-08-15T07:00:56Z</time></trkpt><trkpt lat="59.3490289059" lon="34.6612467337"><ele>182.46</ele><time>2026-08-15T07:01:31Z</time></trkpt><trkpt lat="59.3491824623" lon="34.6613882203"><ele>181.31</ele><time>2026-08-15T07:01:57Z</time></trkpt><trkpt lat="59.3492187560" lon="34.6616495680"><ele>179.03</ele><time>2026-08-15T07:02:16Z</time></trkpt><trkpt lat="59.3491874076" lon="34.6618043818"><ele>177.98</ele><time>2026-08-15T07:02:33Z</time></trkpt><trkpt lat="59.3491864018" lon="34.6620841697"><ele>175.32</ele><time>2026-08-15T07:02:54Z</time></trkpt><trkpt lat="59.3490507826" lon="34.6622002590"><ele>176.05</ele><time>2026-08-15T07:03:11Z</time></trkpt><trkpt lat="59.3491170835" lon="34.6621715929"><ele>173.69</ele><time>2026-08-15T07:03:35Z</time></trkpt><trkpt lat="59.3491503596" lon="34.6622530650"><ele>175.31</ele><time>2026-08-15T07:04:06Z</time></trkpt><trkpt lat="59.3490529619" lon="34.6621444356"><ele>177.98</ele><time>2026-08-15T07:04:37Z</time></trkpt><trkpt lat="59.3490765989" lon="34.6620417573"><ele>181.37</ele><time>2026-08-15T07:05:06Z</time></trkpt><trkpt lat="59.3490573205" lon="34.6619429346"><ele>185.22</ele><time>2026-08-15T07:05:39Z</time></trkpt><trkpt lat="59.3490237929" lon="34.6620068885"><ele>184.97</ele><time>2026-08-15T07:06:08Z</time></trkpt><trkpt lat="59.3489811290" lon="34.6620197129"><ele>187.28</ele><time>2026-08-15T07:06:40Z</time></trkpt><trkpt lat="59.3489881698" lon="34.6620783024"><ele>186.58</ele><time>2026-08-15T07:07:04Z</time></trkpt><trkpt lat="59.3489818834" lon="34.6622012649"><ele>184.89</ele><time>2026-08-15T07:07:33Z</time></trkpt><trkpt lat="59.3489333522" lon="34.6625758521"><ele>181.42</ele><time>2026-08-15T07:07:54Z</time></trkpt><trkpt lat="59.3488802947" lon="34.6627390478"><ele>180.10</ele><time>2026-08-15T07:08:12Z</time></trkpt><trkpt lat="59.3488999084" lon="34.6629265510"><ele>177.91</ele><time>2026-08-15T07:08:34Z</time></trkpt><trkpt lat="59.3489172589" lon="34.6630844660"><ele>176.53</ele><time>2026-08-15T07:08:55Z</time></trkpt><trkpt lat="59.3489027582" lon="34.6630472504"><ele>176.49</ele><time>2026-08-15T07:09:05Z</time></trkpt><trkpt lat="59.3489388842" lon="34.6631301474"><ele>176.89</ele><time>2026-08-15T07:09:35Z</time></trkpt><trkpt lat="59.3488835637" lon="34.6631009784"><ele>177.12</ele><time>2026-08-15T07:10:05Z</time></trkpt><trkpt lat="59.3489020877" lon="34.6631114557"><ele>178.22</ele><time>2026-08-15T07:10:37Z</time></trkpt><trkpt lat="59.3488844857" lon="34.6630302351"><ele>180.82</ele><time>2026-08-15T07:11:06Z</time></trkpt><trkpt lat="59.3488684762" lon="34.6631923411"><ele>182.67</ele><time>2026-08-15T07:11:32Z</time></trkpt><trkpt lat="59.3488729186" lon="34.6632010583"><ele>181.15</ele><time>2026-08-15T07:11:56Z</time></trkpt><trkpt lat="59.3488257285" lon="34.6632164810"><ele>181.07</ele><time>2026-08-15T07:12:24Z</time></trkpt><trkpt lat="59.3488318473" lon="34.6632752381"><ele>181.33</ele><time>2026-08-15T07:12:36Z</time></trkpt><trkpt lat="59.3490237929" lon="34.6632452309"><ele>179.67</ele><time>2026-08-15T07:13:01Z</time></trkpt><trkpt lat="59.3489983957" lon="34.6632942650"><ele>178.03</ele><time>2026-08-15T07:13:30Z</time></trkpt><trkpt lat="59.3489347771" lon="34.6632667724"><ele>177.97</ele><time>2026-08-15T07:13:56Z</time></trkpt><trkpt lat="59.3489189353" lon="34.6632659342"><ele>177.56</ele><time>2026-08-15T07:14:19Z</time></trkpt><trkpt lat="59.3489304185" lon="34.6632607374"><ele>178.51</ele><time>2026-08-15T07:14:50Z</time></trkpt><trkpt lat="59.3487618584" lon="34.6632526908"><ele>178.40</ele><time>2026-08-15T07:15:15Z</time></trkpt><trkpt lat="59.3488774449" lon="34.6634339914"><ele>178.30</ele><time>2026-08-15T07:15:40Z</time></trkpt><trkpt lat="59.3488942087" lon="34.6635678504"><ele>177.77</ele><time>2026-08-15T07:16:00Z</time></trkpt><trkpt lat="59.3489288259" lon="34.6637202334"><ele>176.79</ele><time>2026-08-15T07:16:19Z</time></trkpt><trkpt lat="59.3489346094" lon="34.6638702694"><ele>175.45</ele><time>2026-08-15T07:16:42Z</time></trkpt><trkpt lat="59.3488980643" lon="34.6639635600"><ele>174.96</ele><time>2026-08-15T07:17:04Z</time></trkpt><trkpt lat="59.3488669675" lon="34.6640771348"><ele>174.34</ele><time>2026-08-15T07:17:27Z</time></trkpt><trkpt lat="59.3487640377" lon="34.6640984248"><ele>172.58</ele><time>2026-08-15T07:17:58Z</time></trkpt><trkpt lat="59.3488530535" lon="34.6641019452"><ele>170.12</ele><time>2026-08-15T07:18:21Z</time></trkpt><trkpt lat="59.3488850724" lon="34.6640464570"><ele>169.52</ele><time>2026-08-15T07:18:48Z</time></trkpt><trkpt lat="59.3489184324" lon="34.6640400868"><ele>167.70</ele><time>2026-08-15T07:19:18Z</time></trkpt><trkpt lat="59.3488896824" lon="34.6639970876"><ele>167.58</ele><time>2026-08-15T07:20:01Z</time></trkpt><trkpt lat="59.3488138262" lon="34.6640079003"><ele>167.98</ele><time>2026-08-15T07:20:38Z</time></trkpt><trkpt lat="59.3488855753" lon="34.6641020291"><ele>168.41</ele><time>2026-08-15T07:21:03Z</time></trkpt><trkpt lat="59.3488450907" lon="34.6641320363"><ele>168.09</ele><time>2026-08-15T07:21:33Z</time></trkpt><trkpt lat="59.3488719966" lon="34.6641739458"><ele>167.97</ele><time>2026-08-15T07:21:56Z</time></trkpt><trkpt lat="59.3488799594" lon="34.6642825752"><ele>168.00</ele><time>2026-08-15T07:22:13Z</time></trkpt><trkpt lat="59.3488885928" lon="34.6644234750"><ele>168.36</ele><time>2026-08-15T07:22:31Z</time></trkpt><trkpt lat="59.3488998245" lon="34.6645819768"><ele>169.75</ele><time>2026-08-15T07:22:50Z</time></trkpt><trkpt lat="59.3488778640" lon="34.6647191048"><ele>170.61</ele><time>2026-08-15T07:23:09Z</time></trkpt><trkpt lat="59.3488840666" lon="34.6648884192"><ele>170.37</ele><time>2026-08-15T07:23:28Z</time></trkpt><trkpt lat="59.3488595076" lon="34.6650240384"><ele>170.00</ele><time>2026-08-15T07:23:44Z</time></trkpt><trkpt lat="59.3488498684" lon="34.6650533751"><ele>171.02</ele><time>2026-08-15T07:23:57Z</time></trkpt><trkpt lat="59.3488070369" lon="34.6650677919"><ele>171.94</ele><time>2026-08-15T07:24:26Z</time></trkpt><trkpt lat="59.3487952184" lon="34.6650228649"><ele>172.98</ele><time>2026-08-15T07:25:00Z</time></trkpt><trkpt lat="59.3488364574" lon="34.6648369543"><ele>174.55</ele><time>2026-08-15T07:25:45Z</time></trkpt><trkpt lat="59.3487849087" lon="34.6650054306"><ele>173.64</ele><time>2026-08-15T07:26:10Z</time></trkpt><trkpt lat="59.3487745989" lon="34.6651335899"><ele>172.66</ele><time>2026-08-15T07:26:29Z</time></trkpt><trkpt lat="59.3487865850" lon="34.6652998868"><ele>172.49</ele><time>2026-08-15T07:26:49Z</time></trkpt><trkpt lat="59.3488530535" lon="34.6652348433"><ele>171.48</ele><time>2026-08-15T07:27:06Z</time></trkpt><trkpt lat="59.3488719128" lon="34.6653005574"><ele>171.93</ele><time>2026-08-15T07:27:33Z</time></trkpt><trkpt lat="59.3488337751" lon="34.6653564647"><ele>170.50</ele><time>2026-08-15T07:28:04Z</time></trkpt><trkpt lat="59.3488182686" lon="34.6653418802"><ele>170.90</ele><time>2026-08-15T07:28:34Z</time></trkpt><trkpt lat="59.3488377146" lon="34.6652672812"><ele>169.96</ele><time>2026-08-15T07:28:57Z</time></trkpt><trkpt lat="59.3488638662" lon="34.6653343365"><ele>170.48</ele><time>2026-08-15T07:29:15Z</time></trkpt><trkpt lat="59.3488408998" lon="34.6652993001"><ele>170.46</ele><time>2026-08-15T07:29:46Z</time></trkpt><trkpt lat="59.3488439173" lon="34.6652949415"><ele>169.15</ele><time>2026-08-15T07:30:16Z</time></trkpt><trkpt lat="59.3488455098" lon="34.6652430575"><ele>168.95</ele><time>2026-08-15T07:30:40Z</time></trkpt><trkpt lat="59.3488153350" lon="34.6652440634"><ele>168.52</ele><time>2026-08-15T07:31:07Z</time></trkpt><trkpt lat="59.3488191906" lon="34.6653072629"><ele>169.18</ele><time>2026-08-15T07:31:26Z</time></trkpt><trkpt lat="59.3487856630" lon="34.6654406190"><ele>171.72</ele><time>2026-08-15T07:32:00Z</time></trkpt><trkpt lat="59.3487771135" lon="34.6655772440"><ele>171.77</ele><time>2026-08-15T07:32:22Z</time></trkpt><trkpt lat="59.3488219567" lon="34.6655998752"><ele>171.81</ele><time>2026-08-15T07:32:42Z</time></trkpt><trkpt lat="59.3488562386" lon="34.6656522620"><ele>169.96</ele><time>2026-08-15T07:33:07Z</time></trkpt><trkpt lat="59.3488335237" lon="34.6657857019"><ele>169.58</ele><time>2026-08-15T07:33:25Z</time></trkpt><trkpt lat="59.3488239683" lon="34.6658918168"><ele>169.58</ele><time>2026-08-15T07:33:45Z</time></trkpt><trkpt lat="59.3488342781" lon="34.6660733689"><ele>169.07</ele><time>2026-08-15T07:34:03Z</time></trkpt><trkpt lat="59.3488116469" lon="34.6662236564"><ele>168.99</ele><time>2026-08-15T07:34:21Z</time></trkpt><trkpt lat="59.3487947993" lon="34.6663701721"><ele>167.88</ele><time>2026-08-15T07:34:41Z</time></trkpt><trkpt lat="59.3488239683" lon="34.6663431823"><ele>167.53</ele><time>2026-08-15T07:35:09Z</time></trkpt><trkpt lat="59.3488001637" lon="34.6663363930"><ele>167.00</ele><time>2026-08-15T07:35:33Z</time></trkpt><trkpt lat="59.3487770297" lon="34.6663038712"><ele>167.23</ele><time>2026-08-15T07:35:57Z</time></trkpt><trkpt lat="59.3487884291" lon="34.6662911307"><ele>166.33</ele><time>2026-08-15T07:36:26Z</time></trkpt><trkpt lat="59.3487786222" lon="34.6663020272"><ele>166.26</ele><time>2026-08-15T07:36:53Z</time></trkpt><trkpt lat="59.3487980682" lon="34.6663100738"><ele>166.35</ele><time>2026-08-15T07:37:17Z</time></trkpt><trkpt lat="59.3487467710" lon="34.6662660688"><ele>167.06</ele><time>2026-08-15T07:37:45Z</time></trkpt><trkpt lat="59.3486865051" lon="34.6663118340"><ele>167.44</ele><time>2026-08-15T07:38:10Z</time></trkpt><trkpt lat="59.3486726750" lon="34.6663892828"><ele>166.19</ele><time>2026-08-15T07:38:38Z</time></trkpt><trkpt lat="59.3487138301" lon="34.6663733572"><ele>164.51</ele><time>2026-08-15T07:39:02Z</time></trkpt><trkpt lat="59.3487184402" lon="34.6663641371"><ele>163.63</ele><time>2026-08-15T07:39:26Z</time></trkpt><trkpt lat="59.3487876747" lon="34.6663605329"><ele>164.62</ele><time>2026-08-15T07:39:57Z</time></trkpt><trkpt lat="59.3488087971" lon="34.6663932223"><ele>169.78</ele><time>2026-08-15T07:40:27Z</time></trkpt><trkpt lat="59.3488326017" lon="34.6663063020"><ele>173.16</ele><time>2026-08-15T07:41:04Z</time></trkpt><trkpt lat="59.3488070369" lon="34.6663382370"><ele>172.63</ele><time>2026-08-15T07:41:37Z</time></trkpt><trkpt lat="59.3486733455" lon="34.6662944835"><ele>171.94</ele><time>2026-08-15T07:42:06Z</time></trkpt><trkpt lat="59.3487281632" lon="34.6663885284"><ele>173.16</ele><time>2026-08-15T07:42:33Z</time></trkpt><trkpt lat="59.3487683963" lon="34.6664368082"><ele>172.42</ele><time>2026-08-15T07:43:02Z</time></trkpt><trkpt lat="59.3487933744" lon="34.6664497163"><ele>173.56</ele><time>2026-08-15T07:43:29Z</time></trkpt><trkpt lat="59.3486658018" lon="34.6665351279"><ele>174.79</ele><time>2026-08-15T07:44:01Z</time></trkpt><trkpt lat="59.3487220444" lon="34.6665206272"><ele>176.27</ele><time>2026-08-15T07:44:36Z</time></trkpt><trkpt lat="59.3487701565" lon="34.6665819827"><ele>175.93</ele><time>2026-08-15T07:44:55Z</time></trkpt><trkpt lat="59.3487962242" lon="34.6666984074"><ele>175.40</ele><time>2026-08-15T07:45:17Z</time></trkpt><trkpt lat="59.3487928715" lon="34.6667995770"><ele>174.58</ele><time>2026-08-15T07:45:37Z</time></trkpt><trkpt lat="59.3487520516" lon="34.6669544745"><ele>175.40</ele><time>2026-08-15T07:45:55Z</time></trkpt><trkpt lat="59.3487642054" lon="34.6670508664"><ele>174.16</ele><time>2026-08-15T07:46:09Z</time></trkpt><trkpt lat="59.3487586733" lon="34.6671226155"><ele>173.70</ele><time>2026-08-15T07:46:27Z</time></trkpt><trkpt lat="59.3487101421" lon="34.6672496852"><ele>173.62</ele><time>2026-08-15T07:46:45Z</time></trkpt><trkpt lat="59.3486506306" lon="34.6673911717"><ele>173.26</ele><time>2026-08-15T07:47:06Z</time></trkpt><trkpt lat="59.3485930469" lon="34.6675086860"><ele>172.86</ele><time>2026-08-15T07:47:26Z</time></trkpt><trkpt lat="59.3485480361" lon="34.6675704606"><ele>173.30</ele><time>2026-08-15T07:47:44Z</time></trkpt><trkpt lat="59.3485233095" lon="34.6674956102"><ele>174.67</ele><time>2026-08-15T07:48:17Z</time></trkpt><trkpt lat="59.3486074638" lon="34.6674428880"><ele>171.83</ele><time>2026-08-15T07:48:45Z</time></trkpt><trkpt lat="59.3485984951" lon="34.6674250346"><ele>169.63</ele><time>2026-08-15T07:49:10Z</time></trkpt><trkpt lat="59.3486336991" lon="34.6674070135"><ele>167.78</ele><time>2026-08-15T07:49:38Z</time></trkpt><trkpt lat="59.3486747704" lon="34.6674050018"><ele>167.84</ele><time>2026-08-15T07:50:05Z</time></trkpt><trkpt lat="59.3486540671" lon="34.6675160620"><ele>168.00</ele><time>2026-08-15T07:50:29Z</time></trkpt><trkpt lat="59.3486239761" lon="34.6675079316"><ele>166.77</ele><time>2026-08-15T07:51:06Z</time></trkpt><trkpt lat="59.3486184441" lon="34.6676452272"><ele>167.73</ele><time>2026-08-15T07:51:25Z</time></trkpt><trkpt lat="59.3486067932" lon="34.6677873004"><ele>167.88</ele><time>2026-08-15T07:51:42Z</time></trkpt><trkpt lat="59.3486218806" lon="34.6679182258"><ele>167.87</ele><time>2026-08-15T07:51:59Z</time></trkpt><trkpt lat="59.3486083858" lon="34.6680126898"><ele>168.66</ele><time>2026-08-15T07:52:19Z</time></trkpt><trkpt lat="59.3486061227" lon="34.6681831777"><ele>168.12</ele><time>2026-08-15T07:52:37Z</time></trkpt><trkpt lat="59.3486090563" lon="34.6682988480"><ele>169.13</ele><time>2026-08-15T07:52:53Z</time></trkpt><trkpt lat="59.3486105651" lon="34.6683871094"><ele>170.42</ele><time>2026-08-15T07:53:16Z</time></trkpt><trkpt lat="59.3486077990" lon="34.6684000175"><ele>171.92</ele><time>2026-08-15T07:53:40Z</time></trkpt><trkpt lat="59.3485943042" lon="34.6684211399"><ele>172.00</ele><time>2026-08-15T07:53:45Z</time></trkpt><trkpt lat="59.3486184441" lon="34.6684233192"><ele>173.57</ele><time>2026-08-15T07:54:17Z</time></trkpt><trkpt lat="59.3486129120" lon="34.6683922224"><ele>176.02</ele><time>2026-08-15T07:54:49Z</time></trkpt><trkpt lat="59.3486129958" lon="34.6684095729"><ele>176.03</ele><time>2026-08-15T07:55:15Z</time></trkpt><trkpt lat="59.3486088887" lon="34.6685161069"><ele>175.83</ele><time>2026-08-15T07:55:40Z</time></trkpt><trkpt lat="59.3486129958" lon="34.6686291788"><ele>177.13</ele><time>2026-08-15T07:56:07Z</time></trkpt><trkpt lat="59.3486074638" lon="34.6686826553"><ele>176.84</ele><time>2026-08-15T07:56:24Z</time></trkpt><trkpt lat="59.3486576714" lon="34.6686728485"><ele>175.45</ele><time>2026-08-15T07:56:54Z</time></trkpt><trkpt lat="59.3486804701" lon="34.6685083117"><ele>174.04</ele><time>2026-08-15T07:57:15Z</time></trkpt><trkpt lat="59.3487090524" lon="34.6684229001"><ele>172.39</ele><time>2026-08-15T07:57:43Z</time></trkpt><trkpt lat="59.3486293405" lon="34.6685640514"><ele>170.81</ele><time>2026-08-15T07:58:01Z</time></trkpt><trkpt lat="59.3485746905" lon="34.6687355451"><ele>170.50</ele><time>2026-08-15T07:58:23Z</time></trkpt><trkpt lat="59.3485845812" lon="34.6688912809"><ele>170.64</ele><time>2026-08-15T07:58:40Z</time></trkpt><trkpt lat="59.3485969026" lon="34.6690446697"><ele>171.10</ele><time>2026-08-15T07:58:56Z</time></trkpt><trkpt lat="59.3485818151" lon="34.6691734158"><ele>170.21</ele><time>2026-08-15T07:59:17Z</time></trkpt><trkpt lat="59.3485847488" lon="34.6693272237"><ele>170.60</ele><time>2026-08-15T07:59:36Z</time></trkpt><trkpt lat="59.3486112356" lon="34.6694623400"><ele>171.41</ele><time>2026-08-15T07:59:57Z</time></trkpt><trkpt lat="59.3485823181" lon="34.6696160641"><ele>171.72</ele><time>2026-08-15T08:00:17Z</time></trkpt><trkpt lat="59.3485554121" lon="34.6696345881"><ele>171.17</ele><time>2026-08-15T08:00:37Z</time></trkpt><trkpt lat="59.3485935498" lon="34.6695894096"><ele>172.69</ele><time>2026-08-15T08:00:59Z</time></trkpt><trkpt lat="59.3486461882" lon="34.6696261223"><ele>170.24</ele><time>2026-08-15T08:02:56Z</time></trkpt><trkpt lat="59.3486399855" lon="34.6696335822"><ele>167.96</ele><time>2026-08-15T08:03:36Z</time></trkpt><trkpt lat="59.3486113194" lon="34.6696676966"><ele>167.08</ele><time>2026-08-15T08:04:09Z</time></trkpt><trkpt lat="59.3486428354" lon="34.6696790121"><ele>167.03</ele><time>2026-08-15T08:04:39Z</time></trkpt><trkpt lat="59.3486354593" lon="34.6697226819"><ele>167.31</ele><time>2026-08-15T08:05:09Z</time></trkpt><trkpt lat="59.3485917058" lon="34.6697264537"><ele>167.61</ele><time>2026-08-15T08:05:41Z</time></trkpt><trkpt lat="59.3486258201" lon="34.6697042417"><ele>168.46</ele><time>2026-08-15T08:06:08Z</time></trkpt><trkpt lat="59.3486039434" lon="34.6697613224"><ele>169.57</ele><time>2026-08-15T08:06:45Z</time></trkpt><trkpt lat="59.3485451862" lon="34.6697333269"><ele>170.53</ele><time>2026-08-15T08:07:17Z</time></trkpt><trkpt lat="59.3485684041" lon="34.6696715523"><ele>171.28</ele><time>2026-08-15T08:07:45Z</time></trkpt><trkpt lat="59.3485930469" lon="34.6697376855"><ele>169.59</ele><time>2026-08-15T08:08:26Z</time></trkpt><trkpt lat="59.3486652151" lon="34.6697122883"><ele>168.42</ele><time>2026-08-15T08:08:52Z</time></trkpt><trkpt lat="59.3487242237" lon="34.6697210055"><ele>168.34</ele><time>2026-08-15T08:09:49Z</time></trkpt><trkpt lat="59.3486839905" lon="34.6696869750"><ele>169.24</ele><time>2026-08-15T08:10:21Z</time></trkpt><trkpt lat="59.3485931307" lon="34.6697236877"><ele>169.64</ele><time>2026-08-15T08:10:51Z</time></trkpt><trkpt lat="59.3486048654" lon="34.6696618292"><ele>170.40</ele><time>2026-08-15T08:11:19Z</time></trkpt><trkpt lat="59.3485710863" lon="34.6697370149"><ele>169.98</ele><time>2026-08-15T08:11:55Z</time></trkpt><trkpt lat="59.3486199528" lon="34.6696898248"><ele>170.09</ele><time>2026-08-15T08:12:27Z</time></trkpt><trkpt lat="59.3486231379" lon="34.6696727257"><ele>168.99</ele><time>2026-08-15T08:13:01Z</time></trkpt><trkpt lat="59.3486348726" lon="34.6695972886"><ele>168.56</ele><time>2026-08-15T08:13:32Z</time></trkpt><trkpt lat="59.3486715853" lon="34.6696793474"><ele>170.92</ele><time>2026-08-15T08:14:26Z</time></trkpt><trkpt lat="59.3486637063" lon="34.6696642600"><ele>170.92</ele><time>2026-08-15T08:14:59Z</time></trkpt><trkpt lat="59.3486211263" lon="34.6696796827"><ele>169.58</ele><time>2026-08-15T08:15:24Z</time></trkpt><trkpt lat="59.3486088887" lon="34.6697045770"><ele>170.27</ele><time>2026-08-15T08:15:54Z</time></trkpt><trkpt lat="59.3486345373" lon="34.6696516871"><ele>172.83</ele><time>2026-08-15T08:16:26Z</time></trkpt><trkpt lat="59.3487054482" lon="34.6696750727"><ele>173.70</ele><time>2026-08-15T08:16:59Z</time></trkpt><trkpt lat="59.3486810569" lon="34.6697396133"><ele>174.38</ele><time>2026-08-15T08:17:40Z</time></trkpt><trkpt lat="59.3486086372" lon="34.6697570477"><ele>173.78</ele><time>2026-08-15T08:18:27Z</time></trkpt><trkpt lat="59.3486271612" lon="34.6697298065"><ele>173.75</ele><time>2026-08-15T08:18:57Z</time></trkpt><trkpt lat="59.3486310169" lon="34.6697362605"><ele>174.28</ele><time>2026-08-15T08:19:27Z</time></trkpt><trkpt lat="59.3486347888" lon="34.6696915012"><ele>176.10</ele><time>2026-08-15T08:20:02Z</time></trkpt><trkpt lat="59.3486057874" lon="34.6697420441"><ele>175.40</ele><time>2026-08-15T08:20:35Z</time></trkpt><trkpt lat="59.3486277480" lon="34.6697079297"><ele>174.75</ele><time>2026-08-15T08:21:08Z</time></trkpt><trkpt lat="59.3486631196" lon="34.6697804332"><ele>173.26</ele><time>2026-08-15T08:21:38Z</time></trkpt><trkpt lat="59.3486219645" lon="34.6697223466"><ele>170.63</ele><time>2026-08-15T08:22:11Z</time></trkpt><trkpt lat="59.3485823181" lon="34.6696890704"><ele>170.96</ele><time>2026-08-15T08:22:56Z</time></trkpt><trkpt lat="59.3486011773" lon="34.6697308123"><ele>167.13</ele><time>2026-08-15T08:23:29Z</time></trkpt><trkpt lat="59.3485901132" lon="34.6697448939"><ele>167.59</ele><time>2026-08-15T08:24:00Z</time></trkpt><trkpt lat="59.3485986628" lon="34.6696451493"><ele>167.30</ele><time>2026-08-15T08:24:52Z</time></trkpt><trkpt lat="59.3485919572" lon="34.6696763299"><ele>166.77</ele><time>2026-08-15T08:25:25Z</time></trkpt><trkpt lat="59.3485794682" lon="34.6696850471"><ele>167.18</ele><time>2026-08-15T08:25:53Z</time></trkpt><trkpt lat="59.3485987466" lon="34.6696523577"><ele>163.65</ele><time>2026-08-15T08:26:17Z</time></trkpt><trkpt lat="59.3486153428" lon="34.6695871465"><ele>163.99</ele><time>2026-08-15T08:27:09Z</time></trkpt><trkpt lat="59.3485275004" lon="34.6696166508"><ele>163.38</ele><time>2026-08-15T08:27:27Z</time></trkpt><trkpt lat="59.3484714255" lon="34.6696367674"><ele>164.05</ele><time>2026-08-15T08:27:50Z</time></trkpt><trkpt lat="59.3484424241" lon="34.6695687901"><ele>164.58</ele><time>2026-08-15T08:28:08Z</time></trkpt><trkpt lat="59.3484110758" lon="34.6695516910"><ele>165.82</ele><time>2026-08-15T08:28:25Z</time></trkpt><trkpt lat="59.3484042864" lon="34.6694254596"><ele>165.48</ele><time>2026-08-15T08:28:50Z</time></trkpt><trkpt lat="59.3483948149" lon="34.6693351027"><ele>166.69</ele><time>2026-08-15T08:29:13Z</time></trkpt><trkpt lat="59.3483945634" lon="34.6693409700"><ele>166.82</ele><time>2026-08-15T08:29:34Z</time></trkpt><trkpt lat="59.3483819067" lon="34.6692510322"><ele>167.46</ele><time>2026-08-15T08:29:55Z</time></trkpt><trkpt lat="59.3483295199" lon="34.6692298260"><ele>166.79</ele><time>2026-08-15T08:30:10Z</time></trkpt><trkpt lat="59.3482774682" lon="34.6691825520"><ele>164.82</ele><time>2026-08-15T08:30:26Z</time></trkpt><trkpt lat="59.3482448626" lon="34.6690554824"><ele>164.38</ele><time>2026-08-15T08:30:47Z</time></trkpt><trkpt lat="59.3482324574" lon="34.6690031793"><ele>163.82</ele><time>2026-08-15T08:31:05Z</time></trkpt><trkpt lat="59.3482115027" lon="34.6689532232"><ele>163.93</ele><time>2026-08-15T08:31:29Z</time></trkpt><trkpt lat="59.3482167833" lon="34.6689949650"><ele>166.20</ele><time>2026-08-15T08:32:01Z</time></trkpt><trkpt lat="59.3481826689" lon="34.6689867508"><ele>167.64</ele><time>2026-08-15T08:32:33Z</time></trkpt><trkpt lat="59.3482144363" lon="34.6689849067"><ele>170.12</ele><time>2026-08-15T08:33:03Z</time></trkpt><trkpt lat="59.3482006062" lon="34.6690071188"><ele>171.90</ele><time>2026-08-15T08:33:31Z</time></trkpt><trkpt lat="59.3482235726" lon="34.6690486930"><ele>171.31</ele><time>2026-08-15T08:34:16Z</time></trkpt><trkpt lat="59.3482244946" lon="34.6690584999"><ele>170.82</ele><time>2026-08-15T08:34:45Z</time></trkpt><trkpt lat="59.3482918851" lon="34.6689124871"><ele>169.97</ele><time>2026-08-15T08:35:07Z</time></trkpt><trkpt lat="59.3483632989" lon="34.6687444299"><ele>167.98</ele><time>2026-08-15T08:35:26Z</time></trkpt><trkpt lat="59.3484041188" lon="34.6686368063"><ele>167.54</ele><time>2026-08-15T08:35:43Z</time></trkpt><trkpt lat="59.3484128360" lon="34.6686247364"><ele>167.66</ele><time>2026-08-15T08:36:25Z</time></trkpt><trkpt lat="59.3484028615" lon="34.6685452759"><ele>166.45</ele><time>2026-08-15T08:36:44Z</time></trkpt><trkpt lat="59.3483731896" lon="34.6684024483"><ele>164.99</ele><time>2026-08-15T08:37:05Z</time></trkpt><trkpt lat="59.3482920527" lon="34.6682749595"><ele>164.73</ele><time>2026-08-15T08:37:25Z</time></trkpt><trkpt lat="59.3482290208" lon="34.6682305355"><ele>163.36</ele><time>2026-08-15T08:37:40Z</time></trkpt><trkpt lat="59.3482280150" lon="34.6681515779"><ele>162.98</ele><time>2026-08-15T08:37:54Z</time></trkpt><trkpt lat="59.3482352234" lon="34.6680905577"><ele>163.41</ele><time>2026-08-15T08:38:19Z</time></trkpt><trkpt lat="59.3482298590" lon="34.6680925693"><ele>163.90</ele><time>2026-08-15T08:38:52Z</time></trkpt><trkpt lat="59.3482177053" lon="34.6680636518"><ele>164.04</ele><time>2026-08-15T08:39:04Z</time></trkpt><trkpt lat="59.3482104130" lon="34.6680043917"><ele>163.92</ele><time>2026-08-15T08:39:36Z</time></trkpt><trkpt lat="59.3482169509" lon="34.6680356562"><ele>164.60</ele><time>2026-08-15T08:40:06Z</time></trkpt><trkpt lat="59.3482182082" lon="34.6681366581"><ele>165.03</ele><time>2026-08-15T08:40:37Z</time></trkpt><trkpt lat="59.3482280150" lon="34.6680132765"><ele>164.93</ele><time>2026-08-15T08:41:00Z</time></trkpt><trkpt lat="59.3482422642" lon="34.6679419465"><ele>164.43</ele><time>2026-08-15T08:41:20Z</time></trkpt><trkpt lat="59.3482639734" lon="34.6678788308"><ele>164.52</ele><time>2026-08-15T08:41:38Z</time></trkpt><trkpt lat="59.3482915498" lon="34.6678379271"><ele>165.08</ele><time>2026-08-15T08:41:59Z</time></trkpt><trkpt lat="59.3483328726" lon="34.6677753981"><ele>164.83</ele><time>2026-08-15T08:42:12Z</time></trkpt><trkpt lat="59.3483481277" lon="34.6677519288"><ele>165.83</ele><time>2026-08-15T08:42:37Z</time></trkpt><trkpt lat="59.3483430147" lon="34.6677382663"><ele>166.71</ele><time>2026-08-15T08:43:05Z</time></trkpt><trkpt lat="59.3483582698" lon="34.6676325705"><ele>166.26</ele><time>2026-08-15T08:43:24Z</time></trkpt><trkpt lat="59.3483356386" lon="34.6674999688"><ele>165.27</ele><time>2026-08-15T08:43:44Z</time></trkpt><trkpt lat="59.3482947350" lon="34.6674312372"><ele>165.05</ele><time>2026-08-15T08:44:09Z</time></trkpt><trkpt lat="59.3482890353" lon="34.6673423052"><ele>165.45</ele><time>2026-08-15T08:44:25Z</time></trkpt><trkpt lat="59.3482777197" lon="34.6672237851"><ele>165.92</ele><time>2026-08-15T08:44:42Z</time></trkpt><trkpt lat="59.3482897896" lon="34.6671566460"><ele>166.57</ele><time>2026-08-15T08:45:06Z</time></trkpt><trkpt lat="59.3483280949" lon="34.6672027465"><ele>166.87</ele><time>2026-08-15T08:45:36Z</time></trkpt><trkpt lat="59.3483460322" lon="34.6672898345"><ele>165.32</ele><time>2026-08-15T08:46:09Z</time></trkpt><trkpt lat="59.3483281787" lon="34.6671817917"><ele>165.06</ele><time>2026-08-15T08:46:38Z</time></trkpt><trkpt lat="59.3483686633" lon="34.6671761759"><ele>164.81</ele><time>2026-08-15T08:47:09Z</time></trkpt><trkpt lat="59.3483507261" lon="34.6671951190"><ele>162.76</ele><time>2026-08-15T08:47:40Z</time></trkpt><trkpt lat="59.3483675737" lon="34.6671030018"><ele>161.68</ele><time>2026-08-15T08:48:11Z</time></trkpt><trkpt lat="59.3483855948" lon="34.6669852361"><ele>162.08</ele><time>2026-08-15T08:48:27Z</time></trkpt><trkpt lat="59.3484071363" lon="34.6669002436"><ele>163.73</ele><time>2026-08-15T08:48:47Z</time></trkpt><trkpt lat="59.3484265823" lon="34.6668046061"><ele>163.67</ele><time>2026-08-15T08:49:10Z</time></trkpt><trkpt lat="59.3483985867" lon="34.6667126566"><ele>164.28</ele><time>2026-08-15T08:49:35Z</time></trkpt><trkpt lat="59.3484301027" lon="34.6667063702"><ele>164.31</ele><time>2026-08-15T08:49:54Z</time></trkpt><trkpt lat="59.3484104890" lon="34.6665432584"><ele>162.70</ele><time>2026-08-15T08:50:12Z</time></trkpt><trkpt lat="59.3484238163" lon="34.6663220599"><ele>161.88</ele><time>2026-08-15T08:50:29Z</time></trkpt><trkpt lat="59.3484528176" lon="34.6662112512"><ele>162.40</ele><time>2026-08-15T08:50:50Z</time></trkpt><trkpt lat="59.3484668992" lon="34.6661546733"><ele>163.23</ele><time>2026-08-15T08:51:12Z</time></trkpt><trkpt lat="59.3484730180" lon="34.6661850996"><ele>163.82</ele><time>2026-08-15T08:51:34Z</time></trkpt><trkpt lat="59.3484404963" lon="34.6662010252"><ele>163.89</ele><time>2026-08-15T08:52:01Z</time></trkpt><trkpt lat="59.3485047016" lon="34.6662415098"><ele>163.84</ele><time>2026-08-15T08:52:34Z</time></trkpt><trkpt lat="59.3484890275" lon="34.6662307810"><ele>164.47</ele><time>2026-08-15T08:53:02Z</time></trkpt><trkpt lat="59.3484518118" lon="34.6662809048"><ele>165.58</ele><time>2026-08-15T08:53:31Z</time></trkpt><trkpt lat="59.3485084735" lon="34.6662403364"><ele>167.56</ele><time>2026-08-15T08:54:00Z</time></trkpt><trkpt lat="59.3485342897" lon="34.6660535876"><ele>168.25</ele><time>2026-08-15T08:54:17Z</time></trkpt><trkpt lat="59.3485587649" lon="34.6658876259"><ele>167.50</ele><time>2026-08-15T08:54:38Z</time></trkpt><trkpt lat="59.3485545740" lon="34.6657071635"><ele>165.29</ele><time>2026-08-15T08:54:56Z</time></trkpt><trkpt lat="59.3485607766" lon="34.6655041538"><ele>163.60</ele><time>2026-08-15T08:55:15Z</time></trkpt><trkpt lat="59.3485514726" lon="34.6654288005"><ele>162.94</ele><time>2026-08-15T08:55:38Z</time></trkpt><trkpt lat="59.3484997563" lon="34.6653494239"><ele>163.26</ele><time>2026-08-15T08:56:01Z</time></trkpt><trkpt lat="59.3484974932" lon="34.6653057542"><ele>164.67</ele><time>2026-08-15T08:56:33Z</time></trkpt><trkpt lat="59.3485368881" lon="34.6652827878"><ele>165.88</ele><time>2026-08-15T08:57:04Z</time></trkpt><trkpt lat="59.3485337030" lon="34.6652945224"><ele>165.30</ele><time>2026-08-15T08:57:37Z</time></trkpt><trkpt lat="59.3485093955" lon="34.6652909182"><ele>165.09</ele><time>2026-08-15T08:58:04Z</time></trkpt><trkpt lat="59.3485190347" lon="34.6652949415"><ele>165.74</ele><time>2026-08-15T08:58:37Z</time></trkpt><trkpt lat="59.3485010136" lon="34.6652645152"><ele>166.97</ele><time>2026-08-15T08:59:05Z</time></trkpt><trkpt lat="59.3485177774" lon="34.6652258746"><ele>167.41</ele><time>2026-08-15T08:59:24Z</time></trkpt><trkpt lat="59.3485663924" lon="34.6652221028"><ele>166.82</ele><time>2026-08-15T08:59:41Z</time></trkpt><trkpt lat="59.3485431746" lon="34.6651890781"><ele>166.01</ele><time>2026-08-15T08:59:55Z</time></trkpt><trkpt lat="59.3485335354" lon="34.6651024930"><ele>166.06</ele><time>2026-08-15T09:00:19Z</time></trkpt><trkpt lat="59.3485163525" lon="34.6650867350"><ele>165.65</ele><time>2026-08-15T09:00:37Z</time></trkpt><trkpt lat="59.3485295121" lon="34.6649465058"><ele>163.57</ele><time>2026-08-15T09:00:55Z</time></trkpt><trkpt lat="59.3485615309" lon="34.6648022532"><ele>162.16</ele><time>2026-08-15T09:01:11Z</time></trkpt><trkpt lat="59.3485574238" lon="34.6646643709"><ele>159.52</ele><time>2026-08-15T09:01:31Z</time></trkpt><trkpt lat="59.3485659733" lon="34.6645591781"><ele>158.00</ele><time>2026-08-15T09:01:46Z</time></trkpt><trkpt lat="59.3485897779" lon="34.6644197870"><ele>157.28</ele><time>2026-08-15T09:02:04Z</time></trkpt><trkpt lat="59.3485896941" lon="34.6643000096"><ele>157.12</ele><time>2026-08-15T09:02:29Z</time></trkpt><trkpt lat="59.3486068770" lon="34.6642920468"><ele>158.71</ele><time>2026-08-15T09:03:02Z</time></trkpt><trkpt lat="59.3486188632" lon="34.6642525680"><ele>158.05</ele><time>2026-08-15T09:03:33Z</time></trkpt><trkpt lat="59.3486237247" lon="34.6642201301"><ele>160.34</ele><time>2026-08-15T09:04:06Z</time></trkpt><trkpt lat="59.3486114871" lon="34.6641575173"><ele>163.43</ele><time>2026-08-15T09:04:33Z</time></trkpt><trkpt lat="59.3486250658" lon="34.6640731953"><ele>164.52</ele><time>2026-08-15T09:05:02Z</time></trkpt><trkpt lat="59.3486377224" lon="34.6640027035"><ele>164.37</ele><time>2026-08-15T09:05:23Z</time></trkpt><trkpt lat="59.3486181926" lon="34.6639786474"><ele>164.23</ele><time>2026-08-15T09:05:46Z</time></trkpt><trkpt lat="59.3486219645" lon="34.6639424376"><ele>164.67</ele><time>2026-08-15T09:06:12Z</time></trkpt><trkpt lat="59.3485975731" lon="34.6639130171"><ele>163.74</ele><time>2026-08-15T09:06:41Z</time></trkpt><trkpt lat="59.3485929631" lon="34.6639218181"><ele>163.42</ele><time>2026-08-15T09:07:13Z</time></trkpt><trkpt lat="59.3485697452" lon="34.6640161984"><ele>162.94</ele><time>2026-08-15T09:07:47Z</time></trkpt><trkpt lat="59.3486294243" lon="34.6640247479"><ele>165.57</ele><time>2026-08-15T09:08:16Z</time></trkpt><trkpt lat="59.3486534804" lon="34.6639974229"><ele>163.83</ele><time>2026-08-15T09:08:45Z</time></trkpt><trkpt lat="59.3486685678" lon="34.6639818326"><ele>163.94</ele><time>2026-08-15T09:09:08Z</time></trkpt><trkpt lat="59.3486940488" lon="34.6639813296"><ele>166.37</ele><time>2026-08-15T09:09:37Z</time></trkpt><trkpt lat="59.3486852478" lon="34.6638561040"><ele>165.60</ele><time>2026-08-15T09:10:03Z</time></trkpt><trkpt lat="59.3486969825" lon="34.6637265198"><ele>165.31</ele><time>2026-08-15T09:10:24Z</time></trkpt><trkpt lat="59.3487160932" lon="34.6636266075"><ele>165.17</ele><time>2026-08-15T09:11:00Z</time></trkpt><trkpt lat="59.3487474415" lon="34.6635950077"><ele>164.96</ele><time>2026-08-15T09:11:26Z</time></trkpt><trkpt lat="59.3487410713" lon="34.6635450516"><ele>165.01</ele><time>2026-08-15T09:11:50Z</time></trkpt><trkpt lat="59.3487119023" lon="34.6635005437"><ele>162.70</ele><time>2026-08-15T09:12:17Z</time></trkpt><trkpt lat="59.3487161770" lon="34.6633489151"><ele>162.45</ele><time>2026-08-15T09:12:52Z</time></trkpt><trkpt lat="59.3487366289" lon="34.6632583067"><ele>164.06</ele><time>2026-08-15T09:13:12Z</time></trkpt><trkpt lat="59.3487363774" lon="34.6631092764"><ele>163.69</ele><time>2026-08-15T09:13:33Z</time></trkpt><trkpt lat="59.3487224635" lon="34.6628933586"><ele>162.77</ele><time>2026-08-15T09:13:53Z</time></trkpt><trkpt lat="59.3487552367" lon="34.6626847330"><ele>160.08</ele><time>2026-08-15T09:14:16Z</time></trkpt><trkpt lat="59.3487678934" lon="34.6626514569"><ele>160.04</ele><time>2026-08-15T09:14:47Z</time></trkpt><trkpt lat="59.3487676419" lon="34.6626954619"><ele>161.72</ele><time>2026-08-15T09:15:14Z</time></trkpt><trkpt lat="59.3487598468" lon="34.6626681369"><ele>160.95</ele><time>2026-08-15T09:15:44Z</time></trkpt><trkpt lat="59.3488124851" lon="34.6626605093"><ele>161.36</ele><time>2026-08-15T09:16:12Z</time></trkpt><trkpt lat="59.3488019239" lon="34.6626214497"><ele>161.57</ele><time>2026-08-15T09:16:43Z</time></trkpt><trkpt lat="59.3487653788" lon="34.6624528058"><ele>160.46</ele><time>2026-08-15T09:17:01Z</time></trkpt><trkpt lat="59.3487227987" lon="34.6623078827"><ele>158.29</ele><time>2026-08-15T09:17:14Z</time></trkpt><trkpt lat="59.3486782908" lon="34.6622112393"><ele>158.88</ele><time>2026-08-15T09:17:45Z</time></trkpt><trkpt lat="59.3487205356" lon="34.6622021869"><ele>161.56</ele><time>2026-08-15T09:18:30Z</time></trkpt><trkpt lat="59.3487056997" lon="34.6620508935"><ele>159.43</ele><time>2026-08-15T09:18:49Z</time></trkpt><trkpt lat="59.3487020954" lon="34.6617941558"><ele>156.68</ele><time>2026-08-15T09:19:06Z</time></trkpt><trkpt lat="59.3486813083" lon="34.6616382524"><ele>159.89</ele><time>2026-08-15T09:19:24Z</time></trkpt><trkpt lat="59.3487268221" lon="34.6614958439"><ele>163.58</ele><time>2026-08-15T09:19:46Z</time></trkpt><trkpt lat="59.3487348687" lon="34.6613625716"><ele>162.96</ele><time>2026-08-15T09:20:05Z</time></trkpt><trkpt lat="59.3487508781" lon="34.6613012999"><ele>164.00</ele><time>2026-08-15T09:20:28Z</time></trkpt><trkpt lat="59.3487725873" lon="34.6612555347"><ele>163.79</ele><time>2026-08-15T09:21:01Z</time></trkpt><trkpt lat="59.3487387244" lon="34.6612065844"><ele>164.08</ele><time>2026-08-15T09:21:36Z</time></trkpt><trkpt lat="59.3487297557" lon="34.6611951850"><ele>167.42</ele><time>2026-08-15T09:22:19Z</time></trkpt><trkpt lat="59.3487888481" lon="34.6609825362"><ele>166.91</ele><time>2026-08-15T09:22:38Z</time></trkpt><trkpt lat="59.3488254771" lon="34.6607977152"><ele>165.93</ele><time>2026-08-15T09:22:57Z</time></trkpt><trkpt lat="59.3488683086" lon="34.6606695559"><ele>164.99</ele><time>2026-08-15T09:23:17Z</time></trkpt><trkpt lat="59.3488272373" lon="34.6604092140"><ele>163.33</ele><time>2026-08-15T09:23:37Z</time></trkpt><trkpt lat="59.3487983197" lon="34.6603315137"><ele>161.71</ele><time>2026-08-15T09:23:55Z</time></trkpt><trkpt lat="59.3487923685" lon="34.6602876764"><ele>161.43</ele><time>2026-08-15T09:24:20Z</time></trkpt><trkpt lat="59.3488026783" lon="34.6601958107"><ele>162.57</ele><time>2026-08-15T09:24:50Z</time></trkpt><trkpt lat="59.3488253932" lon="34.6601844113"><ele>162.87</ele><time>2026-08-15T09:25:19Z</time></trkpt><trkpt lat="59.3488243874" lon="34.6602865029"><ele>161.80</ele><time>2026-08-15T09:25:39Z</time></trkpt><trkpt lat="59.3488162570" lon="34.6603207011"><ele>162.46</ele><time>2026-08-15T09:26:07Z</time></trkpt><trkpt lat="59.3488177657" lon="34.6602052823"><ele>165.58</ele><time>2026-08-15T09:26:37Z</time></trkpt><trkpt lat="59.3488293327" lon="34.6599425096"><ele>165.09</ele><time>2026-08-15T09:26:59Z</time></trkpt><trkpt lat="59.3488478567" lon="34.6596990991"><ele>164.79</ele><time>2026-08-15T09:27:18Z</time></trkpt><trkpt lat="59.3488860782" lon="34.6595145296"><ele>164.61</ele><time>2026-08-15T09:27:36Z</time></trkpt><trkpt lat="59.3489267305" lon="34.6593117714"><ele>164.00</ele><time>2026-08-15T09:27:54Z</time></trkpt><trkpt lat="59.3489182647" lon="34.6591962688"><ele>163.83</ele><time>2026-08-15T09:28:14Z</time></trkpt><trkpt lat="59.3489288259" lon="34.6591418702"><ele>163.55</ele><time>2026-08-15T09:29:14Z</time></trkpt><trkpt lat="59.3488841504" lon="34.6591303870"><ele>162.66</ele><time>2026-08-15T09:31:09Z</time></trkpt><trkpt lat="59.3489666283" lon="34.6592153795"><ele>166.49</ele><time>2026-08-15T09:32:54Z</time></trkpt><trkpt lat="59.3489679694" lon="34.6592900623"><ele>167.62</ele><time>2026-08-15T09:33:24Z</time></trkpt><trkpt lat="59.3488802109" lon="34.6593679301"><ele>166.54</ele><time>2026-08-15T09:33:56Z</time></trkpt><trkpt lat="59.3488554843" lon="34.6592857037"><ele>168.05</ele><time>2026-08-15T09:34:33Z</time></trkpt><trkpt lat="59.3488517962" lon="34.6592426207"><ele>167.27</ele><time>2026-08-15T09:35:07Z</time></trkpt><trkpt lat="59.3488859944" lon="34.6592535172"><ele>165.69</ele><time>2026-08-15T09:35:39Z</time></trkpt><trkpt lat="59.3488620222" lon="34.6592150442"><ele>165.95</ele><time>2026-08-15T09:36:11Z</time></trkpt><trkpt lat="59.3488694821" lon="34.6592321433"><ele>165.05</ele><time>2026-08-15T09:36:45Z</time></trkpt><trkpt lat="59.3488362897" lon="34.6592509188"><ele>166.59</ele><time>2026-08-15T09:37:17Z</time></trkpt><trkpt lat="59.3488191068" lon="34.6592188999"><ele>166.71</ele><time>2026-08-15T09:37:50Z</time></trkpt><trkpt lat="59.3488416541" lon="34.6591522638"><ele>166.54</ele><time>2026-08-15T09:38:37Z</time></trkpt><trkpt lat="59.3488942087" lon="34.6592049859"><ele>167.32</ele><time>2026-08-15T09:39:12Z</time></trkpt><trkpt lat="59.3488311768" lon="34.6591665130"><ele>167.32</ele><time>2026-08-15T09:39:41Z</time></trkpt><trkpt lat="59.3488585856" lon="34.6592301317"><ele>168.48</ele><time>2026-08-15T09:40:14Z</time></trkpt><trkpt lat="59.3488735054" lon="34.6591853723"><ele>167.74</ele><time>2026-08-15T09:40:40Z</time></trkpt><trkpt lat="59.3489007466" lon="34.6591904853"><ele>167.43</ele><time>2026-08-15T09:41:08Z</time></trkpt><trkpt lat="59.3488870841" lon="34.6591339912"><ele>169.07</ele><time>2026-08-15T09:41:36Z</time></trkpt><trkpt lat="59.3488392234" lon="34.6592717059"><ele>169.96</ele><time>2026-08-15T09:42:07Z</time></trkpt><trkpt lat="59.3488668837" lon="34.6592884697"><ele>169.34</ele><time>2026-08-15T09:42:34Z</time></trkpt><trkpt lat="59.3488105573" lon="34.6590626612"><ele>167.39</ele><time>2026-08-15T09:42:57Z</time></trkpt><trkpt lat="59.3487314321" lon="34.6588666085"><ele>167.20</ele><time>2026-08-15T09:43:15Z</time></trkpt><trkpt lat="59.3486590963" lon="34.6586740762"><ele>165.08</ele><time>2026-08-15T09:43:30Z</time></trkpt><trkpt lat="59.3485579267" lon="34.6585248783"><ele>162.19</ele><time>2026-08-15T09:43:48Z</time></trkpt><trkpt lat="59.3485026062" lon="34.6584199369"><ele>161.41</ele><time>2026-08-15T09:44:05Z</time></trkpt><trkpt lat="59.3485067971" lon="34.6584040951"><ele>159.64</ele><time>2026-08-15T09:44:29Z</time></trkpt><trkpt lat="59.3484788854" lon="34.6583803743"><ele>158.93</ele><time>2026-08-15T09:45:00Z</time></trkpt><trkpt lat="59.3485042825" lon="34.6584080346"><ele>161.27</ele><time>2026-08-15T09:45:29Z</time></trkpt><trkpt lat="59.3485286739" lon="34.6583564859"><ele>162.43</ele><time>2026-08-15T09:46:02Z</time></trkpt><trkpt lat="59.3485272489" lon="34.6583929472"><ele>166.54</ele><time>2026-08-15T09:46:25Z</time></trkpt><trkpt lat="59.3485326972" lon="34.6584139019"><ele>167.78</ele><time>2026-08-15T09:47:06Z</time></trkpt><trkpt lat="59.3485435937" lon="34.6584701445"><ele>167.03</ele><time>2026-08-15T09:47:28Z</time></trkpt><trkpt lat="59.3484923802" lon="34.6586434823"><ele>165.05</ele><time>2026-08-15T09:47:44Z</time></trkpt><trkpt lat="59.3484770413" lon="34.6588321589"><ele>163.23</ele><time>2026-08-15T09:47:56Z</time></trkpt><trkpt lat="59.3484812323" lon="34.6590662654"><ele>159.48</ele><time>2026-08-15T09:48:11Z</time></trkpt><trkpt lat="59.3484688271" lon="34.6591976937"><ele>158.57</ele><time>2026-08-15T09:48:30Z</time></trkpt><trkpt lat="59.3484777119" lon="34.6593241766"><ele>159.23</ele><time>2026-08-15T09:48:49Z</time></trkpt><trkpt lat="59.3484611157" lon="34.6593819279"><ele>160.19</ele><time>2026-08-15T09:49:00Z</time></trkpt><trkpt lat="59.3484413344" lon="34.6595336404"><ele>161.23</ele><time>2026-08-15T09:49:24Z</time></trkpt><trkpt lat="59.3484558351" lon="34.6596453711"><ele>161.42</ele><time>2026-08-15T09:49:41Z</time></trkpt><trkpt lat="59.3484525662" lon="34.6597074810"><ele>161.42</ele><time>2026-08-15T09:49:54Z</time></trkpt><trkpt lat="59.3484363053" lon="34.6598261688"><ele>163.61</ele><time>2026-08-15T09:50:21Z</time></trkpt><trkpt lat="59.3484571762" lon="34.6598885302"><ele>166.12</ele><time>2026-08-15T09:50:52Z</time></trkpt><trkpt lat="59.3484092318" lon="34.6598881949"><ele>168.36</ele><time>2026-08-15T09:51:23Z</time></trkpt><trkpt lat="59.3484470341" lon="34.6598896198"><ele>173.31</ele><time>2026-08-15T09:51:57Z</time></trkpt><trkpt lat="59.3484758679" lon="34.6600261610"><ele>172.34</ele><time>2026-08-15T09:52:16Z</time></trkpt><trkpt lat="59.3484425079" lon="34.6601512190"><ele>170.71</ele><time>2026-08-15T09:52:38Z</time></trkpt><trkpt lat="59.3483990896" lon="34.6602419950"><ele>170.90</ele><time>2026-08-15T09:52:58Z</time></trkpt><trkpt lat="59.3483407516" lon="34.6603463497"><ele>168.79</ele><time>2026-08-15T09:53:15Z</time></trkpt><trkpt lat="59.3483125884" lon="34.6605362836"><ele>166.26</ele><time>2026-08-15T09:53:33Z</time></trkpt><trkpt lat="59.3483561743" lon="34.6606449969"><ele>164.78</ele><time>2026-08-15T09:53:54Z</time></trkpt><trkpt lat="59.3483446073" lon="34.6608110424"><ele>163.39</ele><time>2026-08-15T09:54:15Z</time></trkpt><trkpt lat="59.3482493889" lon="34.6607949492"><ele>162.82</ele><time>2026-08-15T09:54:37Z</time></trkpt><trkpt lat="59.3482605368" lon="34.6608038340"><ele>163.63</ele><time>2026-08-15T09:55:00Z</time></trkpt><trkpt lat="59.3482797313" lon="34.6607980505"><ele>167.02</ele><time>2026-08-15T09:55:29Z</time></trkpt><trkpt lat="59.3482277635" lon="34.6607696358"><ele>165.29</ele><time>2026-08-15T09:55:55Z</time></trkpt><trkpt lat="59.3482006062" lon="34.6607605834"><ele>164.90</ele><time>2026-08-15T09:56:25Z</time></trkpt><trkpt lat="59.3481685873" lon="34.6608534548"><ele>163.06</ele><time>2026-08-15T09:56:51Z</time></trkpt><trkpt lat="59.3482033722" lon="34.6608626749"><ele>165.83</ele><time>2026-08-15T09:57:20Z</time></trkpt><trkpt lat="59.3482316192" lon="34.6608578134"><ele>167.24</ele><time>2026-08-15T09:57:43Z</time></trkpt><trkpt lat="59.3482120056" lon="34.6609713044"><ele>167.30</ele><time>2026-08-15T09:58:01Z</time></trkpt><trkpt lat="59.3482296076" lon="34.6609641798"><ele>167.93</ele><time>2026-08-15T09:58:24Z</time></trkpt><trkpt lat="59.3482104968" lon="34.6611163113"><ele>168.36</ele><time>2026-08-15T09:58:45Z</time></trkpt><trkpt lat="59.3482098263" lon="34.6612541936"><ele>168.93</ele><time>2026-08-15T09:59:05Z</time></trkpt><trkpt lat="59.3482243270" lon="34.6613838617"><ele>170.05</ele><time>2026-08-15T09:59:29Z</time></trkpt><trkpt lat="59.3482047971" lon="34.6615446266"><ele>168.88</ele><time>2026-08-15T09:59:43Z</time></trkpt><trkpt lat="59.3481916375" lon="34.6617809962"><ele>166.49</ele><time>2026-08-15T10:00:04Z</time></trkpt><trkpt lat="59.3481394183" lon="34.6618602052"><ele>165.94</ele><time>2026-08-15T10:00:22Z</time></trkpt><trkpt lat="59.3481449503" lon="34.6619311161"><ele>169.80</ele><time>2026-08-15T10:00:42Z</time></trkpt><trkpt lat="59.3481550924" lon="34.6618957445"><ele>173.13</ele><time>2026-08-15T10:01:25Z</time></trkpt><trkpt lat="59.3481474649" lon="34.6619068924"><ele>173.07</ele><time>2026-08-15T10:01:58Z</time></trkpt><trkpt lat="59.3481321260" lon="34.6618956607"><ele>171.85</ele><time>2026-08-15T10:02:22Z</time></trkpt><trkpt lat="59.3481289409" lon="34.6620548330"><ele>170.24</ele><time>2026-08-15T10:02:42Z</time></trkpt><trkpt lat="59.3481550924" lon="34.6622399893"><ele>168.48</ele><time>2026-08-15T10:02:57Z</time></trkpt><trkpt lat="59.3481481355" lon="34.6624748502"><ele>165.63</ele><time>2026-08-15T10:03:16Z</time></trkpt><trkpt lat="59.3481400050" lon="34.6626909357"><ele>165.72</ele><time>2026-08-15T10:03:35Z</time></trkpt><trkpt lat="59.3481301982" lon="34.6628180053"><ele>166.49</ele><time>2026-08-15T10:03:55Z</time></trkpt><trkpt lat="59.3481296115" lon="34.6628184244"><ele>166.62</ele><time>2026-08-15T10:04:39Z</time></trkpt><trkpt lat="59.3480778113" lon="34.6628226992"><ele>169.28</ele><time>2026-08-15T10:05:04Z</time></trkpt><trkpt lat="59.3481263425" lon="34.6628062706"><ele>167.27</ele><time>2026-08-15T10:05:39Z</time></trkpt><trkpt lat="59.3481152784" lon="34.6629189234"><ele>169.61</ele><time>2026-08-15T10:06:05Z</time></trkpt><trkpt lat="59.3481047172" lon="34.6630818676"><ele>169.42</ele><time>2026-08-15T10:06:24Z</time></trkpt><trkpt lat="59.3481128477" lon="34.6632889844"><ele>169.36</ele><time>2026-08-15T10:06:43Z</time></trkpt><trkpt lat="59.3481239956" lon="34.6634731349"><ele>169.68</ele><time>2026-08-15T10:07:01Z</time></trkpt><trkpt lat="59.3481382448" lon="34.6635611448"><ele>168.26</ele><time>2026-08-15T10:07:21Z</time></trkpt><trkpt lat="59.3481596187" lon="34.6635991149"><ele>170.25</ele><time>2026-08-15T10:07:46Z</time></trkpt><trkpt lat="59.3481440283" lon="34.6635836922"><ele>171.71</ele><time>2026-08-15T10:08:12Z</time></trkpt><trkpt lat="59.3481654022" lon="34.6635662578"><ele>171.97</ele><time>2026-08-15T10:08:33Z</time></trkpt><trkpt lat="59.3481627200" lon="34.6635233425"><ele>173.00</ele><time>2026-08-15T10:09:01Z</time></trkpt><trkpt lat="59.3481545895" lon="34.6634824388"><ele>172.77</ele><time>2026-08-15T10:09:35Z</time></trkpt><trkpt lat="59.3481207266" lon="34.6635125298"><ele>171.48</ele><time>2026-08-15T10:10:03Z</time></trkpt><trkpt lat="59.3481065612" lon="34.6635473985"><ele>172.10</ele><time>2026-08-15T10:10:29Z</time></trkpt><trkpt lat="59.3480913062" lon="34.6635815967"><ele>172.24</ele><time>2026-08-15T10:10:51Z</time></trkpt><trkpt lat="59.3481541704" lon="34.6636919864"><ele>173.63</ele><time>2026-08-15T10:11:24Z</time></trkpt><trkpt lat="59.3481155299" lon="34.6637238376"><ele>175.98</ele><time>2026-08-15T10:11:55Z</time></trkpt><trkpt lat="59.3481290247" lon="34.6637020446"><ele>176.82</ele><time>2026-08-15T10:12:25Z</time></trkpt><trkpt lat="59.3481336348" lon="34.6637263522"><ele>177.07</ele><time>2026-08-15T10:12:29Z</time></trkpt><trkpt lat="59.3481103331" lon="34.6637406014"><ele>179.74</ele><time>2026-08-15T10:13:00Z</time></trkpt><trkpt lat="59.3481386639" lon="34.6636103466"><ele>177.67</ele><time>2026-08-15T10:13:18Z</time></trkpt><trkpt lat="59.3481517397" lon="34.6635225043"><ele>177.42</ele><time>2026-08-15T10:13:41Z</time></trkpt><trkpt lat="59.3481203075" lon="34.6634956822"><ele>177.19</ele><time>2026-08-15T10:14:03Z</time></trkpt><trkpt lat="59.3481101654" lon="34.6637418587"><ele>175.02</ele><time>2026-08-15T10:14:23Z</time></trkpt><trkpt lat="59.3481165357" lon="34.6638982650"><ele>173.59</ele><time>2026-08-15T10:14:39Z</time></trkpt><trkpt lat="59.3481036276" lon="34.6640727762"><ele>173.16</ele><time>2026-08-15T10:14:59Z</time></trkpt><trkpt lat="59.3481066450" lon="34.6642384026"><ele>172.26</ele><time>2026-08-15T10:15:16Z</time></trkpt><trkpt lat="59.3481030408" lon="34.6644041967"><ele>172.30</ele><time>2026-08-15T10:15:34Z</time></trkpt><trkpt lat="59.3481094949" lon="34.6644684859"><ele>172.87</ele><time>2026-08-15T10:15:59Z</time></trkpt><trkpt lat="59.3481494766" lon="34.6645252313"><ele>175.94</ele><time>2026-08-15T10:16:31Z</time></trkpt><trkpt lat="59.3481759634" lon="34.6644689050"><ele>177.40</ele><time>2026-08-15T10:17:01Z</time></trkpt><trkpt lat="59.3482434377" lon="34.6645393968"><ele>176.78</ele><time>2026-08-15T10:17:33Z</time></trkpt><trkpt lat="59.3482316192" lon="34.6645367984"><ele>175.93</ele><time>2026-08-15T10:17:52Z</time></trkpt><trkpt lat="59.3481499795" lon="34.6646405663"><ele>176.95</ele><time>2026-08-15T10:18:13Z</time></trkpt><trkpt lat="59.3481092434" lon="34.6648178436"><ele>176.70</ele><time>2026-08-15T10:18:30Z</time></trkpt><trkpt lat="59.3480899651" lon="34.6649295744"><ele>176.20</ele><time>2026-08-15T10:18:48Z</time></trkpt><trkpt lat="59.3481127638" lon="34.6651048400"><ele>175.52</ele><time>2026-08-15T10:19:04Z</time></trkpt><trkpt lat="59.3480747100" lon="34.6650808677"><ele>174.88</ele><time>2026-08-15T10:19:26Z</time></trkpt><trkpt lat="59.3480621371" lon="34.6651635971"><ele>173.64</ele><time>2026-08-15T10:19:44Z</time></trkpt><trkpt lat="59.3480373267" lon="34.6653422993"><ele>172.28</ele><time>2026-08-15T10:20:05Z</time></trkpt><trkpt lat="59.3480388355" lon="34.6654568799"><ele>173.15</ele><time>2026-08-15T10:20:27Z</time></trkpt><trkpt lat="59.3480651546" lon="34.6655163076"><ele>172.86</ele><time>2026-08-15T10:20:54Z</time></trkpt><trkpt lat="59.3480511568" lon="34.6654826961"><ele>173.11</ele><time>2026-08-15T10:21:25Z</time></trkpt><trkpt lat="59.3480379973" lon="34.6655202471"><ele>176.66</ele><time>2026-08-15T10:21:57Z</time></trkpt><trkpt lat="59.3480215687" lon="34.6656571236"><ele>177.84</ele><time>2026-08-15T10:22:22Z</time></trkpt><trkpt lat="59.3479960877" lon="34.6657498274"><ele>176.98</ele><time>2026-08-15T10:22:42Z</time></trkpt><trkpt lat="59.3479426112" lon="34.6658214089"><ele>176.34</ele><time>2026-08-15T10:23:03Z</time></trkpt><trkpt lat="59.3479078263" lon="34.6659074072"><ele>176.37</ele><time>2026-08-15T10:23:16Z</time></trkpt><trkpt lat="59.3478806689" lon="34.6660045534"><ele>175.49</ele><time>2026-08-15T10:23:31Z</time></trkpt><trkpt lat="59.3478795793" lon="34.6660926472"><ele>174.51</ele><time>2026-08-15T10:23:48Z</time></trkpt><trkpt lat="59.3479044735" lon="34.6660869475"><ele>173.43</ele><time>2026-08-15T10:24:03Z</time></trkpt><trkpt lat="59.3479271885" lon="34.6661837585"><ele>173.44</ele><time>2026-08-15T10:24:20Z</time></trkpt><trkpt lat="59.3479539268" lon="34.6662659012"><ele>174.31</ele><time>2026-08-15T10:24:39Z</time></trkpt><trkpt lat="59.3479261827" lon="34.6663389076"><ele>175.25</ele><time>2026-08-15T10:24:56Z</time></trkpt><trkpt lat="59.3479180522" lon="34.6664529014"><ele>174.41</ele><time>2026-08-15T10:25:14Z</time></trkpt><trkpt lat="59.3479276914" lon="34.6665035281"><ele>175.03</ele><time>2026-08-15T10:25:38Z</time></trkpt><trkpt lat="59.3479479756" lon="34.6665456053"><ele>176.56</ele><time>2026-08-15T10:26:09Z</time></trkpt><trkpt lat="59.3479451258" lon="34.6665430069"><ele>178.12</ele><time>2026-08-15T10:26:36Z</time></trkpt><trkpt lat="59.3479562737" lon="34.6664781310"><ele>178.89</ele><time>2026-08-15T10:27:08Z</time></trkpt><trkpt lat="59.3479191419" lon="34.6665473655"><ele>178.25</ele><time>2026-08-15T10:27:28Z</time></trkpt><trkpt lat="59.3478962593" lon="34.6667207871"><ele>177.24</ele><time>2026-08-15T10:27:46Z</time></trkpt><trkpt lat="59.3478825968" lon="34.6668605134"><ele>176.88</ele><time>2026-08-15T10:28:01Z</time></trkpt><trkpt lat="59.3478867877" lon="34.6670223679"><ele>176.75</ele><time>2026-08-15T10:28:18Z</time></trkpt><trkpt lat="59.3478925712" lon="34.6670843102"><ele>176.17</ele><time>2026-08-15T10:28:34Z</time></trkpt><trkpt lat="59.3478966784" lon="34.6672985516"><ele>175.15</ele><time>2026-08-15T10:28:54Z</time></trkpt><trkpt lat="59.3479024619" lon="34.6673506033"><ele>174.68</ele><time>2026-08-15T10:29:10Z</time></trkpt><trkpt lat="59.3479141966" lon="34.6674043313"><ele>173.53</ele><time>2026-08-15T10:29:40Z</time></trkpt><trkpt lat="59.3479234166" lon="34.6674375236"><ele>176.10</ele><time>2026-08-15T10:30:06Z</time></trkpt><trkpt lat="59.3479145318" lon="34.6673821192"><ele>176.46</ele><time>2026-08-15T10:30:28Z</time></trkpt><trkpt lat="59.3478492368" lon="34.6673093643"><ele>174.34</ele><time>2026-08-15T10:30:57Z</time></trkpt><trkpt lat="59.3478270248" lon="34.6673417185"><ele>173.31</ele><time>2026-08-15T10:31:21Z</time></trkpt><trkpt lat="59.3477624841" lon="34.6673842147"><ele>172.86</ele><time>2026-08-15T10:31:35Z</time></trkpt><trkpt lat="59.3477036431" lon="34.6674715541"><ele>171.90</ele><time>2026-08-15T10:31:52Z</time></trkpt><trkpt lat="59.3477147911" lon="34.6675900742"><ele>171.74</ele><time>2026-08-15T10:32:10Z</time></trkpt><trkpt lat="59.3477210775" lon="34.6677243523"><ele>171.40</ele><time>2026-08-15T10:32:26Z</time></trkpt><trkpt lat="59.3476579618" lon="34.6678616479"><ele>172.21</ele><time>2026-08-15T10:32:44Z</time></trkpt><trkpt lat="59.3476893101" lon="34.6679445449"><ele>171.95</ele><time>2026-08-15T10:33:06Z</time></trkpt><trkpt lat="59.3476873823" lon="34.6681532543"><ele>172.03</ele><time>2026-08-15T10:33:23Z</time></trkpt><trkpt lat="59.3476684391" lon="34.6682463773"><ele>173.15</ele><time>2026-08-15T10:33:45Z</time></trkpt><trkpt lat="59.3476356659" lon="34.6682933997"><ele>173.03</ele><time>2026-08-15T10:34:10Z</time></trkpt><trkpt lat="59.3476756476" lon="34.6682707686"><ele>174.03</ele><time>2026-08-15T10:34:42Z</time></trkpt><trkpt lat="59.3476567045" lon="34.6682823356"><ele>174.29</ele><time>2026-08-15T10:35:08Z</time></trkpt><trkpt lat="59.3476819340" lon="34.6682885382"><ele>175.10</ele><time>2026-08-15T10:35:32Z</time></trkpt><trkpt lat="59.3476998713" lon="34.6683141869"><ele>176.75</ele><time>2026-08-15T10:36:02Z</time></trkpt><trkpt lat="59.3476558663" lon="34.6683206409"><ele>178.08</ele><time>2026-08-15T10:36:33Z</time></trkpt><trkpt lat="59.3476699479" lon="34.6683022007"><ele>177.44</ele><time>2026-08-15T10:36:58Z</time></trkpt><trkpt lat="59.3476635776" lon="34.6682045516"><ele>176.60</ele><time>2026-08-15T10:37:21Z</time></trkpt><trkpt lat="59.3476892263" lon="34.6681591216"><ele>177.04</ele><time>2026-08-15T10:37:47Z</time></trkpt><trkpt lat="59.3476894777" lon="34.6680892166"><ele>177.40</ele><time>2026-08-15T10:38:16Z</time></trkpt><trkpt lat="59.3476598058" lon="34.6681141108"><ele>177.49</ele><time>2026-08-15T10:38:41Z</time></trkpt><trkpt lat="59.3476414494" lon="34.6681053936"><ele>177.32</ele><time>2026-08-15T10:38:45Z</time></trkpt><trkpt lat="59.3476679362" lon="34.6681170445"><ele>175.94</ele><time>2026-08-15T10:39:14Z</time></trkpt><trkpt lat="59.3476592191" lon="34.6681159548"><ele>174.89</ele><time>2026-08-15T10:39:40Z</time></trkpt><trkpt lat="59.3475864641" lon="34.6681434475"><ele>176.41</ele><time>2026-08-15T10:40:12Z</time></trkpt><trkpt lat="59.3476450536" lon="34.6681183018"><ele>177.29</ele><time>2026-08-15T10:40:43Z</time></trkpt><trkpt lat="59.3476217519" lon="34.6681402624"><ele>176.00</ele><time>2026-08-15T10:41:10Z</time></trkpt><trkpt lat="59.3477266934" lon="34.6684679948"><ele>174.99</ele><time>2026-08-15T10:41:32Z</time></trkpt><trkpt lat="59.3477689382" lon="34.6686790511"><ele>174.79</ele><time>2026-08-15T10:41:50Z</time></trkpt><trkpt lat="59.3478112668" lon="34.6688749362"><ele>174.59</ele><time>2026-08-15T10:42:14Z</time></trkpt><trkpt lat="59.3478295393" lon="34.6688369662"><ele>174.12</ele><time>2026-08-15T10:42:45Z</time></trkpt><trkpt lat="59.3478739634" lon="34.6688478626"><ele>173.77</ele><time>2026-08-15T10:43:05Z</time></trkpt><trkpt lat="59.3478895538" lon="34.6690080408"><ele>173.39</ele><time>2026-08-15T10:43:24Z</time></trkpt><trkpt lat="59.3478642404" lon="34.6691394690"><ele>172.99</ele><time>2026-08-15T10:43:42Z</time></trkpt><trkpt lat="59.3478830997" lon="34.6692012437"><ele>172.46</ele><time>2026-08-15T10:43:49Z</time></trkpt><trkpt lat="59.3478863686" lon="34.6692864038"><ele>171.50</ele><time>2026-08-15T10:44:11Z</time></trkpt><trkpt lat="59.3479477242" lon="34.6693265531"><ele>170.65</ele><time>2026-08-15T10:44:36Z</time></trkpt><trkpt lat="59.3479193095" lon="34.6693338454"><ele>170.44</ele><time>2026-08-15T10:45:03Z</time></trkpt><trkpt lat="59.3478897214" lon="34.6693154052"><ele>170.14</ele><time>2026-08-15T10:45:31Z</time></trkpt><trkpt lat="59.3478937447" lon="34.6694653574"><ele>170.33</ele><time>2026-08-15T10:45:54Z</time></trkpt><trkpt lat="59.3479286134" lon="34.6695987973"><ele>170.69</ele><time>2026-08-15T10:46:21Z</time></trkpt><trkpt lat="59.3479823414" lon="34.6695668623"><ele>170.47</ele><time>2026-08-15T10:46:29Z</time></trkpt><trkpt lat="59.3481196370" lon="34.6696804371"><ele>170.41</ele><time>2026-08-15T10:46:47Z</time></trkpt><trkpt lat="59.3481940683" lon="34.6697489172"><ele>170.58</ele><time>2026-08-15T10:47:04Z</time></trkpt><trkpt lat="59.3481987622" lon="34.6699402761"><ele>170.67</ele><time>2026-08-15T10:47:23Z</time></trkpt><trkpt lat="59.3482748698" lon="34.6701226663"><ele>170.49</ele><time>2026-08-15T10:47:41Z</time></trkpt><trkpt lat="59.3483431824" lon="34.6702012885"><ele>170.10</ele><time>2026-08-15T10:47:54Z</time></trkpt><trkpt lat="59.3483369797" lon="34.6702282783"><ele>170.45</ele><time>2026-08-15T10:48:16Z</time></trkpt><trkpt lat="59.3483928032" lon="34.6703255922"><ele>169.77</ele><time>2026-08-15T10:48:38Z</time></trkpt><trkpt lat="59.3484731019" lon="34.6704579424"><ele>169.33</ele><time>2026-08-15T10:48:52Z</time></trkpt><trkpt lat="59.3485003430" lon="34.6707319468"><ele>169.63</ele><time>2026-08-15T10:49:12Z</time></trkpt><trkpt lat="59.3485620338" lon="34.6708884370"><ele>169.96</ele><time>2026-08-15T10:49:28Z</time></trkpt><trkpt lat="59.3486300949" lon="34.6709373035"><ele>169.84</ele><time>2026-08-15T10:49:39Z</time></trkpt><trkpt lat="59.3486749381" lon="34.6710422449"><ele>169.55</ele><time>2026-08-15T10:49:53Z</time></trkpt><trkpt lat="59.3487502914" lon="34.6711821388"><ele>168.74</ele><time>2026-08-15T10:50:07Z</time></trkpt><trkpt lat="59.3488352839" lon="34.6713017486"><ele>167.86</ele><time>2026-08-15T10:50:21Z</time></trkpt><trkpt lat="59.3489186838" lon="34.6714018285"><ele>167.18</ele><time>2026-08-15T10:50:36Z</time></trkpt><trkpt lat="59.3490163330" lon="34.6715650242"><ele>166.93</ele><time>2026-08-15T10:50:51Z</time></trkpt><trkpt lat="59.3491121382" lon="34.6716371924"><ele>165.89</ele><time>2026-08-15T10:51:04Z</time></trkpt><trkpt lat="59.3491561431" lon="34.6717292257"><ele>165.31</ele><time>2026-08-15T10:51:19Z</time></trkpt><trkpt lat="59.3491963763" lon="34.6717698779"><ele>165.71</ele><time>2026-08-15T10:51:37Z</time></trkpt><trkpt lat="59.3492151517" lon="34.6718640905"><ele>166.34</ele><time>2026-08-15T10:52:00Z</time></trkpt><trkpt lat="59.3492521159" lon="34.6719614882"><ele>167.14</ele><time>2026-08-15T10:52:18Z</time></trkpt><trkpt lat="59.3493195064" lon="34.6720917430"><ele>167.48</ele><time>2026-08-15T10:52:37Z</time></trkpt><trkpt lat="59.3493788503" lon="34.6722326428"><ele>167.28</ele><time>2026-08-15T10:52:53Z</time></trkpt><trkpt lat="59.3494102824" lon="34.6723590419"><ele>167.32</ele><time>2026-08-15T10:53:10Z</time></trkpt><trkpt lat="59.3494597357" lon="34.6725307032"><ele>167.11</ele><time>2026-08-15T10:53:26Z</time></trkpt><trkpt lat="59.3495732266" lon="34.6727289353"><ele>166.27</ele><time>2026-08-15T10:53:49Z</time></trkpt><trkpt lat="59.3496714626" lon="34.6728121676"><ele>165.28</ele><time>2026-08-15T10:54:07Z</time></trkpt><trkpt lat="59.3498043995" lon="34.6728423424"><ele>165.18</ele><time>2026-08-15T10:54:24Z</time></trkpt><trkpt lat="59.3498824351" lon="34.6728894487"><ele>163.72</ele><time>2026-08-15T10:54:37Z</time></trkpt><trkpt lat="59.3499943335" lon="34.6729774587"><ele>162.66</ele><time>2026-08-15T10:54:55Z</time></trkpt><trkpt lat="59.3500338960" lon="34.6732565761"><ele>159.80</ele><time>2026-08-15T10:55:16Z</time></trkpt><trkpt lat="59.3501351494" lon="34.6734053548"><ele>159.37</ele><time>2026-08-15T10:55:35Z</time></trkpt><trkpt lat="59.3503037095" lon="34.6735242102"><ele>159.89</ele><time>2026-08-15T10:55:59Z</time></trkpt><trkpt lat="59.3504128419" lon="34.6736079454"><ele>158.74</ele><time>2026-08-15T10:56:17Z</time></trkpt><trkpt lat="59.3504668213" lon="34.6735954564"><ele>160.88</ele><time>2026-08-15T10:56:35Z</time></trkpt><trkpt lat="59.3506104872" lon="34.6735453326"><ele>162.63</ele><time>2026-08-15T10:56:57Z</time></trkpt><trkpt lat="59.3507418316" lon="34.6735830512"><ele>163.31</ele><time>2026-08-15T10:57:15Z</time></trkpt><trkpt lat="59.3508230522" lon="34.6735812072"><ele>162.83</ele><time>2026-08-15T10:57:36Z</time></trkpt><trkpt lat="59.3507865909" lon="34.6736924350"><ele>163.09</ele><time>2026-08-15T10:57:55Z</time></trkpt><trkpt lat="59.3507514708" lon="34.6737219393"><ele>164.58</ele><time>2026-08-15T10:58:04Z</time></trkpt><trkpt lat="59.3507961463" lon="34.6741189063"><ele>160.18</ele><time>2026-08-15T10:58:25Z</time></trkpt><trkpt lat="59.3508210406" lon="34.6743048169"><ele>158.89</ele><time>2026-08-15T10:58:33Z</time></trkpt><trkpt lat="59.3507650495" lon="34.6746843494"><ele>159.01</ele><time>2026-08-15T10:58:51Z</time></trkpt><trkpt lat="59.3507029396" lon="34.6748283505"><ele>159.98</ele><time>2026-08-15T10:59:05Z</time></trkpt><trkpt lat="59.3506555818" lon="34.6749099903"><ele>164.55</ele><time>2026-08-15T10:59:33Z</time></trkpt><trkpt lat="59.3505924661" lon="34.6752452664"><ele>163.95</ele><time>2026-08-15T10:59:54Z</time></trkpt><trkpt lat="59.3504762091" lon="34.6755310893"><ele>161.74</ele><time>2026-08-15T11:00:14Z</time></trkpt><trkpt lat="59.3504627142" lon="34.6757162455"><ele>160.46</ele><time>2026-08-15T11:00:23Z</time></trkpt><trkpt lat="59.3504596129" lon="34.6759897470"><ele>159.03</ele><time>2026-08-15T11:00:36Z</time></trkpt><trkpt lat="59.3504228164" lon="34.6761058364"><ele>161.15</ele><time>2026-08-15T11:00:59Z</time></trkpt><trkpt lat="59.3503453676" lon="34.6763710398"><ele>161.94</ele><time>2026-08-15T11:01:18Z</time></trkpt><trkpt lat="59.3503255863" lon="34.6767205652"><ele>162.58</ele><time>2026-08-15T11:01:36Z</time></trkpt><trkpt lat="59.3502526637" lon="34.6769743692"><ele>161.82</ele><time>2026-08-15T11:01:51Z</time></trkpt><trkpt lat="59.3501851894" lon="34.6771865990"><ele>160.41</ele><time>2026-08-15T11:02:09Z</time></trkpt><trkpt lat="59.3501359038" lon="34.6774425823"><ele>158.28</ele><time>2026-08-15T11:02:24Z</time></trkpt><trkpt lat="59.3500515819" lon="34.6778382082"><ele>155.86</ele><time>2026-08-15T11:02:44Z</time></trkpt><trkpt lat="59.3499966804" lon="34.6781302337"><ele>153.69</ele><time>2026-08-15T11:03:01Z</time></trkpt><trkpt lat="59.3499567825" lon="34.6784346644"><ele>149.30</ele><time>2026-08-15T11:03:17Z</time></trkpt><trkpt lat="59.3499609735" lon="34.6785073355"><ele>148.11</ele><time>2026-08-15T11:03:20Z</time></trkpt><trkpt lat="59.3499658350" lon="34.6787416097"><ele>151.82</ele><time>2026-08-15T11:03:30Z</time></trkpt><trkpt lat="59.3499595486" lon="34.6790288575"><ele>149.05</ele><time>2026-08-15T11:03:45Z</time></trkpt><trkpt lat="59.3499919027" lon="34.6792949829"><ele>145.56</ele><time>2026-08-15T11:03:59Z</time></trkpt><trkpt lat="59.3500121869" lon="34.6795324422"><ele>143.40</ele><time>2026-08-15T11:04:13Z</time></trkpt><trkpt lat="59.3499613926" lon="34.6799092926"><ele>155.22</ele><time>2026-08-15T11:04:34Z</time></trkpt><trkpt lat="59.3499139510" lon="34.6801236179"><ele>154.46</ele><time>2026-08-15T11:04:51Z</time></trkpt><trkpt lat="59.3499732949" lon="34.6804779209"><ele>151.83</ele><time>2026-08-15T11:05:09Z</time></trkpt><trkpt lat="59.3499401025" lon="34.6806386020"><ele>150.83</ele><time>2026-08-15T11:05:24Z</time></trkpt><trkpt lat="59.3499225006" lon="34.6807785798"><ele>150.70</ele><time>2026-08-15T11:05:30Z</time></trkpt><trkpt lat="59.3499089219" lon="34.6811107546"><ele>151.03</ele><time>2026-08-15T11:05:47Z</time></trkpt><trkpt lat="59.3498731311" lon="34.6812621318"><ele>152.27</ele><time>2026-08-15T11:06:02Z</time></trkpt><trkpt lat="59.3498512544" lon="34.6814045403"><ele>154.39</ele><time>2026-08-15T11:06:17Z</time></trkpt><trkpt lat="59.3498262763" lon="34.6817148384"><ele>154.96</ele><time>2026-08-15T11:06:35Z</time></trkpt><trkpt lat="59.3497818522" lon="34.6819357015"><ele>153.90</ele><time>2026-08-15T11:06:51Z</time></trkpt><trkpt lat="59.3497015536" lon="34.6823027451"><ele>150.23</ele><time>2026-08-15T11:07:13Z</time></trkpt><trkpt lat="59.3496498372" lon="34.6825795155"><ele>146.46</ele><time>2026-08-15T11:07:28Z</time></trkpt><trkpt lat="59.3495453987" lon="34.6830257680"><ele>140.76</ele><time>2026-08-15T11:07:50Z</time></trkpt><trkpt lat="59.3495019805" lon="34.6832747106"><ele>142.39</ele><time>2026-08-15T11:08:07Z</time></trkpt><trkpt lat="59.3494822830" lon="34.6835838351"><ele>146.60</ele><time>2026-08-15T11:08:27Z</time></trkpt><trkpt lat="59.3494290579" lon="34.6839830652"><ele>146.60</ele><time>2026-08-15T11:08:44Z</time></trkpt><trkpt lat="59.3493950274" lon="34.6844065189"><ele>147.32</ele><time>2026-08-15T11:09:04Z</time></trkpt><trkpt lat="59.3493644334" lon="34.6848224290"><ele>147.50</ele><time>2026-08-15T11:09:25Z</time></trkpt><trkpt lat="59.3493404612" lon="34.6852105949"><ele>148.18</ele><time>2026-08-15T11:09:43Z</time></trkpt><trkpt lat="59.3493124656" lon="34.6855801530"><ele>148.31</ele><time>2026-08-15T11:10:03Z</time></trkpt><trkpt lat="59.3492976297" lon="34.6859365515"><ele>146.02</ele><time>2026-08-15T11:10:22Z</time></trkpt><trkpt lat="59.3492389563" lon="34.6864301618"><ele>142.58</ele><time>2026-08-15T11:10:43Z</time></trkpt><trkpt lat="59.3492318317" lon="34.6865489334"><ele>147.70</ele><time>2026-08-15T11:11:04Z</time></trkpt><trkpt lat="59.3492512777" lon="34.6867729817"><ele>151.46</ele><time>2026-08-15T11:11:25Z</time></trkpt><trkpt lat="59.3492397107" lon="34.6869581379"><ele>154.94</ele><time>2026-08-15T11:11:45Z</time></trkpt><trkpt lat="59.3491889164" lon="34.6869308967"><ele>160.78</ele><time>2026-08-15T11:12:19Z</time></trkpt><trkpt lat="59.3491434027" lon="34.6869039070"><ele>162.33</ele><time>2026-08-15T11:12:39Z</time></trkpt><trkpt lat="59.3490970507" lon="34.6868704632"><ele>162.36</ele><time>2026-08-15T11:12:58Z</time></trkpt><trkpt lat="59.3490707316" lon="34.6868032403"><ele>162.13</ele><time>2026-08-15T11:13:20Z</time></trkpt><trkpt lat="59.3490848131" lon="34.6866770927"><ele>161.22</ele><time>2026-08-15T11:13:38Z</time></trkpt><trkpt lat="59.3490450829" lon="34.6866511088"><ele>161.72</ele><time>2026-08-15T11:14:06Z</time></trkpt><trkpt lat="59.3490245473" lon="34.6868379414"><ele>162.38</ele><time>2026-08-15T11:14:30Z</time></trkpt><trkpt lat="59.3489915226" lon="34.6869277954"><ele>163.06</ele><time>2026-08-15T11:14:50Z</time></trkpt><trkpt lat="59.3490021676" lon="34.6869203355"><ele>163.94</ele><time>2026-08-15T11:15:15Z</time></trkpt><trkpt lat="59.3489963841" lon="34.6868787613"><ele>164.01</ele><time>2026-08-15T11:15:46Z</time></trkpt><trkpt lat="59.3489756808" lon="34.6868700441"><ele>165.28</ele><time>2026-08-15T11:16:15Z</time></trkpt><trkpt lat="59.3489910197" lon="34.6868749894"><ele>164.57</ele><time>2026-08-15T11:16:43Z</time></trkpt><trkpt lat="59.3490034249" lon="34.6868731454"><ele>165.06</ele><time>2026-08-15T11:17:11Z</time></trkpt><trkpt lat="59.3491042592" lon="34.6868428029"><ele>164.70</ele><time>2026-08-15T11:17:40Z</time></trkpt><trkpt lat="59.3490771856" lon="34.6868138853"><ele>164.00</ele><time>2026-08-15T11:18:04Z</time></trkpt><trkpt lat="59.3491793610" lon="34.6867143083"><ele>164.15</ele><time>2026-08-15T11:18:28Z</time></trkpt><trkpt lat="59.3492397945" lon="34.6868972853"><ele>162.80</ele><time>2026-08-15T11:18:46Z</time></trkpt><trkpt lat="59.3492873199" lon="34.6872059070"><ele>162.23</ele><time>2026-08-15T11:19:04Z</time></trkpt><trkpt lat="59.3492755853" lon="34.6874370798"><ele>161.69</ele><time>2026-08-15T11:19:13Z</time></trkpt><trkpt lat="59.3492685445" lon="34.6877426002"><ele>159.99</ele><time>2026-08-15T11:19:27Z</time></trkpt><trkpt lat="59.3492542952" lon="34.6881611086"><ele>157.93</ele><time>2026-08-15T11:19:47Z</time></trkpt><trkpt lat="59.3492699694" lon="34.6885481849"><ele>156.58</ele><time>2026-08-15T11:20:04Z</time></trkpt><trkpt lat="59.3492780998" lon="34.6886211913"><ele>156.13</ele><time>2026-08-15T11:20:07Z</time></trkpt><trkpt lat="59.3493199255" lon="34.6889422182"><ele>154.34</ele><time>2026-08-15T11:20:22Z</time></trkpt><trkpt lat="59.3493266311" lon="34.6890096925"><ele>153.91</ele><time>2026-08-15T11:20:25Z</time></trkpt><trkpt lat="59.3493463285" lon="34.6890858002"><ele>153.22</ele><time>2026-08-15T11:20:29Z</time></trkpt><trkpt lat="59.3493926805" lon="34.6893703658"><ele>152.07</ele><time>2026-08-15T11:20:42Z</time></trkpt><trkpt lat="59.3494329136" lon="34.6897726133"><ele>150.95</ele><time>2026-08-15T11:20:59Z</time></trkpt><trkpt lat="59.3494735658" lon="34.6900630463"><ele>149.61</ele><time>2026-08-15T11:21:13Z</time></trkpt><trkpt lat="59.3494992144" lon="34.6901375614"><ele>148.75</ele><time>2026-08-15T11:21:18Z</time></trkpt><trkpt lat="59.3495929241" lon="34.6903833188"><ele>147.30</ele><time>2026-08-15T11:21:32Z</time></trkpt><trkpt lat="59.3496584706" lon="34.6906878334"><ele>145.99</ele><time>2026-08-15T11:21:48Z</time></trkpt><trkpt lat="59.3496874720" lon="34.6908292361"><ele>146.15</ele><time>2026-08-15T11:21:55Z</time></trkpt><trkpt lat="59.3497002963" lon="34.6909182519"><ele>146.08</ele><time>2026-08-15T11:21:59Z</time></trkpt><trkpt lat="59.3497001287" lon="34.6912100259"><ele>146.84</ele><time>2026-08-15T11:22:13Z</time></trkpt><trkpt lat="59.3497028109" lon="34.6913126204"><ele>147.07</ele><time>2026-08-15T11:22:18Z</time></trkpt><trkpt lat="59.3497350812" lon="34.6916101780"><ele>147.40</ele><time>2026-08-15T11:22:32Z</time></trkpt><trkpt lat="59.3497531861" lon="34.6918432787"><ele>148.38</ele><time>2026-08-15T11:22:43Z</time></trkpt><trkpt lat="59.3497639988" lon="34.6921694186"><ele>149.31</ele><time>2026-08-15T11:22:57Z</time></trkpt><trkpt lat="59.3497515935" lon="34.6924818121"><ele>148.99</ele><time>2026-08-15T11:23:11Z</time></trkpt><trkpt lat="59.3497824389" lon="34.6928669605"><ele>149.34</ele><time>2026-08-15T11:23:27Z</time></trkpt><trkpt lat="59.3497917429" lon="34.6929576527"><ele>149.40</ele><time>2026-08-15T11:23:31Z</time></trkpt><trkpt lat="59.3497909047" lon="34.6930076927"><ele>149.60</ele><time>2026-08-15T11:23:33Z</time></trkpt><trkpt lat="59.3498064950" lon="34.6932245325"><ele>150.07</ele><time>2026-08-15T11:23:43Z</time></trkpt><trkpt lat="59.3498368375" lon="34.6935018897"><ele>150.34</ele><time>2026-08-15T11:23:55Z</time></trkpt><trkpt lat="59.3498810939" lon="34.6937211603"><ele>149.70</ele><time>2026-08-15T11:24:07Z</time></trkpt><trkpt lat="59.3498853687" lon="34.6938051470"><ele>148.84</ele><time>2026-08-15T11:24:11Z</time></trkpt><trkpt lat="59.3498914875" lon="34.6941501461"><ele>148.72</ele><time>2026-08-15T11:24:25Z</time></trkpt><trkpt lat="59.3498908170" lon="34.6944058780"><ele>151.50</ele><time>2026-08-15T11:24:37Z</time></trkpt><trkpt lat="59.3498923257" lon="34.6945145074"><ele>151.86</ele><time>2026-08-15T11:24:42Z</time></trkpt><trkpt lat="59.3498982769" lon="34.6945577580"><ele>152.34</ele><time>2026-08-15T11:24:44Z</time></trkpt><trkpt lat="59.3498971872" lon="34.6945979074"><ele>152.61</ele><time>2026-08-15T11:24:46Z</time></trkpt><trkpt lat="59.3499140348" lon="34.6946812235"><ele>152.62</ele><time>2026-08-15T11:24:50Z</time></trkpt><trkpt lat="59.3499199860" lon="34.6948740911"><ele>153.56</ele><time>2026-08-15T11:24:59Z</time></trkpt><trkpt lat="59.3499501608" lon="34.6950941160"><ele>155.94</ele><time>2026-08-15T11:25:09Z</time></trkpt><trkpt lat="59.3499784917" lon="34.6953451540"><ele>155.65</ele><time>2026-08-15T11:25:20Z</time></trkpt><trkpt lat="59.3499883823" lon="34.6957107726"><ele>154.65</ele><time>2026-08-15T11:25:35Z</time></trkpt><trkpt lat="59.3500053138" lon="34.6961297840"><ele>151.74</ele><time>2026-08-15T11:25:53Z</time></trkpt><trkpt lat="59.3500724528" lon="34.6964125056"><ele>149.55</ele><time>2026-08-15T11:26:07Z</time></trkpt><trkpt lat="59.3501405139" lon="34.6966528147"><ele>149.97</ele><time>2026-08-15T11:26:21Z</time></trkpt><trkpt lat="59.3502127659" lon="34.6969382185"><ele>151.38</ele><time>2026-08-15T11:26:36Z</time></trkpt><trkpt lat="59.3502695113" lon="34.6972107142"><ele>153.36</ele><time>2026-08-15T11:26:52Z</time></trkpt><trkpt lat="59.3503329623" lon="34.6976181585"><ele>154.56</ele><time>2026-08-15T11:27:12Z</time></trkpt><trkpt lat="59.3503724411" lon="34.6979073342"><ele>153.22</ele><time>2026-08-15T11:27:27Z</time></trkpt><trkpt lat="59.3503832538" lon="34.6980500780"><ele>153.77</ele><time>2026-08-15T11:27:33Z</time></trkpt><trkpt lat="59.3504235707" lon="34.6983417682"><ele>153.93</ele><time>2026-08-15T11:27:46Z</time></trkpt><trkpt lat="59.3504934758" lon="34.6987129189"><ele>154.66</ele><time>2026-08-15T11:28:03Z</time></trkpt><trkpt lat="59.3504969962" lon="34.6987693291"><ele>155.40</ele><time>2026-08-15T11:28:06Z</time></trkpt><trkpt lat="59.3505197112" lon="34.6988821495"><ele>156.87</ele><time>2026-08-15T11:28:21Z</time></trkpt><trkpt lat="59.3505323678" lon="34.6989343688"><ele>156.98</ele><time>2026-08-15T11:28:24Z</time></trkpt><trkpt lat="59.3505859282" lon="34.6993185114"><ele>156.24</ele><time>2026-08-15T11:28:45Z</time></trkpt><trkpt lat="59.3506070506" lon="34.6993755084"><ele>157.18</ele><time>2026-08-15T11:29:06Z</time></trkpt></trkseg></trk></gpx>